<?xml version="1.0" encoding="UTF-8"?>
<gpx xmlns="http://www.topografix.com/GPX/1/1" xmlns:dkl="http://www.gpsware.de/DKL/1/1" xmlns:rtx="http://www.bike-gps.de/RTX/1/1" version="1.1" creator="KOMPASS Digital Map" xmlns:xsi="http://www.w3.org/2001/XMLSchema-instance" xsi:schemaLocation="http://www.topografix.com/GPX/1/1 http://www.topografix.com/GPX/1/1/gpx.xsd">
 <metadata>
 <name>KOMPASS Digital Map Track</name>
 <desc> </desc>
 <time>2011-09-10T14:59:58Z</time>
 <bounds minlat="47.789108" minlon="13.338856" maxlat="47.951977" maxlon="13.596419"/>
 </metadata>
 <trk>
 <name>2011_Attersee-Mondseeumrundung</name>
 <cmt>Mondsee/Attersee-Umrundung</cmt>
 <extensions>
 <dkl:dkl>
 <dkl:format_version>1.1</dkl:format_version>
 <dkl:format>
 <dkl:color>FF0000</dkl:color>
 <dkl:style>00000000</dkl:style>
 <dkl:strength>3</dkl:strength>
 <dkl:transparent>0</dkl:transparent>
 </dkl:format>
 <dkl:profile>
 <dkl:mode>0</dkl:mode>
 <dkl:smooth>0</dkl:smooth>
 </dkl:profile>
 </dkl:dkl>
 </extensions>
 <trkseg>
 <trkpt lat="47.851223" lon="13.346356">
 <ele>494.07</ele>
 <time>2011-09-10T07:32:07Z</time>
 </trkpt>
 <trkpt lat="47.851109" lon="13.346098">
 <ele>494.07</ele>
 <time>2011-09-10T07:34:00Z</time>
 </trkpt>
 <trkpt lat="47.851036" lon="13.345939">
 <ele>493.83</ele>
 <time>2011-09-10T07:34:05Z</time>
 </trkpt>
 <trkpt lat="47.850952" lon="13.345685">
 <ele>493.56</ele>
 <time>2011-09-10T07:34:10Z</time>
 </trkpt>
 <trkpt lat="47.850780" lon="13.345184">
 <ele>493.08</ele>
 <time>2011-09-10T07:34:19Z</time>
 </trkpt>
 <trkpt lat="47.850689" lon="13.344651">
 <ele>492.75</ele>
 <time>2011-09-10T07:34:27Z</time>
 </trkpt>
 <trkpt lat="47.850739" lon="13.343978">
 <ele>492.22</ele>
 <time>2011-09-10T07:34:37Z</time>
 </trkpt>
 <trkpt lat="47.850502" lon="13.343498">
 <ele>492.57</ele>
 <time>2011-09-10T07:34:44Z</time>
 </trkpt>
 <trkpt lat="47.850468" lon="13.343438">
 <ele>492.84</ele>
 <time>2011-09-10T07:34:46Z</time>
 </trkpt>
 <trkpt lat="47.850445" lon="13.343397">
 <ele>493.01</ele>
 <time>2011-09-10T07:34:48Z</time>
 </trkpt>
 <trkpt lat="47.850368" lon="13.343265">
 <ele>493.29</ele>
 <time>2011-09-10T07:34:55Z</time>
 </trkpt>
 <trkpt lat="47.850243" lon="13.342933">
 <ele>493.02</ele>
 <time>2011-09-10T07:35:02Z</time>
 </trkpt>
 <trkpt lat="47.850033" lon="13.342397">
 <ele>492.51</ele>
 <time>2011-09-10T07:35:11Z</time>
 </trkpt>
 <trkpt lat="47.849766" lon="13.341918">
 <ele>492.97</ele>
 <time>2011-09-10T07:35:20Z</time>
 </trkpt>
 <trkpt lat="47.849491" lon="13.341583">
 <ele>493.01</ele>
 <time>2011-09-10T07:35:27Z</time>
 </trkpt>
 <trkpt lat="47.849220" lon="13.341340">
 <ele>492.61</ele>
 <time>2011-09-10T07:35:34Z</time>
 </trkpt>
 <trkpt lat="47.848812" lon="13.340980">
 <ele>492.36</ele>
 <time>2011-09-10T07:35:44Z</time>
 </trkpt>
 <trkpt lat="47.848522" lon="13.340719">
 <ele>492.37</ele>
 <time>2011-09-10T07:35:51Z</time>
 </trkpt>
 <trkpt lat="47.848160" lon="13.340392">
 <ele>491.95</ele>
 <time>2011-09-10T07:35:59Z</time>
 </trkpt>
 <trkpt lat="47.847855" lon="13.340115">
 <ele>491.76</ele>
 <time>2011-09-10T07:36:06Z</time>
 </trkpt>
 <trkpt lat="47.847645" lon="13.339658">
 <ele>491.61</ele>
 <time>2011-09-10T07:36:16Z</time>
 </trkpt>
 <trkpt lat="47.847557" lon="13.339449">
 <ele>491.39</ele>
 <time>2011-09-10T07:36:20Z</time>
 </trkpt>
 <trkpt lat="47.846943" lon="13.339446">
 <ele>491.25</ele>
 <time>2011-09-10T07:36:27Z</time>
 </trkpt>
 <trkpt lat="47.846909" lon="13.339425">
 <ele>491.24</ele>
 <time>2011-09-10T07:36:28Z</time>
 </trkpt>
 <trkpt lat="47.846718" lon="13.339812">
 <ele>491.16</ele>
 <time>2011-09-10T07:36:32Z</time>
 </trkpt>
 <trkpt lat="47.846786" lon="13.339351">
 <ele>491.19</ele>
 <time>2011-09-10T07:36:37Z</time>
 </trkpt>
 <trkpt lat="47.846554" lon="13.339209">
 <ele>491.00</ele>
 <time>2011-09-10T07:36:44Z</time>
 </trkpt>
 <trkpt lat="47.846115" lon="13.339672">
 <ele>490.81</ele>
 <time>2011-09-10T07:36:52Z</time>
 </trkpt>
 <trkpt lat="47.845844" lon="13.339489">
 <ele>490.74</ele>
 <time>2011-09-10T07:36:59Z</time>
 </trkpt>
 <trkpt lat="47.845673" lon="13.339376">
 <ele>490.77</ele>
 <time>2011-09-10T07:37:03Z</time>
 </trkpt>
 <trkpt lat="47.844971" lon="13.338856">
 <ele>491.65</ele>
 <time>2011-09-10T07:37:12Z</time>
 </trkpt>
 <trkpt lat="47.844730" lon="13.338896">
 <ele>492.02</ele>
 <time>2011-09-10T07:37:19Z</time>
 </trkpt>
 <trkpt lat="47.844627" lon="13.338914">
 <ele>492.14</ele>
 <time>2011-09-10T07:37:22Z</time>
 </trkpt>
 <trkpt lat="47.844528" lon="13.338931">
 <ele>492.53</ele>
 <time>2011-09-10T07:37:25Z</time>
 </trkpt>
 <trkpt lat="47.844280" lon="13.339037">
 <ele>492.94</ele>
 <time>2011-09-10T07:37:30Z</time>
 </trkpt>
 <trkpt lat="47.843998" lon="13.339209">
 <ele>493.20</ele>
 <time>2011-09-10T07:37:37Z</time>
 </trkpt>
 <trkpt lat="47.843784" lon="13.339401">
 <ele>493.55</ele>
 <time>2011-09-10T07:37:42Z</time>
 </trkpt>
 <trkpt lat="47.843418" lon="13.339779">
 <ele>494.07</ele>
 <time>2011-09-10T07:37:52Z</time>
 </trkpt>
 <trkpt lat="47.843044" lon="13.340162">
 <ele>494.93</ele>
 <time>2011-09-10T07:38:02Z</time>
 </trkpt>
 <trkpt lat="47.842751" lon="13.340594">
 <ele>494.89</ele>
 <time>2011-09-10T07:38:10Z</time>
 </trkpt>
 <trkpt lat="47.842503" lon="13.340978">
 <ele>494.91</ele>
 <time>2011-09-10T07:38:18Z</time>
 </trkpt>
 <trkpt lat="47.842255" lon="13.341354">
 <ele>493.77</ele>
 <time>2011-09-10T07:38:25Z</time>
 </trkpt>
 <trkpt lat="47.842003" lon="13.341825">
 <ele>492.74</ele>
 <time>2011-09-10T07:38:32Z</time>
 </trkpt>
 <trkpt lat="47.841740" lon="13.342320">
 <ele>492.95</ele>
 <time>2011-09-10T07:38:40Z</time>
 </trkpt>
 <trkpt lat="47.841499" lon="13.342750">
 <ele>493.56</ele>
 <time>2011-09-10T07:38:48Z</time>
 </trkpt>
 <trkpt lat="47.841267" lon="13.343151">
 <ele>493.33</ele>
 <time>2011-09-10T07:38:55Z</time>
 </trkpt>
 <trkpt lat="47.841053" lon="13.343517">
 <ele>493.59</ele>
 <time>2011-09-10T07:39:02Z</time>
 </trkpt>
 <trkpt lat="47.841408" lon="13.344661">
 <ele>493.11</ele>
 <time>2011-09-10T07:39:09Z</time>
 </trkpt>
 <trkpt lat="47.841187" lon="13.345169">
 <ele>492.01</ele>
 <time>2011-09-10T07:39:16Z</time>
 </trkpt>
 <trkpt lat="47.840988" lon="13.345618">
 <ele>491.34</ele>
 <time>2011-09-10T07:39:22Z</time>
 </trkpt>
 <trkpt lat="47.840714" lon="13.346244">
 <ele>491.43</ele>
 <time>2011-09-10T07:39:31Z</time>
 </trkpt>
 <trkpt lat="47.840504" lon="13.346729">
 <ele>491.45</ele>
 <time>2011-09-10T07:39:38Z</time>
 </trkpt>
 <trkpt lat="47.840340" lon="13.347100">
 <ele>491.30</ele>
 <time>2011-09-10T07:39:44Z</time>
 </trkpt>
 <trkpt lat="47.840195" lon="13.347464">
 <ele>492.32</ele>
 <time>2011-09-10T07:39:51Z</time>
 </trkpt>
 <trkpt lat="47.840118" lon="13.347687">
 <ele>492.36</ele>
 <time>2011-09-10T07:39:55Z</time>
 </trkpt>
 <trkpt lat="47.840012" lon="13.347947">
 <ele>493.37</ele>
 <time>2011-09-10T07:40:01Z</time>
 </trkpt>
 <trkpt lat="47.839989" lon="13.347960">
 <ele>493.97</ele>
 <time>2011-09-10T07:40:03Z</time>
 </trkpt>
 <trkpt lat="47.839954" lon="13.348271">
 <ele>494.96</ele>
 <time>2011-09-10T07:40:07Z</time>
 </trkpt>
 <trkpt lat="47.839874" lon="13.348610">
 <ele>495.66</ele>
 <time>2011-09-10T07:40:13Z</time>
 </trkpt>
 <trkpt lat="47.839745" lon="13.349108">
 <ele>495.65</ele>
 <time>2011-09-10T07:40:21Z</time>
 </trkpt>
 <trkpt lat="47.839600" lon="13.349672">
 <ele>495.79</ele>
 <time>2011-09-10T07:40:30Z</time>
 </trkpt>
 <trkpt lat="47.839455" lon="13.350050">
 <ele>496.24</ele>
 <time>2011-09-10T07:40:37Z</time>
 </trkpt>
 <trkpt lat="47.839188" lon="13.350405">
 <ele>497.23</ele>
 <time>2011-09-10T07:40:46Z</time>
 </trkpt>
 <trkpt lat="47.839043" lon="13.350556">
 <ele>497.84</ele>
 <time>2011-09-10T07:40:52Z</time>
 </trkpt>
 <trkpt lat="47.839043" lon="13.350556">
 <ele>498.42</ele>
 <time>2011-09-10T07:40:58Z</time>
 </trkpt>
 <trkpt lat="47.838722" lon="13.350599">
 <ele>498.98</ele>
 <time>2011-09-10T07:41:03Z</time>
 </trkpt>
 <trkpt lat="47.838470" lon="13.351009">
 <ele>498.70</ele>
 <time>2011-09-10T07:41:10Z</time>
 </trkpt>
 <trkpt lat="47.838329" lon="13.351280">
 <ele>497.93</ele>
 <time>2011-09-10T07:41:15Z</time>
 </trkpt>
 <trkpt lat="47.838249" lon="13.351439">
 <ele>497.45</ele>
 <time>2011-09-10T07:41:19Z</time>
 </trkpt>
 <trkpt lat="47.838058" lon="13.351469">
 <ele>498.35</ele>
 <time>2011-09-10T07:41:25Z</time>
 </trkpt>
 <trkpt lat="47.837822" lon="13.351502">
 <ele>498.74</ele>
 <time>2011-09-10T07:41:32Z</time>
 </trkpt>
 <trkpt lat="47.837597" lon="13.351497">
 <ele>498.65</ele>
 <time>2011-09-10T07:41:38Z</time>
 </trkpt>
 <trkpt lat="47.837524" lon="13.351473">
 <ele>498.61</ele>
 <time>2011-09-10T07:41:40Z</time>
 </trkpt>
 <trkpt lat="47.837269" lon="13.351383">
 <ele>498.43</ele>
 <time>2011-09-10T07:41:46Z</time>
 </trkpt>
 <trkpt lat="47.837219" lon="13.351365">
 <ele>498.26</ele>
 <time>2011-09-10T07:41:47Z</time>
 </trkpt>
 <trkpt lat="47.836781" lon="13.350954">
 <ele>498.17</ele>
 <time>2011-09-10T07:41:57Z</time>
 </trkpt>
 <trkpt lat="47.836628" lon="13.350784">
 <ele>498.12</ele>
 <time>2011-09-10T07:42:01Z</time>
 </trkpt>
 <trkpt lat="47.836296" lon="13.350522">
 <ele>498.02</ele>
 <time>2011-09-10T07:42:09Z</time>
 </trkpt>
 <trkpt lat="47.836044" lon="13.350450">
 <ele>497.82</ele>
 <time>2011-09-10T07:42:15Z</time>
 </trkpt>
 <trkpt lat="47.835739" lon="13.350430">
 <ele>498.06</ele>
 <time>2011-09-10T07:42:22Z</time>
 </trkpt>
 <trkpt lat="47.835300" lon="13.350408">
 <ele>497.66</ele>
 <time>2011-09-10T07:42:31Z</time>
 </trkpt>
 <trkpt lat="47.834888" lon="13.350376">
 <ele>498.14</ele>
 <time>2011-09-10T07:42:40Z</time>
 </trkpt>
 <trkpt lat="47.834732" lon="13.350363">
 <ele>498.99</ele>
 <time>2011-09-10T07:42:50Z</time>
 </trkpt>
 <trkpt lat="47.834118" lon="13.350401">
 <ele>499.36</ele>
 <time>2011-09-10T07:42:55Z</time>
 </trkpt>
 <trkpt lat="47.833942" lon="13.350183">
 <ele>499.78</ele>
 <time>2011-09-10T07:43:00Z</time>
 </trkpt>
 <trkpt lat="47.833664" lon="13.349772">
 <ele>499.14</ele>
 <time>2011-09-10T07:43:08Z</time>
 </trkpt>
 <trkpt lat="47.833328" lon="13.349393">
 <ele>498.66</ele>
 <time>2011-09-10T07:43:16Z</time>
 </trkpt>
 <trkpt lat="47.833073" lon="13.349284">
 <ele>498.27</ele>
 <time>2011-09-10T07:43:21Z</time>
 </trkpt>
 <trkpt lat="47.832771" lon="13.349275">
 <ele>498.53</ele>
 <time>2011-09-10T07:43:27Z</time>
 </trkpt>
 <trkpt lat="47.832420" lon="13.349327">
 <ele>498.43</ele>
 <time>2011-09-10T07:43:34Z</time>
 </trkpt>
 <trkpt lat="47.832096" lon="13.349412">
 <ele>498.33</ele>
 <time>2011-09-10T07:43:41Z</time>
 </trkpt>
 <trkpt lat="47.831711" lon="13.349513">
 <ele>498.01</ele>
 <time>2011-09-10T07:43:49Z</time>
 </trkpt>
 <trkpt lat="47.831314" lon="13.349562">
 <ele>498.19</ele>
 <time>2011-09-10T07:43:57Z</time>
 </trkpt>
 <trkpt lat="47.831192" lon="13.349551">
 <ele>498.78</ele>
 <time>2011-09-10T07:44:01Z</time>
 </trkpt>
 <trkpt lat="47.831146" lon="13.349548">
 <ele>498.80</ele>
 <time>2011-09-10T07:44:03Z</time>
 </trkpt>
 <trkpt lat="47.831146" lon="13.349548">
 <ele>498.76</ele>
 <time>2011-09-10T07:44:05Z</time>
 </trkpt>
 <trkpt lat="47.830826" lon="13.350158">
 <ele>497.31</ele>
 <time>2011-09-10T07:44:13Z</time>
 </trkpt>
 <trkpt lat="47.830662" lon="13.350356">
 <ele>496.85</ele>
 <time>2011-09-10T07:44:17Z</time>
 </trkpt>
 <trkpt lat="47.830502" lon="13.350545">
 <ele>497.11</ele>
 <time>2011-09-10T07:44:22Z</time>
 </trkpt>
 <trkpt lat="47.830471" lon="13.350584">
 <ele>497.25</ele>
 <time>2011-09-10T07:44:24Z</time>
 </trkpt>
 <trkpt lat="47.830166" lon="13.350295">
 <ele>496.86</ele>
 <time>2011-09-10T07:44:31Z</time>
 </trkpt>
 <trkpt lat="47.829891" lon="13.349967">
 <ele>496.95</ele>
 <time>2011-09-10T07:44:38Z</time>
 </trkpt>
 <trkpt lat="47.829693" lon="13.349712">
 <ele>496.73</ele>
 <time>2011-09-10T07:44:43Z</time>
 </trkpt>
 <trkpt lat="47.829491" lon="13.349545">
 <ele>496.44</ele>
 <time>2011-09-10T07:44:48Z</time>
 </trkpt>
 <trkpt lat="47.829388" lon="13.349517">
 <ele>496.43</ele>
 <time>2011-09-10T07:44:50Z</time>
 </trkpt>
 <trkpt lat="47.829144" lon="13.349542">
 <ele>496.96</ele>
 <time>2011-09-10T07:44:56Z</time>
 </trkpt>
 <trkpt lat="47.829044" lon="13.349590">
 <ele>497.66</ele>
 <time>2011-09-10T07:45:01Z</time>
 </trkpt>
 <trkpt lat="47.829044" lon="13.349590">
 <ele>497.74</ele>
 <time>2011-09-10T07:45:05Z</time>
 </trkpt>
 <trkpt lat="47.828861" lon="13.350001">
 <ele>497.07</ele>
 <time>2011-09-10T07:45:11Z</time>
 </trkpt>
 <trkpt lat="47.828697" lon="13.350411">
 <ele>496.39</ele>
 <time>2011-09-10T07:45:17Z</time>
 </trkpt>
 <trkpt lat="47.828388" lon="13.350846">
 <ele>496.16</ele>
 <time>2011-09-10T07:45:24Z</time>
 </trkpt>
 <trkpt lat="47.828167" lon="13.350997">
 <ele>496.19</ele>
 <time>2011-09-10T07:45:28Z</time>
 </trkpt>
 <trkpt lat="47.827732" lon="13.351218">
 <ele>495.95</ele>
 <time>2011-09-10T07:45:36Z</time>
 </trkpt>
 <trkpt lat="47.827377" lon="13.351416">
 <ele>496.06</ele>
 <time>2011-09-10T07:45:43Z</time>
 </trkpt>
 <trkpt lat="47.827229" lon="13.351477">
 <ele>496.07</ele>
 <time>2011-09-10T07:45:46Z</time>
 </trkpt>
 <trkpt lat="47.826756" lon="13.351762">
 <ele>496.08</ele>
 <time>2011-09-10T07:45:56Z</time>
 </trkpt>
 <trkpt lat="47.826290" lon="13.352153">
 <ele>496.45</ele>
 <time>2011-09-10T07:46:06Z</time>
 </trkpt>
 <trkpt lat="47.825989" lon="13.352494">
 <ele>496.61</ele>
 <time>2011-09-10T07:46:13Z</time>
 </trkpt>
 <trkpt lat="47.825489" lon="13.353037">
 <ele>496.20</ele>
 <time>2011-09-10T07:46:24Z</time>
 </trkpt>
 <trkpt lat="47.825249" lon="13.353429">
 <ele>495.75</ele>
 <time>2011-09-10T07:46:30Z</time>
 </trkpt>
 <trkpt lat="47.825043" lon="13.353779">
 <ele>495.50</ele>
 <time>2011-09-10T07:46:35Z</time>
 </trkpt>
 <trkpt lat="47.824757" lon="13.354134">
 <ele>495.56</ele>
 <time>2011-09-10T07:46:41Z</time>
 </trkpt>
 <trkpt lat="47.824314" lon="13.354438">
 <ele>494.74</ele>
 <time>2011-09-10T07:46:49Z</time>
 </trkpt>
 <trkpt lat="47.823761" lon="13.354792">
 <ele>494.52</ele>
 <time>2011-09-10T07:46:59Z</time>
 </trkpt>
 <trkpt lat="47.823128" lon="13.355328">
 <ele>493.98</ele>
 <time>2011-09-10T07:47:11Z</time>
 </trkpt>
 <trkpt lat="47.823078" lon="13.355379">
 <ele>494.05</ele>
 <time>2011-09-10T07:47:12Z</time>
 </trkpt>
 <trkpt lat="47.822865" lon="13.355766">
 <ele>493.56</ele>
 <time>2011-09-10T07:47:18Z</time>
 </trkpt>
 <trkpt lat="47.822582" lon="13.356384">
 <ele>493.65</ele>
 <time>2011-09-10T07:47:26Z</time>
 </trkpt>
 <trkpt lat="47.822247" lon="13.356584">
 <ele>493.55</ele>
 <time>2011-09-10T07:47:32Z</time>
 </trkpt>
 <trkpt lat="47.822079" lon="13.356668">
 <ele>493.40</ele>
 <time>2011-09-10T07:47:35Z</time>
 </trkpt>
 <trkpt lat="47.821404" lon="13.356445">
 <ele>493.04</ele>
 <time>2011-09-10T07:47:46Z</time>
 </trkpt>
 <trkpt lat="47.821026" lon="13.356592">
 <ele>493.30</ele>
 <time>2011-09-10T07:47:53Z</time>
 </trkpt>
 <trkpt lat="47.820690" lon="13.356729">
 <ele>493.49</ele>
 <time>2011-09-10T07:47:59Z</time>
 </trkpt>
 <trkpt lat="47.820305" lon="13.356843">
 <ele>493.86</ele>
 <time>2011-09-10T07:48:06Z</time>
 </trkpt>
 <trkpt lat="47.819725" lon="13.356835">
 <ele>494.07</ele>
 <time>2011-09-10T07:48:17Z</time>
 </trkpt>
 <trkpt lat="47.819420" lon="13.356750">
 <ele>494.52</ele>
 <time>2011-09-10T07:48:23Z</time>
 </trkpt>
 <trkpt lat="47.818981" lon="13.356627">
 <ele>493.56</ele>
 <time>2011-09-10T07:48:31Z</time>
 </trkpt>
 <trkpt lat="47.818832" lon="13.356586">
 <ele>493.75</ele>
 <time>2011-09-10T07:48:34Z</time>
 </trkpt>
 <trkpt lat="47.818535" lon="13.356702">
 <ele>494.41</ele>
 <time>2011-09-10T07:48:40Z</time>
 </trkpt>
 <trkpt lat="47.818485" lon="13.356715">
 <ele>494.41</ele>
 <time>2011-09-10T07:48:41Z</time>
 </trkpt>
 <trkpt lat="47.818401" lon="13.356739">
 <ele>494.67</ele>
 <time>2011-09-10T07:48:43Z</time>
 </trkpt>
 <trkpt lat="47.818188" lon="13.357038">
 <ele>495.77</ele>
 <time>2011-09-10T07:48:50Z</time>
 </trkpt>
 <trkpt lat="47.818066" lon="13.357260">
 <ele>497.17</ele>
 <time>2011-09-10T07:48:56Z</time>
 </trkpt>
 <trkpt lat="47.817928" lon="13.357519">
 <ele>498.57</ele>
 <time>2011-09-10T07:49:03Z</time>
 </trkpt>
 <trkpt lat="47.817875" lon="13.357691">
 <ele>499.53</ele>
 <time>2011-09-10T07:49:08Z</time>
 </trkpt>
 <trkpt lat="47.817829" lon="13.358092">
 <ele>501.39</ele>
 <time>2011-09-10T07:49:17Z</time>
 </trkpt>
 <trkpt lat="47.817795" lon="13.358394">
 <ele>501.84</ele>
 <time>2011-09-10T07:49:23Z</time>
 </trkpt>
 <trkpt lat="47.817730" lon="13.358904">
 <ele>502.14</ele>
 <time>2011-09-10T07:49:32Z</time>
 </trkpt>
 <trkpt lat="47.817604" lon="13.359327">
 <ele>502.30</ele>
 <time>2011-09-10T07:49:40Z</time>
 </trkpt>
 <trkpt lat="47.817463" lon="13.359781">
 <ele>502.57</ele>
 <time>2011-09-10T07:49:48Z</time>
 </trkpt>
 <trkpt lat="47.817307" lon="13.360232">
 <ele>502.58</ele>
 <time>2011-09-10T07:49:56Z</time>
 </trkpt>
 <trkpt lat="47.817131" lon="13.360771">
 <ele>503.30</ele>
 <time>2011-09-10T07:50:06Z</time>
 </trkpt>
 <trkpt lat="47.817047" lon="13.361142">
 <ele>503.47</ele>
 <time>2011-09-10T07:50:13Z</time>
 </trkpt>
 <trkpt lat="47.816990" lon="13.361395">
 <ele>503.45</ele>
 <time>2011-09-10T07:50:18Z</time>
 </trkpt>
 <trkpt lat="47.816902" lon="13.361777">
 <ele>503.45</ele>
 <time>2011-09-10T07:50:25Z</time>
 </trkpt>
 <trkpt lat="47.816864" lon="13.361950">
 <ele>504.79</ele>
 <time>2011-09-10T07:50:28Z</time>
 </trkpt>
 <trkpt lat="47.816807" lon="13.362195">
 <ele>506.30</ele>
 <time>2011-09-10T07:50:32Z</time>
 </trkpt>
 <trkpt lat="47.816742" lon="13.362475">
 <ele>505.93</ele>
 <time>2011-09-10T07:50:36Z</time>
 </trkpt>
 <trkpt lat="47.816639" lon="13.362933">
 <ele>504.75</ele>
 <time>2011-09-10T07:50:42Z</time>
 </trkpt>
 <trkpt lat="47.816750" lon="13.363789">
 <ele>504.12</ele>
 <time>2011-09-10T07:50:46Z</time>
 </trkpt>
 <trkpt lat="47.816574" lon="13.363923">
 <ele>503.17</ele>
 <time>2011-09-10T07:50:51Z</time>
 </trkpt>
 <trkpt lat="47.816528" lon="13.363960">
 <ele>502.86</ele>
 <time>2011-09-10T07:50:52Z</time>
 </trkpt>
 <trkpt lat="47.816425" lon="13.364036">
 <ele>502.27</ele>
 <time>2011-09-10T07:50:54Z</time>
 </trkpt>
 <trkpt lat="47.816181" lon="13.364170">
 <ele>500.65</ele>
 <time>2011-09-10T07:50:58Z</time>
 </trkpt>
 <trkpt lat="47.816071" lon="13.364085">
 <ele>499.21</ele>
 <time>2011-09-10T07:51:02Z</time>
 </trkpt>
 <trkpt lat="47.816021" lon="13.364175">
 <ele>498.61</ele>
 <time>2011-09-10T07:51:06Z</time>
 </trkpt>
 <trkpt lat="47.816021" lon="13.364175">
 <ele>498.56</ele>
 <time>2011-09-10T07:51:07Z</time>
 </trkpt>
 <trkpt lat="47.815979" lon="13.364246">
 <ele>498.54</ele>
 <time>2011-09-10T07:51:14Z</time>
 </trkpt>
 <trkpt lat="47.815960" lon="13.364279">
 <ele>498.52</ele>
 <time>2011-09-10T07:51:15Z</time>
 </trkpt>
 <trkpt lat="47.815781" lon="13.364441">
 <ele>497.95</ele>
 <time>2011-09-10T07:51:21Z</time>
 </trkpt>
 <trkpt lat="47.815498" lon="13.364690">
 <ele>497.23</ele>
 <time>2011-09-10T07:51:28Z</time>
 </trkpt>
 <trkpt lat="47.815121" lon="13.365024">
 <ele>496.20</ele>
 <time>2011-09-10T07:51:36Z</time>
 </trkpt>
 <trkpt lat="47.814857" lon="13.365280">
 <ele>495.26</ele>
 <time>2011-09-10T07:51:41Z</time>
 </trkpt>
 <trkpt lat="47.814514" lon="13.365761">
 <ele>493.53</ele>
 <time>2011-09-10T07:51:48Z</time>
 </trkpt>
 <trkpt lat="47.814323" lon="13.366327">
 <ele>491.62</ele>
 <time>2011-09-10T07:51:54Z</time>
 </trkpt>
 <trkpt lat="47.814178" lon="13.366905">
 <ele>490.63</ele>
 <time>2011-09-10T07:52:00Z</time>
 </trkpt>
 <trkpt lat="47.813976" lon="13.367685">
 <ele>491.18</ele>
 <time>2011-09-10T07:52:09Z</time>
 </trkpt>
 <trkpt lat="47.813866" lon="13.368080">
 <ele>491.91</ele>
 <time>2011-09-10T07:52:14Z</time>
 </trkpt>
 <trkpt lat="47.813774" lon="13.368239">
 <ele>492.42</ele>
 <time>2011-09-10T07:52:17Z</time>
 </trkpt>
 <trkpt lat="47.813580" lon="13.368505">
 <ele>493.45</ele>
 <time>2011-09-10T07:52:22Z</time>
 </trkpt>
 <trkpt lat="47.813343" lon="13.368922">
 <ele>494.23</ele>
 <time>2011-09-10T07:52:29Z</time>
 </trkpt>
 <trkpt lat="47.812996" lon="13.369284">
 <ele>494.66</ele>
 <time>2011-09-10T07:52:37Z</time>
 </trkpt>
 <trkpt lat="47.812672" lon="13.369623">
 <ele>494.24</ele>
 <time>2011-09-10T07:52:44Z</time>
 </trkpt>
 <trkpt lat="47.812321" lon="13.370084">
 <ele>493.68</ele>
 <time>2011-09-10T07:52:52Z</time>
 </trkpt>
 <trkpt lat="47.812153" lon="13.370345">
 <ele>493.39</ele>
 <time>2011-09-10T07:52:56Z</time>
 </trkpt>
 <trkpt lat="47.811890" lon="13.370732">
 <ele>493.01</ele>
 <time>2011-09-10T07:53:02Z</time>
 </trkpt>
 <trkpt lat="47.811558" lon="13.371016">
 <ele>492.48</ele>
 <time>2011-09-10T07:53:08Z</time>
 </trkpt>
 <trkpt lat="47.811127" lon="13.371386">
 <ele>491.80</ele>
 <time>2011-09-10T07:53:16Z</time>
 </trkpt>
 <trkpt lat="47.810734" lon="13.371703">
 <ele>492.41</ele>
 <time>2011-09-10T07:53:24Z</time>
 </trkpt>
 <trkpt lat="47.810429" lon="13.371919">
 <ele>493.28</ele>
 <time>2011-09-10T07:53:30Z</time>
 </trkpt>
 <trkpt lat="47.810093" lon="13.372175">
 <ele>492.68</ele>
 <time>2011-09-10T07:53:36Z</time>
 </trkpt>
 <trkpt lat="47.809792" lon="13.372531">
 <ele>492.77</ele>
 <time>2011-09-10T07:53:43Z</time>
 </trkpt>
 <trkpt lat="47.809502" lon="13.372871">
 <ele>492.60</ele>
 <time>2011-09-10T07:53:49Z</time>
 </trkpt>
 <trkpt lat="47.809162" lon="13.373267">
 <ele>492.55</ele>
 <time>2011-09-10T07:53:56Z</time>
 </trkpt>
 <trkpt lat="47.808826" lon="13.373661">
 <ele>492.42</ele>
 <time>2011-09-10T07:54:03Z</time>
 </trkpt>
 <trkpt lat="47.808449" lon="13.374105">
 <ele>492.34</ele>
 <time>2011-09-10T07:54:11Z</time>
 </trkpt>
 <trkpt lat="47.808136" lon="13.374518">
 <ele>492.40</ele>
 <time>2011-09-10T07:54:18Z</time>
 </trkpt>
 <trkpt lat="47.807850" lon="13.374958">
 <ele>491.72</ele>
 <time>2011-09-10T07:54:25Z</time>
 </trkpt>
 <trkpt lat="47.807610" lon="13.375323">
 <ele>491.52</ele>
 <time>2011-09-10T07:54:31Z</time>
 </trkpt>
 <trkpt lat="47.807423" lon="13.375601">
 <ele>491.74</ele>
 <time>2011-09-10T07:54:36Z</time>
 </trkpt>
 <trkpt lat="47.807056" lon="13.376087">
 <ele>491.84</ele>
 <time>2011-09-10T07:54:44Z</time>
 </trkpt>
 <trkpt lat="47.806847" lon="13.376370">
 <ele>491.84</ele>
 <time>2011-09-10T07:54:49Z</time>
 </trkpt>
 <trkpt lat="47.806744" lon="13.376507">
 <ele>491.90</ele>
 <time>2011-09-10T07:54:52Z</time>
 </trkpt>
 <trkpt lat="47.806450" lon="13.376992">
 <ele>492.20</ele>
 <time>2011-09-10T07:55:00Z</time>
 </trkpt>
 <trkpt lat="47.806423" lon="13.377072">
 <ele>492.29</ele>
 <time>2011-09-10T07:55:01Z</time>
 </trkpt>
 <trkpt lat="47.806210" lon="13.377787">
 <ele>493.71</ele>
 <time>2011-09-10T07:55:09Z</time>
 </trkpt>
 <trkpt lat="47.806053" lon="13.378319">
 <ele>494.96</ele>
 <time>2011-09-10T07:55:16Z</time>
 </trkpt>
 <trkpt lat="47.806030" lon="13.378395">
 <ele>495.05</ele>
 <time>2011-09-10T07:55:17Z</time>
 </trkpt>
 <trkpt lat="47.805878" lon="13.378731">
 <ele>495.25</ele>
 <time>2011-09-10T07:55:22Z</time>
 </trkpt>
 <trkpt lat="47.805805" lon="13.378813">
 <ele>495.23</ele>
 <time>2011-09-10T07:55:24Z</time>
 </trkpt>
 <trkpt lat="47.805511" lon="13.379140">
 <ele>494.49</ele>
 <time>2011-09-10T07:55:31Z</time>
 </trkpt>
 <trkpt lat="47.805279" lon="13.379395">
 <ele>494.16</ele>
 <time>2011-09-10T07:55:36Z</time>
 </trkpt>
 <trkpt lat="47.804913" lon="13.379805">
 <ele>493.55</ele>
 <time>2011-09-10T07:55:44Z</time>
 </trkpt>
 <trkpt lat="47.804516" lon="13.380316">
 <ele>493.93</ele>
 <time>2011-09-10T07:55:53Z</time>
 </trkpt>
 <trkpt lat="47.804283" lon="13.380761">
 <ele>493.19</ele>
 <time>2011-09-10T07:55:59Z</time>
 </trkpt>
 <trkpt lat="47.804066" lon="13.381183">
 <ele>492.71</ele>
 <time>2011-09-10T07:56:05Z</time>
 </trkpt>
 <trkpt lat="47.803940" lon="13.381426">
 <ele>492.55</ele>
 <time>2011-09-10T07:56:09Z</time>
 </trkpt>
 <trkpt lat="47.803745" lon="13.381800">
 <ele>492.71</ele>
 <time>2011-09-10T07:56:15Z</time>
 </trkpt>
 <trkpt lat="47.803539" lon="13.382199">
 <ele>492.40</ele>
 <time>2011-09-10T07:56:21Z</time>
 </trkpt>
 <trkpt lat="47.803230" lon="13.382601">
 <ele>492.19</ele>
 <time>2011-09-10T07:56:28Z</time>
 </trkpt>
 <trkpt lat="47.802971" lon="13.383041">
 <ele>491.69</ele>
 <time>2011-09-10T07:56:35Z</time>
 </trkpt>
 <trkpt lat="47.802784" lon="13.383486">
 <ele>492.47</ele>
 <time>2011-09-10T07:56:41Z</time>
 </trkpt>
 <trkpt lat="47.802616" lon="13.383895">
 <ele>492.47</ele>
 <time>2011-09-10T07:56:47Z</time>
 </trkpt>
 <trkpt lat="47.802513" lon="13.384145">
 <ele>492.15</ele>
 <time>2011-09-10T07:56:51Z</time>
 </trkpt>
 <trkpt lat="47.802464" lon="13.384251">
 <ele>492.20</ele>
 <time>2011-09-10T07:56:53Z</time>
 </trkpt>
 <trkpt lat="47.802258" lon="13.384610">
 <ele>492.10</ele>
 <time>2011-09-10T07:56:59Z</time>
 </trkpt>
 <trkpt lat="47.801949" lon="13.385149">
 <ele>492.04</ele>
 <time>2011-09-10T07:57:08Z</time>
 </trkpt>
 <trkpt lat="47.801739" lon="13.385515">
 <ele>492.03</ele>
 <time>2011-09-10T07:57:14Z</time>
 </trkpt>
 <trkpt lat="47.801590" lon="13.385770">
 <ele>492.00</ele>
 <time>2011-09-10T07:57:19Z</time>
 </trkpt>
 <trkpt lat="47.801479" lon="13.386031">
 <ele>492.05</ele>
 <time>2011-09-10T07:57:22Z</time>
 </trkpt>
 <trkpt lat="47.801414" lon="13.386490">
 <ele>492.05</ele>
 <time>2011-09-10T07:57:27Z</time>
 </trkpt>
 <trkpt lat="47.801403" lon="13.386572">
 <ele>492.09</ele>
 <time>2011-09-10T07:57:28Z</time>
 </trkpt>
 <trkpt lat="47.801292" lon="13.387348">
 <ele>492.50</ele>
 <time>2011-09-10T07:57:38Z</time>
 </trkpt>
 <trkpt lat="47.801281" lon="13.387423">
 <ele>492.54</ele>
 <time>2011-09-10T07:57:39Z</time>
 </trkpt>
 <trkpt lat="47.801182" lon="13.387971">
 <ele>492.70</ele>
 <time>2011-09-10T07:57:46Z</time>
 </trkpt>
 <trkpt lat="47.801128" lon="13.388289">
 <ele>492.40</ele>
 <time>2011-09-10T07:57:50Z</time>
 </trkpt>
 <trkpt lat="47.801098" lon="13.388462">
 <ele>492.24</ele>
 <time>2011-09-10T07:57:52Z</time>
 </trkpt>
 <trkpt lat="47.801010" lon="13.388897">
 <ele>492.28</ele>
 <time>2011-09-10T07:57:57Z</time>
 </trkpt>
 <trkpt lat="47.800797" lon="13.389703">
 <ele>492.48</ele>
 <time>2011-09-10T07:58:07Z</time>
 </trkpt>
 <trkpt lat="47.800659" lon="13.390222">
 <ele>491.99</ele>
 <time>2011-09-10T07:58:13Z</time>
 </trkpt>
 <trkpt lat="47.800434" lon="13.390858">
 <ele>491.68</ele>
 <time>2011-09-10T07:58:21Z</time>
 </trkpt>
 <trkpt lat="47.800144" lon="13.391606">
 <ele>491.05</ele>
 <time>2011-09-10T07:58:31Z</time>
 </trkpt>
 <trkpt lat="47.799969" lon="13.392052">
 <ele>490.68</ele>
 <time>2011-09-10T07:58:37Z</time>
 </trkpt>
 <trkpt lat="47.799686" lon="13.392776">
 <ele>490.88</ele>
 <time>2011-09-10T07:58:47Z</time>
 </trkpt>
 <trkpt lat="47.799496" lon="13.393281">
 <ele>490.86</ele>
 <time>2011-09-10T07:58:54Z</time>
 </trkpt>
 <trkpt lat="47.799271" lon="13.393931">
 <ele>490.34</ele>
 <time>2011-09-10T07:59:03Z</time>
 </trkpt>
 <trkpt lat="47.799049" lon="13.394568">
 <ele>490.29</ele>
 <time>2011-09-10T07:59:12Z</time>
 </trkpt>
 <trkpt lat="47.798889" lon="13.395165">
 <ele>490.67</ele>
 <time>2011-09-10T07:59:20Z</time>
 </trkpt>
 <trkpt lat="47.798710" lon="13.396006">
 <ele>490.64</ele>
 <time>2011-09-10T07:59:31Z</time>
 </trkpt>
 <trkpt lat="47.798618" lon="13.396445">
 <ele>491.03</ele>
 <time>2011-09-10T07:59:37Z</time>
 </trkpt>
 <trkpt lat="47.798561" lon="13.396708">
 <ele>491.33</ele>
 <time>2011-09-10T07:59:41Z</time>
 </trkpt>
 <trkpt lat="47.798424" lon="13.397033">
 <ele>491.20</ele>
 <time>2011-09-10T07:59:47Z</time>
 </trkpt>
 <trkpt lat="47.798260" lon="13.397381">
 <ele>490.80</ele>
 <time>2011-09-10T07:59:52Z</time>
 </trkpt>
 <trkpt lat="47.797974" lon="13.397778">
 <ele>490.46</ele>
 <time>2011-09-10T07:59:59Z</time>
 </trkpt>
 <trkpt lat="47.797768" lon="13.398043">
 <ele>490.58</ele>
 <time>2011-09-10T08:00:05Z</time>
 </trkpt>
 <trkpt lat="47.797668" lon="13.398173">
 <ele>490.87</ele>
 <time>2011-09-10T08:00:09Z</time>
 </trkpt>
 <trkpt lat="47.797661" lon="13.398386">
 <ele>491.16</ele>
 <time>2011-09-10T08:00:12Z</time>
 </trkpt>
 <trkpt lat="47.797661" lon="13.398386">
 <ele>491.29</ele>
 <time>2011-09-10T08:00:13Z</time>
 </trkpt>
 <trkpt lat="47.797707" lon="13.398454">
 <ele>491.67</ele>
 <time>2011-09-10T08:00:25Z</time>
 </trkpt>
 <trkpt lat="47.797806" lon="13.398573">
 <ele>491.59</ele>
 <time>2011-09-10T08:00:29Z</time>
 </trkpt>
 <trkpt lat="47.797958" lon="13.398764">
 <ele>491.61</ele>
 <time>2011-09-10T08:00:33Z</time>
 </trkpt>
 <trkpt lat="47.798294" lon="13.399210">
 <ele>491.10</ele>
 <time>2011-09-10T08:00:41Z</time>
 </trkpt>
 <trkpt lat="47.798649" lon="13.399704">
 <ele>490.88</ele>
 <time>2011-09-10T08:00:49Z</time>
 </trkpt>
 <trkpt lat="47.799034" lon="13.400295">
 <ele>490.94</ele>
 <time>2011-09-10T08:00:58Z</time>
 </trkpt>
 <trkpt lat="47.799274" lon="13.400833">
 <ele>491.25</ele>
 <time>2011-09-10T08:01:05Z</time>
 </trkpt>
 <trkpt lat="47.799427" lon="13.401417">
 <ele>491.71</ele>
 <time>2011-09-10T08:01:12Z</time>
 </trkpt>
 <trkpt lat="47.799511" lon="13.402027">
 <ele>491.98</ele>
 <time>2011-09-10T08:01:19Z</time>
 </trkpt>
 <trkpt lat="47.799538" lon="13.402667">
 <ele>491.13</ele>
 <time>2011-09-10T08:01:26Z</time>
 </trkpt>
 <trkpt lat="47.799435" lon="13.403403">
 <ele>490.20</ele>
 <time>2011-09-10T08:01:34Z</time>
 </trkpt>
 <trkpt lat="47.799366" lon="13.404324">
 <ele>490.09</ele>
 <time>2011-09-10T08:01:44Z</time>
 </trkpt>
 <trkpt lat="47.799263" lon="13.405044">
 <ele>489.88</ele>
 <time>2011-09-10T08:01:52Z</time>
 </trkpt>
 <trkpt lat="47.799248" lon="13.405135">
 <ele>489.80</ele>
 <time>2011-09-10T08:01:53Z</time>
 </trkpt>
 <trkpt lat="47.799061" lon="13.405599">
 <ele>489.56</ele>
 <time>2011-09-10T08:01:59Z</time>
 </trkpt>
 <trkpt lat="47.798923" lon="13.405781">
 <ele>489.67</ele>
 <time>2011-09-10T08:02:02Z</time>
 </trkpt>
 <trkpt lat="47.798595" lon="13.406077">
 <ele>490.23</ele>
 <time>2011-09-10T08:02:09Z</time>
 </trkpt>
 <trkpt lat="47.798447" lon="13.406389">
 <ele>490.34</ele>
 <time>2011-09-10T08:02:14Z</time>
 </trkpt>
 <trkpt lat="47.798248" lon="13.406880">
 <ele>490.16</ele>
 <time>2011-09-10T08:02:20Z</time>
 </trkpt>
 <trkpt lat="47.798668" lon="13.409289">
 <ele>492.00</ele>
 <time>2011-09-10T08:02:56Z</time>
 </trkpt>
 <trkpt lat="47.798630" lon="13.409335">
 <ele>492.08</ele>
 <time>2011-09-10T08:02:58Z</time>
 </trkpt>
 <trkpt lat="47.798641" lon="13.409535">
 <ele>492.17</ele>
 <time>2011-09-10T08:03:04Z</time>
 </trkpt>
 <trkpt lat="47.798637" lon="13.409711">
 <ele>492.06</ele>
 <time>2011-09-10T08:03:10Z</time>
 </trkpt>
 <trkpt lat="47.798607" lon="13.409811">
 <ele>492.05</ele>
 <time>2011-09-10T08:03:15Z</time>
 </trkpt>
 <trkpt lat="47.798527" lon="13.409839">
 <ele>491.55</ele>
 <time>2011-09-10T08:04:28Z</time>
 </trkpt>
 <trkpt lat="47.798809" lon="13.417701">
 <ele>490.17</ele>
 <time>2011-09-10T08:06:14Z</time>
 </trkpt>
 <trkpt lat="47.798813" lon="13.417907">
 <ele>489.77</ele>
 <time>2011-09-10T08:06:17Z</time>
 </trkpt>
 <trkpt lat="47.798798" lon="13.418057">
 <ele>489.58</ele>
 <time>2011-09-10T08:06:19Z</time>
 </trkpt>
 <trkpt lat="47.798782" lon="13.418299">
 <ele>489.60</ele>
 <time>2011-09-10T08:06:22Z</time>
 </trkpt>
 <trkpt lat="47.798706" lon="13.418646">
 <ele>489.81</ele>
 <time>2011-09-10T08:06:26Z</time>
 </trkpt>
 <trkpt lat="47.798813" lon="13.419198">
 <ele>489.80</ele>
 <time>2011-09-10T08:06:33Z</time>
 </trkpt>
 <trkpt lat="47.798805" lon="13.419711">
 <ele>489.43</ele>
 <time>2011-09-10T08:06:39Z</time>
 </trkpt>
 <trkpt lat="47.798775" lon="13.419990">
 <ele>489.37</ele>
 <time>2011-09-10T08:06:42Z</time>
 </trkpt>
 <trkpt lat="47.798943" lon="13.420556">
 <ele>489.30</ele>
 <time>2011-09-10T08:06:48Z</time>
 </trkpt>
 <trkpt lat="47.799129" lon="13.421042">
 <ele>489.33</ele>
 <time>2011-09-10T08:06:54Z</time>
 </trkpt>
 <trkpt lat="47.799149" lon="13.421126">
 <ele>489.33</ele>
 <time>2011-09-10T08:06:55Z</time>
 </trkpt>
 <trkpt lat="47.799110" lon="13.421495">
 <ele>489.22</ele>
 <time>2011-09-10T08:07:01Z</time>
 </trkpt>
 <trkpt lat="47.799198" lon="13.421904">
 <ele>488.93</ele>
 <time>2011-09-10T08:07:05Z</time>
 </trkpt>
 <trkpt lat="47.799229" lon="13.422237">
 <ele>488.75</ele>
 <time>2011-09-10T08:07:09Z</time>
 </trkpt>
 <trkpt lat="47.799370" lon="13.422807">
 <ele>488.71</ele>
 <time>2011-09-10T08:07:17Z</time>
 </trkpt>
 <trkpt lat="47.799419" lon="13.422985">
 <ele>489.23</ele>
 <time>2011-09-10T08:07:21Z</time>
 </trkpt>
 <trkpt lat="47.799538" lon="13.423326">
 <ele>489.36</ele>
 <time>2011-09-10T08:07:27Z</time>
 </trkpt>
 <trkpt lat="47.799564" lon="13.423390">
 <ele>489.25</ele>
 <time>2011-09-10T08:07:28Z</time>
 </trkpt>
 <trkpt lat="47.799843" lon="13.423967">
 <ele>488.95</ele>
 <time>2011-09-10T08:07:37Z</time>
 </trkpt>
 <trkpt lat="47.799877" lon="13.424034">
 <ele>488.91</ele>
 <time>2011-09-10T08:07:38Z</time>
 </trkpt>
 <trkpt lat="47.800163" lon="13.424565">
 <ele>490.71</ele>
 <time>2011-09-10T08:07:47Z</time>
 </trkpt>
 <trkpt lat="47.800426" lon="13.425073">
 <ele>491.46</ele>
 <time>2011-09-10T08:07:56Z</time>
 </trkpt>
 <trkpt lat="47.800568" lon="13.425363">
 <ele>491.75</ele>
 <time>2011-09-10T08:08:01Z</time>
 </trkpt>
 <trkpt lat="47.800655" lon="13.425789">
 <ele>491.54</ele>
 <time>2011-09-10T08:08:07Z</time>
 </trkpt>
 <trkpt lat="47.800625" lon="13.426244">
 <ele>491.58</ele>
 <time>2011-09-10T08:08:13Z</time>
 </trkpt>
 <trkpt lat="47.800552" lon="13.426858">
 <ele>491.39</ele>
 <time>2011-09-10T08:08:21Z</time>
 </trkpt>
 <trkpt lat="47.800411" lon="13.427464">
 <ele>490.82</ele>
 <time>2011-09-10T08:08:29Z</time>
 </trkpt>
 <trkpt lat="47.800289" lon="13.428171">
 <ele>489.98</ele>
 <time>2011-09-10T08:08:37Z</time>
 </trkpt>
 <trkpt lat="47.800270" lon="13.428552">
 <ele>489.55</ele>
 <time>2011-09-10T08:08:41Z</time>
 </trkpt>
 <trkpt lat="47.800220" lon="13.429367">
 <ele>488.91</ele>
 <time>2011-09-10T08:08:49Z</time>
 </trkpt>
 <trkpt lat="47.800186" lon="13.430158">
 <ele>488.59</ele>
 <time>2011-09-10T08:08:57Z</time>
 </trkpt>
 <trkpt lat="47.800140" lon="13.431017">
 <ele>488.23</ele>
 <time>2011-09-10T08:09:06Z</time>
 </trkpt>
 <trkpt lat="47.800030" lon="13.431622">
 <ele>488.43</ele>
 <time>2011-09-10T08:09:13Z</time>
 </trkpt>
 <trkpt lat="47.799843" lon="13.432292">
 <ele>488.53</ele>
 <time>2011-09-10T08:09:21Z</time>
 </trkpt>
 <trkpt lat="47.799847" lon="13.432626">
 <ele>489.02</ele>
 <time>2011-09-10T08:09:25Z</time>
 </trkpt>
 <trkpt lat="47.799961" lon="13.433244">
 <ele>488.79</ele>
 <time>2011-09-10T08:09:32Z</time>
 </trkpt>
 <trkpt lat="47.800011" lon="13.433520">
 <ele>488.51</ele>
 <time>2011-09-10T08:09:35Z</time>
 </trkpt>
 <trkpt lat="47.800053" lon="13.434071">
 <ele>487.90</ele>
 <time>2011-09-10T08:09:41Z</time>
 </trkpt>
 <trkpt lat="47.800076" lon="13.434694">
 <ele>488.05</ele>
 <time>2011-09-10T08:09:48Z</time>
 </trkpt>
 <trkpt lat="47.800175" lon="13.435293">
 <ele>488.46</ele>
 <time>2011-09-10T08:09:55Z</time>
 </trkpt>
 <trkpt lat="47.800285" lon="13.436003">
 <ele>489.53</ele>
 <time>2011-09-10T08:10:04Z</time>
 </trkpt>
 <trkpt lat="47.800358" lon="13.436440">
 <ele>490.24</ele>
 <time>2011-09-10T08:10:10Z</time>
 </trkpt>
 <trkpt lat="47.800449" lon="13.436716">
 <ele>490.69</ele>
 <time>2011-09-10T08:10:14Z</time>
 </trkpt>
 <trkpt lat="47.800503" lon="13.436838">
 <ele>490.83</ele>
 <time>2011-09-10T08:10:16Z</time>
 </trkpt>
 <trkpt lat="47.800594" lon="13.437030">
 <ele>490.83</ele>
 <time>2011-09-10T08:10:19Z</time>
 </trkpt>
 <trkpt lat="47.800800" lon="13.437464">
 <ele>490.10</ele>
 <time>2011-09-10T08:10:25Z</time>
 </trkpt>
 <trkpt lat="47.801079" lon="13.438091">
 <ele>488.84</ele>
 <time>2011-09-10T08:10:34Z</time>
 </trkpt>
 <trkpt lat="47.801266" lon="13.438690">
 <ele>487.86</ele>
 <time>2011-09-10T08:10:42Z</time>
 </trkpt>
 <trkpt lat="47.801498" lon="13.439349">
 <ele>487.96</ele>
 <time>2011-09-10T08:10:51Z</time>
 </trkpt>
 <trkpt lat="47.801804" lon="13.440126">
 <ele>488.16</ele>
 <time>2011-09-10T08:11:02Z</time>
 </trkpt>
 <trkpt lat="47.801956" lon="13.440757">
 <ele>488.10</ele>
 <time>2011-09-10T08:11:10Z</time>
 </trkpt>
 <trkpt lat="47.802132" lon="13.441551">
 <ele>488.29</ele>
 <time>2011-09-10T08:11:20Z</time>
 </trkpt>
 <trkpt lat="47.802280" lon="13.442356">
 <ele>488.58</ele>
 <time>2011-09-10T08:11:30Z</time>
 </trkpt>
 <trkpt lat="47.802288" lon="13.442937">
 <ele>488.40</ele>
 <time>2011-09-10T08:11:37Z</time>
 </trkpt>
 <trkpt lat="47.802197" lon="13.443310">
 <ele>488.34</ele>
 <time>2011-09-10T08:11:42Z</time>
 </trkpt>
 <trkpt lat="47.801933" lon="13.444152">
 <ele>488.04</ele>
 <time>2011-09-10T08:11:53Z</time>
 </trkpt>
 <trkpt lat="47.801842" lon="13.444615">
 <ele>488.27</ele>
 <time>2011-09-10T08:11:59Z</time>
 </trkpt>
 <trkpt lat="47.801838" lon="13.445021">
 <ele>488.46</ele>
 <time>2011-09-10T08:12:04Z</time>
 </trkpt>
 <trkpt lat="47.801926" lon="13.445495">
 <ele>488.56</ele>
 <time>2011-09-10T08:12:10Z</time>
 </trkpt>
 <trkpt lat="47.801991" lon="13.445734">
 <ele>488.55</ele>
 <time>2011-09-10T08:12:13Z</time>
 </trkpt>
 <trkpt lat="47.802067" lon="13.446055">
 <ele>488.45</ele>
 <time>2011-09-10T08:12:17Z</time>
 </trkpt>
 <trkpt lat="47.802128" lon="13.446387">
 <ele>488.14</ele>
 <time>2011-09-10T08:12:21Z</time>
 </trkpt>
 <trkpt lat="47.802208" lon="13.446763">
 <ele>488.31</ele>
 <time>2011-09-10T08:12:26Z</time>
 </trkpt>
 <trkpt lat="47.802380" lon="13.447202">
 <ele>488.35</ele>
 <time>2011-09-10T08:12:32Z</time>
 </trkpt>
 <trkpt lat="47.802544" lon="13.447631">
 <ele>488.50</ele>
 <time>2011-09-10T08:12:38Z</time>
 </trkpt>
 <trkpt lat="47.802570" lon="13.447700">
 <ele>488.42</ele>
 <time>2011-09-10T08:12:39Z</time>
 </trkpt>
 <trkpt lat="47.802746" lon="13.448205">
 <ele>488.30</ele>
 <time>2011-09-10T08:12:47Z</time>
 </trkpt>
 <trkpt lat="47.802845" lon="13.448638">
 <ele>488.23</ele>
 <time>2011-09-10T08:12:53Z</time>
 </trkpt>
 <trkpt lat="47.802914" lon="13.448943">
 <ele>488.28</ele>
 <time>2011-09-10T08:12:57Z</time>
 </trkpt>
 <trkpt lat="47.803001" lon="13.449239">
 <ele>488.02</ele>
 <time>2011-09-10T08:13:01Z</time>
 </trkpt>
 <trkpt lat="47.803219" lon="13.449785">
 <ele>487.75</ele>
 <time>2011-09-10T08:13:09Z</time>
 </trkpt>
 <trkpt lat="47.803284" lon="13.450192">
 <ele>488.29</ele>
 <time>2011-09-10T08:13:15Z</time>
 </trkpt>
 <trkpt lat="47.803291" lon="13.450258">
 <ele>488.51</ele>
 <time>2011-09-10T08:13:16Z</time>
 </trkpt>
 <trkpt lat="47.803410" lon="13.450514">
 <ele>489.11</ele>
 <time>2011-09-10T08:13:21Z</time>
 </trkpt>
 <trkpt lat="47.803558" lon="13.450588">
 <ele>489.50</ele>
 <time>2011-09-10T08:13:26Z</time>
 </trkpt>
 <trkpt lat="47.803600" lon="13.450586">
 <ele>489.63</ele>
 <time>2011-09-10T08:13:27Z</time>
 </trkpt>
 <trkpt lat="47.803974" lon="13.450567">
 <ele>489.65</ele>
 <time>2011-09-10T08:13:35Z</time>
 </trkpt>
 <trkpt lat="47.804073" lon="13.450562">
 <ele>489.67</ele>
 <time>2011-09-10T08:13:37Z</time>
 </trkpt>
 <trkpt lat="47.804279" lon="13.450552">
 <ele>489.91</ele>
 <time>2011-09-10T08:13:42Z</time>
 </trkpt>
 <trkpt lat="47.804329" lon="13.450789">
 <ele>490.23</ele>
 <time>2011-09-10T08:13:46Z</time>
 </trkpt>
 <trkpt lat="47.804340" lon="13.450915">
 <ele>490.37</ele>
 <time>2011-09-10T08:13:48Z</time>
 </trkpt>
 <trkpt lat="47.804390" lon="13.451161">
 <ele>490.48</ele>
 <time>2011-09-10T08:13:53Z</time>
 </trkpt>
 <trkpt lat="47.804375" lon="13.451710">
 <ele>489.30</ele>
 <time>2011-09-10T08:14:00Z</time>
 </trkpt>
 <trkpt lat="47.804165" lon="13.452497">
 <ele>487.08</ele>
 <time>2011-09-10T08:14:10Z</time>
 </trkpt>
 <trkpt lat="47.804020" lon="13.453125">
 <ele>486.56</ele>
 <time>2011-09-10T08:14:18Z</time>
 </trkpt>
 <trkpt lat="47.803875" lon="13.453803">
 <ele>487.01</ele>
 <time>2011-09-10T08:14:27Z</time>
 </trkpt>
 <trkpt lat="47.803761" lon="13.454449">
 <ele>487.21</ele>
 <time>2011-09-10T08:14:36Z</time>
 </trkpt>
 <trkpt lat="47.803658" lon="13.455033">
 <ele>488.06</ele>
 <time>2011-09-10T08:14:44Z</time>
 </trkpt>
 <trkpt lat="47.803562" lon="13.455767">
 <ele>488.40</ele>
 <time>2011-09-10T08:14:54Z</time>
 </trkpt>
 <trkpt lat="47.803516" lon="13.456529">
 <ele>488.63</ele>
 <time>2011-09-10T08:15:05Z</time>
 </trkpt>
 <trkpt lat="47.803555" lon="13.457245">
 <ele>489.72</ele>
 <time>2011-09-10T08:15:15Z</time>
 </trkpt>
 <trkpt lat="47.803604" lon="13.457863">
 <ele>489.60</ele>
 <time>2011-09-10T08:15:24Z</time>
 </trkpt>
 <trkpt lat="47.803677" lon="13.458521">
 <ele>489.86</ele>
 <time>2011-09-10T08:15:33Z</time>
 </trkpt>
 <trkpt lat="47.803764" lon="13.459478">
 <ele>490.35</ele>
 <time>2011-09-10T08:15:46Z</time>
 </trkpt>
 <trkpt lat="47.803860" lon="13.460215">
 <ele>490.52</ele>
 <time>2011-09-10T08:15:56Z</time>
 </trkpt>
 <trkpt lat="47.803898" lon="13.460507">
 <ele>489.95</ele>
 <time>2011-09-10T08:16:00Z</time>
 </trkpt>
 <trkpt lat="47.803963" lon="13.461170">
 <ele>490.14</ele>
 <time>2011-09-10T08:16:09Z</time>
 </trkpt>
 <trkpt lat="47.804001" lon="13.461684">
 <ele>490.08</ele>
 <time>2011-09-10T08:16:16Z</time>
 </trkpt>
 <trkpt lat="47.804012" lon="13.461826">
 <ele>489.99</ele>
 <time>2011-09-10T08:16:18Z</time>
 </trkpt>
 <trkpt lat="47.804047" lon="13.462277">
 <ele>489.58</ele>
 <time>2011-09-10T08:16:24Z</time>
 </trkpt>
 <trkpt lat="47.804077" lon="13.462874">
 <ele>490.01</ele>
 <time>2011-09-10T08:16:32Z</time>
 </trkpt>
 <trkpt lat="47.804100" lon="13.463397">
 <ele>489.78</ele>
 <time>2011-09-10T08:16:39Z</time>
 </trkpt>
 <trkpt lat="47.804104" lon="13.463529">
 <ele>489.85</ele>
 <time>2011-09-10T08:16:41Z</time>
 </trkpt>
 <trkpt lat="47.804123" lon="13.464057">
 <ele>489.71</ele>
 <time>2011-09-10T08:16:48Z</time>
 </trkpt>
 <trkpt lat="47.804150" lon="13.464761">
 <ele>488.58</ele>
 <time>2011-09-10T08:16:57Z</time>
 </trkpt>
 <trkpt lat="47.804203" lon="13.465447">
 <ele>489.27</ele>
 <time>2011-09-10T08:17:06Z</time>
 </trkpt>
 <trkpt lat="47.804256" lon="13.466149">
 <ele>489.65</ele>
 <time>2011-09-10T08:17:16Z</time>
 </trkpt>
 <trkpt lat="47.804283" lon="13.466491">
 <ele>489.78</ele>
 <time>2011-09-10T08:17:21Z</time>
 </trkpt>
 <trkpt lat="47.804302" lon="13.466708">
 <ele>489.89</ele>
 <time>2011-09-10T08:17:24Z</time>
 </trkpt>
 <trkpt lat="47.804337" lon="13.467185">
 <ele>490.06</ele>
 <time>2011-09-10T08:17:31Z</time>
 </trkpt>
 <trkpt lat="47.804382" lon="13.467755">
 <ele>491.71</ele>
 <time>2011-09-10T08:17:40Z</time>
 </trkpt>
 <trkpt lat="47.804405" lon="13.468065">
 <ele>492.98</ele>
 <time>2011-09-10T08:17:46Z</time>
 </trkpt>
 <trkpt lat="47.804413" lon="13.468293">
 <ele>493.66</ele>
 <time>2011-09-10T08:17:52Z</time>
 </trkpt>
 <trkpt lat="47.804165" lon="13.468392">
 <ele>493.67</ele>
 <time>2011-09-10T08:17:57Z</time>
 </trkpt>
 <trkpt lat="47.804081" lon="13.468551">
 <ele>493.81</ele>
 <time>2011-09-10T08:18:02Z</time>
 </trkpt>
 <trkpt lat="47.804081" lon="13.468551">
 <ele>493.91</ele>
 <time>2011-09-10T08:18:03Z</time>
 </trkpt>
 <trkpt lat="47.804054" lon="13.468636">
 <ele>494.84</ele>
 <time>2011-09-10T08:19:52Z</time>
 </trkpt>
 <trkpt lat="47.804035" lon="13.468721">
 <ele>494.56</ele>
 <time>2011-09-10T08:19:54Z</time>
 </trkpt>
 <trkpt lat="47.803959" lon="13.469134">
 <ele>493.40</ele>
 <time>2011-09-10T08:20:01Z</time>
 </trkpt>
 <trkpt lat="47.803860" lon="13.469617">
 <ele>492.64</ele>
 <time>2011-09-10T08:20:07Z</time>
 </trkpt>
 <trkpt lat="47.803661" lon="13.470034">
 <ele>490.37</ele>
 <time>2011-09-10T08:20:12Z</time>
 </trkpt>
 <trkpt lat="47.803394" lon="13.470595">
 <ele>486.93</ele>
 <time>2011-09-10T08:20:18Z</time>
 </trkpt>
 <trkpt lat="47.803215" lon="13.471132">
 <ele>484.44</ele>
 <time>2011-09-10T08:20:23Z</time>
 </trkpt>
 <trkpt lat="47.802975" lon="13.471928">
 <ele>483.77</ele>
 <time>2011-09-10T08:20:31Z</time>
 </trkpt>
 <trkpt lat="47.802814" lon="13.472526">
 <ele>483.14</ele>
 <time>2011-09-10T08:20:37Z</time>
 </trkpt>
 <trkpt lat="47.802635" lon="13.473194">
 <ele>482.04</ele>
 <time>2011-09-10T08:20:44Z</time>
 </trkpt>
 <trkpt lat="47.802456" lon="13.473934">
 <ele>481.40</ele>
 <time>2011-09-10T08:20:52Z</time>
 </trkpt>
 <trkpt lat="47.802402" lon="13.474120">
 <ele>481.29</ele>
 <time>2011-09-10T08:20:54Z</time>
 </trkpt>
 <trkpt lat="47.802288" lon="13.474665">
 <ele>480.69</ele>
 <time>2011-09-10T08:21:00Z</time>
 </trkpt>
 <trkpt lat="47.802288" lon="13.475201">
 <ele>481.26</ele>
 <time>2011-09-10T08:21:06Z</time>
 </trkpt>
 <trkpt lat="47.802357" lon="13.475771">
 <ele>482.02</ele>
 <time>2011-09-10T08:21:13Z</time>
 </trkpt>
 <trkpt lat="47.802380" lon="13.476223">
 <ele>482.45</ele>
 <time>2011-09-10T08:21:19Z</time>
 </trkpt>
 <trkpt lat="47.802299" lon="13.476810">
 <ele>481.56</ele>
 <time>2011-09-10T08:21:26Z</time>
 </trkpt>
 <trkpt lat="47.802177" lon="13.477545">
 <ele>480.02</ele>
 <time>2011-09-10T08:21:34Z</time>
 </trkpt>
 <trkpt lat="47.802101" lon="13.477958">
 <ele>479.69</ele>
 <time>2011-09-10T08:21:39Z</time>
 </trkpt>
 <trkpt lat="47.802086" lon="13.478036">
 <ele>479.74</ele>
 <time>2011-09-10T08:21:40Z</time>
 </trkpt>
 <trkpt lat="47.801926" lon="13.478788">
 <ele>479.92</ele>
 <time>2011-09-10T08:21:49Z</time>
 </trkpt>
 <trkpt lat="47.801907" lon="13.478869">
 <ele>479.86</ele>
 <time>2011-09-10T08:21:50Z</time>
 </trkpt>
 <trkpt lat="47.801823" lon="13.479434">
 <ele>479.28</ele>
 <time>2011-09-10T08:21:57Z</time>
 </trkpt>
 <trkpt lat="47.801823" lon="13.479614">
 <ele>479.07</ele>
 <time>2011-09-10T08:21:59Z</time>
 </trkpt>
 <trkpt lat="47.801907" lon="13.480024">
 <ele>478.76</ele>
 <time>2011-09-10T08:22:04Z</time>
 </trkpt>
 <trkpt lat="47.802170" lon="13.480760">
 <ele>479.50</ele>
 <time>2011-09-10T08:22:14Z</time>
 </trkpt>
 <trkpt lat="47.802200" lon="13.480826">
 <ele>479.80</ele>
 <time>2011-09-10T08:22:19Z</time>
 </trkpt>
 <trkpt lat="47.802353" lon="13.481147">
 <ele>480.27</ele>
 <time>2011-09-10T08:22:25Z</time>
 </trkpt>
 <trkpt lat="47.802353" lon="13.481147">
 <ele>480.89</ele>
 <time>2011-09-10T08:22:29Z</time>
 </trkpt>
 <trkpt lat="47.802494" lon="13.481433">
 <ele>480.87</ele>
 <time>2011-09-10T08:22:35Z</time>
 </trkpt>
 <trkpt lat="47.802570" lon="13.481559">
 <ele>480.83</ele>
 <time>2011-09-10T08:22:45Z</time>
 </trkpt>
 <trkpt lat="47.802586" lon="13.481577">
 <ele>480.73</ele>
 <time>2011-09-10T08:22:46Z</time>
 </trkpt>
 <trkpt lat="47.802586" lon="13.481577">
 <ele>481.29</ele>
 <time>2011-09-10T08:22:53Z</time>
 </trkpt>
 <trkpt lat="47.802979" lon="13.481850">
 <ele>481.93</ele>
 <time>2011-09-10T08:22:57Z</time>
 </trkpt>
 <trkpt lat="47.803204" lon="13.482261">
 <ele>482.62</ele>
 <time>2011-09-10T08:23:05Z</time>
 </trkpt>
 <trkpt lat="47.803459" lon="13.482734">
 <ele>484.49</ele>
 <time>2011-09-10T08:23:15Z</time>
 </trkpt>
 <trkpt lat="47.803654" lon="13.483071">
 <ele>486.82</ele>
 <time>2011-09-10T08:23:23Z</time>
 </trkpt>
 <trkpt lat="47.803898" lon="13.483353">
 <ele>487.35</ele>
 <time>2011-09-10T08:23:31Z</time>
 </trkpt>
 <trkpt lat="47.803940" lon="13.483388">
 <ele>487.24</ele>
 <time>2011-09-10T08:23:32Z</time>
 </trkpt>
 <trkpt lat="47.804173" lon="13.483727">
 <ele>486.86</ele>
 <time>2011-09-10T08:23:39Z</time>
 </trkpt>
 <trkpt lat="47.804230" lon="13.483869">
 <ele>487.05</ele>
 <time>2011-09-10T08:23:41Z</time>
 </trkpt>
 <trkpt lat="47.804306" lon="13.484469">
 <ele>485.65</ele>
 <time>2011-09-10T08:23:48Z</time>
 </trkpt>
 <trkpt lat="47.804325" lon="13.485139">
 <ele>483.18</ele>
 <time>2011-09-10T08:23:54Z</time>
 </trkpt>
 <trkpt lat="47.804302" lon="13.485361">
 <ele>482.06</ele>
 <time>2011-09-10T08:23:56Z</time>
 </trkpt>
 <trkpt lat="47.804256" lon="13.485995">
 <ele>480.45</ele>
 <time>2011-09-10T08:24:02Z</time>
 </trkpt>
 <trkpt lat="47.804237" lon="13.486176">
 <ele>480.55</ele>
 <time>2011-09-10T08:24:05Z</time>
 </trkpt>
 <trkpt lat="47.804237" lon="13.486562">
 <ele>479.74</ele>
 <time>2011-09-10T08:24:10Z</time>
 </trkpt>
 <trkpt lat="47.804249" lon="13.486708">
 <ele>479.25</ele>
 <time>2011-09-10T08:24:12Z</time>
 </trkpt>
 <trkpt lat="47.804306" lon="13.487256">
 <ele>478.69</ele>
 <time>2011-09-10T08:24:19Z</time>
 </trkpt>
 <trkpt lat="47.804321" lon="13.487481">
 <ele>478.61</ele>
 <time>2011-09-10T08:24:22Z</time>
 </trkpt>
 <trkpt lat="47.804337" lon="13.487763">
 <ele>478.53</ele>
 <time>2011-09-10T08:24:26Z</time>
 </trkpt>
 <trkpt lat="47.804352" lon="13.488139">
 <ele>478.36</ele>
 <time>2011-09-10T08:24:32Z</time>
 </trkpt>
 <trkpt lat="47.804379" lon="13.488387">
 <ele>478.40</ele>
 <time>2011-09-10T08:24:37Z</time>
 </trkpt>
 <trkpt lat="47.804390" lon="13.488551">
 <ele>478.26</ele>
 <time>2011-09-10T08:24:40Z</time>
 </trkpt>
 <trkpt lat="47.804417" lon="13.488930">
 <ele>477.85</ele>
 <time>2011-09-10T08:24:46Z</time>
 </trkpt>
 <trkpt lat="47.804424" lon="13.488990">
 <ele>477.83</ele>
 <time>2011-09-10T08:24:47Z</time>
 </trkpt>
 <trkpt lat="47.804379" lon="13.489115">
 <ele>478.27</ele>
 <time>2011-09-10T08:24:52Z</time>
 </trkpt>
 <trkpt lat="47.804256" lon="13.489281">
 <ele>478.00</ele>
 <time>2011-09-10T08:24:58Z</time>
 </trkpt>
 <trkpt lat="47.804123" lon="13.489473">
 <ele>477.93</ele>
 <time>2011-09-10T08:25:05Z</time>
 </trkpt>
 <trkpt lat="47.804089" lon="13.489533">
 <ele>477.80</ele>
 <time>2011-09-10T08:25:08Z</time>
 </trkpt>
 <trkpt lat="47.804062" lon="13.489575">
 <ele>478.03</ele>
 <time>2011-09-10T08:25:14Z</time>
 </trkpt>
 <trkpt lat="47.804050" lon="13.489596">
 <ele>478.21</ele>
 <time>2011-09-10T08:25:37Z</time>
 </trkpt>
 <trkpt lat="47.804062" lon="13.489577">
 <ele>478.26</ele>
 <time>2011-09-10T08:25:38Z</time>
 </trkpt>
 <trkpt lat="47.804157" lon="13.489419">
 <ele>478.22</ele>
 <time>2011-09-10T08:25:44Z</time>
 </trkpt>
 <trkpt lat="47.804283" lon="13.489242">
 <ele>478.72</ele>
 <time>2011-09-10T08:25:50Z</time>
 </trkpt>
 <trkpt lat="47.804348" lon="13.489157">
 <ele>478.98</ele>
 <time>2011-09-10T08:25:53Z</time>
 </trkpt>
 <trkpt lat="47.804424" lon="13.489052">
 <ele>479.06</ele>
 <time>2011-09-10T08:25:58Z</time>
 </trkpt>
 <trkpt lat="47.804565" lon="13.489212">
 <ele>478.69</ele>
 <time>2011-09-10T08:26:03Z</time>
 </trkpt>
 <trkpt lat="47.804642" lon="13.489338">
 <ele>478.55</ele>
 <time>2011-09-10T08:26:06Z</time>
 </trkpt>
 <trkpt lat="47.804840" lon="13.489665">
 <ele>478.00</ele>
 <time>2011-09-10T08:26:13Z</time>
 </trkpt>
 <trkpt lat="47.805046" lon="13.490005">
 <ele>477.60</ele>
 <time>2011-09-10T08:26:20Z</time>
 </trkpt>
 <trkpt lat="47.805115" lon="13.490083">
 <ele>477.84</ele>
 <time>2011-09-10T08:26:22Z</time>
 </trkpt>
 <trkpt lat="47.805199" lon="13.490251">
 <ele>478.21</ele>
 <time>2011-09-10T08:26:25Z</time>
 </trkpt>
 <trkpt lat="47.805389" lon="13.490681">
 <ele>479.22</ele>
 <time>2011-09-10T08:26:33Z</time>
 </trkpt>
 <trkpt lat="47.805435" lon="13.490784">
 <ele>479.49</ele>
 <time>2011-09-10T08:26:35Z</time>
 </trkpt>
 <trkpt lat="47.805592" lon="13.491057">
 <ele>479.89</ele>
 <time>2011-09-10T08:26:41Z</time>
 </trkpt>
 <trkpt lat="47.805622" lon="13.491101">
 <ele>479.85</ele>
 <time>2011-09-10T08:26:42Z</time>
 </trkpt>
 <trkpt lat="47.805824" lon="13.491440">
 <ele>479.68</ele>
 <time>2011-09-10T08:26:49Z</time>
 </trkpt>
 <trkpt lat="47.805851" lon="13.491497">
 <ele>479.66</ele>
 <time>2011-09-10T08:26:50Z</time>
 </trkpt>
 <trkpt lat="47.805977" lon="13.491767">
 <ele>478.93</ele>
 <time>2011-09-10T08:26:54Z</time>
 </trkpt>
 <trkpt lat="47.806171" lon="13.492049">
 <ele>477.73</ele>
 <time>2011-09-10T08:26:59Z</time>
 </trkpt>
 <trkpt lat="47.806446" lon="13.492243">
 <ele>477.84</ele>
 <time>2011-09-10T08:27:05Z</time>
 </trkpt>
 <trkpt lat="47.806610" lon="13.492360">
 <ele>478.20</ele>
 <time>2011-09-10T08:27:09Z</time>
 </trkpt>
 <trkpt lat="47.806911" lon="13.492677">
 <ele>477.96</ele>
 <time>2011-09-10T08:27:16Z</time>
 </trkpt>
 <trkpt lat="47.807156" lon="13.492964">
 <ele>477.57</ele>
 <time>2011-09-10T08:27:22Z</time>
 </trkpt>
 <trkpt lat="47.807388" lon="13.493555">
 <ele>478.07</ele>
 <time>2011-09-10T08:27:31Z</time>
 </trkpt>
 <trkpt lat="47.807590" lon="13.494067">
 <ele>478.12</ele>
 <time>2011-09-10T08:27:39Z</time>
 </trkpt>
 <trkpt lat="47.807644" lon="13.494200">
 <ele>478.05</ele>
 <time>2011-09-10T08:27:41Z</time>
 </trkpt>
 <trkpt lat="47.807816" lon="13.494583">
 <ele>477.73</ele>
 <time>2011-09-10T08:27:47Z</time>
 </trkpt>
 <trkpt lat="47.807991" lon="13.494862">
 <ele>477.73</ele>
 <time>2011-09-10T08:27:52Z</time>
 </trkpt>
 <trkpt lat="47.808258" lon="13.495282">
 <ele>477.43</ele>
 <time>2011-09-10T08:27:59Z</time>
 </trkpt>
 <trkpt lat="47.808475" lon="13.495711">
 <ele>477.74</ele>
 <time>2011-09-10T08:28:06Z</time>
 </trkpt>
 <trkpt lat="47.808624" lon="13.496222">
 <ele>477.99</ele>
 <time>2011-09-10T08:28:13Z</time>
 </trkpt>
 <trkpt lat="47.808704" lon="13.496500">
 <ele>477.83</ele>
 <time>2011-09-10T08:28:17Z</time>
 </trkpt>
 <trkpt lat="47.808796" lon="13.496832">
 <ele>477.81</ele>
 <time>2011-09-10T08:28:22Z</time>
 </trkpt>
 <trkpt lat="47.808952" lon="13.497190">
 <ele>478.65</ele>
 <time>2011-09-10T08:28:28Z</time>
 </trkpt>
 <trkpt lat="47.809010" lon="13.497285">
 <ele>479.27</ele>
 <time>2011-09-10T08:28:30Z</time>
 </trkpt>
 <trkpt lat="47.809063" lon="13.497375">
 <ele>479.80</ele>
 <time>2011-09-10T08:28:32Z</time>
 </trkpt>
 <trkpt lat="47.809120" lon="13.497483">
 <ele>480.23</ele>
 <time>2011-09-10T08:28:34Z</time>
 </trkpt>
 <trkpt lat="47.809208" lon="13.497716">
 <ele>480.83</ele>
 <time>2011-09-10T08:28:38Z</time>
 </trkpt>
 <trkpt lat="47.809349" lon="13.498085">
 <ele>481.44</ele>
 <time>2011-09-10T08:28:44Z</time>
 </trkpt>
 <trkpt lat="47.809574" lon="13.498676">
 <ele>480.72</ele>
 <time>2011-09-10T08:28:53Z</time>
 </trkpt>
 <trkpt lat="47.809803" lon="13.499283">
 <ele>480.05</ele>
 <time>2011-09-10T08:29:02Z</time>
 </trkpt>
 <trkpt lat="47.809994" lon="13.499782">
 <ele>479.03</ele>
 <time>2011-09-10T08:29:09Z</time>
 </trkpt>
 <trkpt lat="47.810207" lon="13.500350">
 <ele>478.28</ele>
 <time>2011-09-10T08:29:16Z</time>
 </trkpt>
 <trkpt lat="47.810402" lon="13.500912">
 <ele>478.33</ele>
 <time>2011-09-10T08:29:23Z</time>
 </trkpt>
 <trkpt lat="47.810566" lon="13.501603">
 <ele>477.27</ele>
 <time>2011-09-10T08:29:31Z</time>
 </trkpt>
 <trkpt lat="47.810596" lon="13.501764">
 <ele>477.17</ele>
 <time>2011-09-10T08:29:33Z</time>
 </trkpt>
 <trkpt lat="47.810745" lon="13.502179">
 <ele>477.86</ele>
 <time>2011-09-10T08:29:39Z</time>
 </trkpt>
 <trkpt lat="47.810780" lon="13.502241">
 <ele>477.86</ele>
 <time>2011-09-10T08:29:40Z</time>
 </trkpt>
 <trkpt lat="47.811131" lon="13.502680">
 <ele>478.17</ele>
 <time>2011-09-10T08:29:48Z</time>
 </trkpt>
 <trkpt lat="47.811459" lon="13.503184">
 <ele>477.58</ele>
 <time>2011-09-10T08:29:56Z</time>
 </trkpt>
 <trkpt lat="47.811749" lon="13.503716">
 <ele>477.09</ele>
 <time>2011-09-10T08:30:04Z</time>
 </trkpt>
 <trkpt lat="47.811954" lon="13.504333">
 <ele>477.29</ele>
 <time>2011-09-10T08:30:12Z</time>
 </trkpt>
 <trkpt lat="47.812042" lon="13.504639">
 <ele>477.81</ele>
 <time>2011-09-10T08:30:16Z</time>
 </trkpt>
 <trkpt lat="47.812267" lon="13.504998">
 <ele>477.71</ele>
 <time>2011-09-10T08:30:22Z</time>
 </trkpt>
 <trkpt lat="47.812668" lon="13.505430">
 <ele>477.71</ele>
 <time>2011-09-10T08:30:31Z</time>
 </trkpt>
 <trkpt lat="47.812973" lon="13.505630">
 <ele>477.67</ele>
 <time>2011-09-10T08:30:37Z</time>
 </trkpt>
 <trkpt lat="47.813469" lon="13.505879">
 <ele>478.04</ele>
 <time>2011-09-10T08:30:46Z</time>
 </trkpt>
 <trkpt lat="47.813908" lon="13.506099">
 <ele>478.94</ele>
 <time>2011-09-10T08:30:55Z</time>
 </trkpt>
 <trkpt lat="47.814171" lon="13.506197">
 <ele>480.80</ele>
 <time>2011-09-10T08:31:01Z</time>
 </trkpt>
 <trkpt lat="47.814335" lon="13.506227">
 <ele>482.20</ele>
 <time>2011-09-10T08:31:05Z</time>
 </trkpt>
 <trkpt lat="47.814545" lon="13.506222">
 <ele>482.82</ele>
 <time>2011-09-10T08:31:10Z</time>
 </trkpt>
 <trkpt lat="47.814590" lon="13.506242">
 <ele>482.76</ele>
 <time>2011-09-10T08:31:11Z</time>
 </trkpt>
 <trkpt lat="47.814945" lon="13.506559">
 <ele>481.42</ele>
 <time>2011-09-10T08:31:18Z</time>
 </trkpt>
 <trkpt lat="47.815338" lon="13.506969">
 <ele>479.46</ele>
 <time>2011-09-10T08:31:26Z</time>
 </trkpt>
 <trkpt lat="47.815685" lon="13.507222">
 <ele>478.72</ele>
 <time>2011-09-10T08:31:32Z</time>
 </trkpt>
 <trkpt lat="47.816093" lon="13.507419">
 <ele>478.74</ele>
 <time>2011-09-10T08:31:39Z</time>
 </trkpt>
 <trkpt lat="47.816578" lon="13.507543">
 <ele>478.93</ele>
 <time>2011-09-10T08:31:47Z</time>
 </trkpt>
 <trkpt lat="47.817070" lon="13.507605">
 <ele>478.52</ele>
 <time>2011-09-10T08:31:55Z</time>
 </trkpt>
 <trkpt lat="47.817551" lon="13.507747">
 <ele>478.67</ele>
 <time>2011-09-10T08:32:03Z</time>
 </trkpt>
 <trkpt lat="47.818024" lon="13.507889">
 <ele>478.97</ele>
 <time>2011-09-10T08:32:11Z</time>
 </trkpt>
 <trkpt lat="47.818428" lon="13.508010">
 <ele>479.27</ele>
 <time>2011-09-10T08:32:18Z</time>
 </trkpt>
 <trkpt lat="47.818798" lon="13.508173">
 <ele>480.28</ele>
 <time>2011-09-10T08:32:25Z</time>
 </trkpt>
 <trkpt lat="47.818985" lon="13.508261">
 <ele>480.83</ele>
 <time>2011-09-10T08:32:29Z</time>
 </trkpt>
 <trkpt lat="47.819199" lon="13.508410">
 <ele>481.39</ele>
 <time>2011-09-10T08:32:34Z</time>
 </trkpt>
 <trkpt lat="47.819538" lon="13.508608">
 <ele>481.89</ele>
 <time>2011-09-10T08:32:42Z</time>
 </trkpt>
 <trkpt lat="47.819633" lon="13.508626">
 <ele>481.98</ele>
 <time>2011-09-10T08:32:44Z</time>
 </trkpt>
 <trkpt lat="47.820015" lon="13.508697">
 <ele>481.29</ele>
 <time>2011-09-10T08:32:51Z</time>
 </trkpt>
 <trkpt lat="47.820370" lon="13.508763">
 <ele>479.32</ele>
 <time>2011-09-10T08:32:56Z</time>
 </trkpt>
 <trkpt lat="47.820568" lon="13.508852">
 <ele>478.68</ele>
 <time>2011-09-10T08:32:59Z</time>
 </trkpt>
 <trkpt lat="47.820698" lon="13.508911">
 <ele>478.88</ele>
 <time>2011-09-10T08:33:04Z</time>
 </trkpt>
 <trkpt lat="47.820698" lon="13.508911">
 <ele>479.16</ele>
 <time>2011-09-10T08:33:05Z</time>
 </trkpt>
 <trkpt lat="47.820732" lon="13.508928">
 <ele>479.75</ele>
 <time>2011-09-10T08:33:52Z</time>
 </trkpt>
 <trkpt lat="47.820747" lon="13.508934">
 <ele>479.76</ele>
 <time>2011-09-10T08:33:53Z</time>
 </trkpt>
 <trkpt lat="47.820881" lon="13.508996">
 <ele>479.42</ele>
 <time>2011-09-10T08:33:58Z</time>
 </trkpt>
 <trkpt lat="47.821129" lon="13.509110">
 <ele>479.06</ele>
 <time>2011-09-10T08:34:05Z</time>
 </trkpt>
 <trkpt lat="47.821365" lon="13.509300">
 <ele>479.38</ele>
 <time>2011-09-10T08:34:11Z</time>
 </trkpt>
 <trkpt lat="47.821667" lon="13.509683">
 <ele>479.64</ele>
 <time>2011-09-10T08:34:19Z</time>
 </trkpt>
 <trkpt lat="47.821823" lon="13.510103">
 <ele>479.25</ele>
 <time>2011-09-10T08:34:25Z</time>
 </trkpt>
 <trkpt lat="47.821903" lon="13.510191">
 <ele>479.28</ele>
 <time>2011-09-10T08:34:27Z</time>
 </trkpt>
 <trkpt lat="47.821987" lon="13.510283">
 <ele>479.51</ele>
 <time>2011-09-10T08:34:29Z</time>
 </trkpt>
 <trkpt lat="47.822128" lon="13.510392">
 <ele>479.64</ele>
 <time>2011-09-10T08:34:32Z</time>
 </trkpt>
 <trkpt lat="47.822411" lon="13.510445">
 <ele>478.99</ele>
 <time>2011-09-10T08:34:38Z</time>
 </trkpt>
 <trkpt lat="47.822884" lon="13.510533">
 <ele>479.07</ele>
 <time>2011-09-10T08:34:46Z</time>
 </trkpt>
 <trkpt lat="47.823254" lon="13.510664">
 <ele>479.48</ele>
 <time>2011-09-10T08:34:53Z</time>
 </trkpt>
 <trkpt lat="47.823612" lon="13.510879">
 <ele>479.75</ele>
 <time>2011-09-10T08:35:00Z</time>
 </trkpt>
 <trkpt lat="47.823929" lon="13.511251">
 <ele>479.33</ele>
 <time>2011-09-10T08:35:07Z</time>
 </trkpt>
 <trkpt lat="47.824024" lon="13.511381">
 <ele>479.73</ele>
 <time>2011-09-10T08:35:13Z</time>
 </trkpt>
 <trkpt lat="47.824276" lon="13.511868">
 <ele>479.96</ele>
 <time>2011-09-10T08:35:17Z</time>
 </trkpt>
 <trkpt lat="47.824451" lon="13.512069">
 <ele>480.28</ele>
 <time>2011-09-10T08:35:22Z</time>
 </trkpt>
 <trkpt lat="47.824818" lon="13.512376">
 <ele>480.23</ele>
 <time>2011-09-10T08:35:30Z</time>
 </trkpt>
 <trkpt lat="47.825108" lon="13.512710">
 <ele>479.89</ele>
 <time>2011-09-10T08:35:36Z</time>
 </trkpt>
 <trkpt lat="47.825356" lon="13.513199">
 <ele>479.12</ele>
 <time>2011-09-10T08:35:43Z</time>
 </trkpt>
 <trkpt lat="47.825733" lon="13.514023">
 <ele>479.88</ele>
 <time>2011-09-10T08:35:55Z</time>
 </trkpt>
 <trkpt lat="47.826069" lon="13.514759">
 <ele>479.61</ele>
 <time>2011-09-10T08:36:06Z</time>
 </trkpt>
 <trkpt lat="47.826443" lon="13.515578">
 <ele>479.71</ele>
 <time>2011-09-10T08:36:18Z</time>
 </trkpt>
 <trkpt lat="47.826733" lon="13.516004">
 <ele>479.54</ele>
 <time>2011-09-10T08:36:25Z</time>
 </trkpt>
 <trkpt lat="47.827038" lon="13.516398">
 <ele>479.87</ele>
 <time>2011-09-10T08:36:32Z</time>
 </trkpt>
 <trkpt lat="47.827377" lon="13.516794">
 <ele>479.05</ele>
 <time>2011-09-10T08:36:40Z</time>
 </trkpt>
 <trkpt lat="47.827427" lon="13.516827">
 <ele>479.15</ele>
 <time>2011-09-10T08:36:41Z</time>
 </trkpt>
 <trkpt lat="47.827621" lon="13.516962">
 <ele>479.51</ele>
 <time>2011-09-10T08:36:45Z</time>
 </trkpt>
 <trkpt lat="47.828037" lon="13.517149">
 <ele>479.60</ele>
 <time>2011-09-10T08:36:53Z</time>
 </trkpt>
 <trkpt lat="47.828426" lon="13.517298">
 <ele>480.05</ele>
 <time>2011-09-10T08:37:00Z</time>
 </trkpt>
 <trkpt lat="47.828850" lon="13.517461">
 <ele>479.64</ele>
 <time>2011-09-10T08:37:08Z</time>
 </trkpt>
 <trkpt lat="47.829002" lon="13.517518">
 <ele>479.48</ele>
 <time>2011-09-10T08:37:13Z</time>
 </trkpt>
 <trkpt lat="47.829433" lon="13.517796">
 <ele>479.30</ele>
 <time>2011-09-10T08:37:20Z</time>
 </trkpt>
 <trkpt lat="47.829769" lon="13.518307">
 <ele>478.45</ele>
 <time>2011-09-10T08:37:29Z</time>
 </trkpt>
 <trkpt lat="47.830090" lon="13.518818">
 <ele>479.24</ele>
 <time>2011-09-10T08:37:38Z</time>
 </trkpt>
 <trkpt lat="47.830200" lon="13.518988">
 <ele>479.43</ele>
 <time>2011-09-10T08:37:41Z</time>
 </trkpt>
 <trkpt lat="47.830425" lon="13.519154">
 <ele>479.39</ele>
 <time>2011-09-10T08:37:46Z</time>
 </trkpt>
 <trkpt lat="47.830799" lon="13.519275">
 <ele>479.62</ele>
 <time>2011-09-10T08:37:53Z</time>
 </trkpt>
 <trkpt lat="47.831181" lon="13.519347">
 <ele>479.60</ele>
 <time>2011-09-10T08:38:00Z</time>
 </trkpt>
 <trkpt lat="47.831577" lon="13.519466">
 <ele>479.23</ele>
 <time>2011-09-10T08:38:07Z</time>
 </trkpt>
 <trkpt lat="47.832104" lon="13.519895">
 <ele>479.25</ele>
 <time>2011-09-10T08:38:17Z</time>
 </trkpt>
 <trkpt lat="47.832401" lon="13.520204">
 <ele>479.73</ele>
 <time>2011-09-10T08:38:24Z</time>
 </trkpt>
 <trkpt lat="47.832554" lon="13.520400">
 <ele>480.47</ele>
 <time>2011-09-10T08:38:30Z</time>
 </trkpt>
 <trkpt lat="47.832649" lon="13.520610">
 <ele>480.27</ele>
 <time>2011-09-10T08:38:34Z</time>
 </trkpt>
 <trkpt lat="47.832859" lon="13.521072">
 <ele>479.47</ele>
 <time>2011-09-10T08:38:41Z</time>
 </trkpt>
 <trkpt lat="47.833179" lon="13.521951">
 <ele>479.40</ele>
 <time>2011-09-10T08:38:53Z</time>
 </trkpt>
 <trkpt lat="47.833382" lon="13.522441">
 <ele>479.61</ele>
 <time>2011-09-10T08:39:00Z</time>
 </trkpt>
 <trkpt lat="47.833691" lon="13.523026">
 <ele>479.62</ele>
 <time>2011-09-10T08:39:09Z</time>
 </trkpt>
 <trkpt lat="47.833851" lon="13.523256">
 <ele>479.44</ele>
 <time>2011-09-10T08:39:13Z</time>
 </trkpt>
 <trkpt lat="47.834137" lon="13.523799">
 <ele>479.48</ele>
 <time>2011-09-10T08:39:21Z</time>
 </trkpt>
 <trkpt lat="47.834362" lon="13.524369">
 <ele>479.35</ele>
 <time>2011-09-10T08:39:29Z</time>
 </trkpt>
 <trkpt lat="47.834473" lon="13.524651">
 <ele>479.64</ele>
 <time>2011-09-10T08:39:33Z</time>
 </trkpt>
 <trkpt lat="47.834667" lon="13.524857">
 <ele>480.02</ele>
 <time>2011-09-10T08:39:38Z</time>
 </trkpt>
 <trkpt lat="47.834667" lon="13.524857">
 <ele>480.13</ele>
 <time>2011-09-10T08:39:39Z</time>
 </trkpt>
 <trkpt lat="47.835159" lon="13.524834">
 <ele>480.68</ele>
 <time>2011-09-10T08:39:46Z</time>
 </trkpt>
 <trkpt lat="47.835506" lon="13.524819">
 <ele>480.47</ele>
 <time>2011-09-10T08:39:52Z</time>
 </trkpt>
 <trkpt lat="47.835873" lon="13.524736">
 <ele>480.94</ele>
 <time>2011-09-10T08:39:59Z</time>
 </trkpt>
 <trkpt lat="47.836292" lon="13.524611">
 <ele>480.94</ele>
 <time>2011-09-10T08:40:07Z</time>
 </trkpt>
 <trkpt lat="47.836735" lon="13.524481">
 <ele>481.09</ele>
 <time>2011-09-10T08:40:15Z</time>
 </trkpt>
 <trkpt lat="47.837280" lon="13.524319">
 <ele>481.27</ele>
 <time>2011-09-10T08:40:25Z</time>
 </trkpt>
 <trkpt lat="47.837666" lon="13.524099">
 <ele>481.38</ele>
 <time>2011-09-10T08:40:32Z</time>
 </trkpt>
 <trkpt lat="47.838192" lon="13.523753">
 <ele>480.23</ele>
 <time>2011-09-10T08:40:41Z</time>
 </trkpt>
 <trkpt lat="47.838631" lon="13.523407">
 <ele>480.31</ele>
 <time>2011-09-10T08:40:49Z</time>
 </trkpt>
 <trkpt lat="47.839020" lon="13.523096">
 <ele>480.86</ele>
 <time>2011-09-10T08:40:57Z</time>
 </trkpt>
 <trkpt lat="47.839428" lon="13.522773">
 <ele>482.54</ele>
 <time>2011-09-10T08:41:06Z</time>
 </trkpt>
 <trkpt lat="47.839924" lon="13.522379">
 <ele>484.05</ele>
 <time>2011-09-10T08:41:17Z</time>
 </trkpt>
 <trkpt lat="47.840397" lon="13.521999">
 <ele>484.61</ele>
 <time>2011-09-10T08:41:27Z</time>
 </trkpt>
 <trkpt lat="47.840797" lon="13.521675">
 <ele>482.94</ele>
 <time>2011-09-10T08:41:34Z</time>
 </trkpt>
 <trkpt lat="47.841312" lon="13.521247">
 <ele>480.30</ele>
 <time>2011-09-10T08:41:42Z</time>
 </trkpt>
 <trkpt lat="47.841827" lon="13.520809">
 <ele>479.19</ele>
 <time>2011-09-10T08:41:50Z</time>
 </trkpt>
 <trkpt lat="47.842155" lon="13.520597">
 <ele>479.12</ele>
 <time>2011-09-10T08:41:55Z</time>
 </trkpt>
 <trkpt lat="47.842491" lon="13.520513">
 <ele>479.24</ele>
 <time>2011-09-10T08:42:00Z</time>
 </trkpt>
 <trkpt lat="47.842957" lon="13.520552">
 <ele>479.61</ele>
 <time>2011-09-10T08:42:07Z</time>
 </trkpt>
 <trkpt lat="47.843323" lon="13.520723">
 <ele>479.62</ele>
 <time>2011-09-10T08:42:13Z</time>
 </trkpt>
 <trkpt lat="47.843498" lon="13.520810">
 <ele>479.83</ele>
 <time>2011-09-10T08:42:16Z</time>
 </trkpt>
 <trkpt lat="47.843903" lon="13.521318">
 <ele>481.01</ele>
 <time>2011-09-10T08:42:25Z</time>
 </trkpt>
 <trkpt lat="47.844353" lon="13.522010">
 <ele>481.45</ele>
 <time>2011-09-10T08:42:36Z</time>
 </trkpt>
 <trkpt lat="47.844391" lon="13.522072">
 <ele>481.50</ele>
 <time>2011-09-10T08:42:37Z</time>
 </trkpt>
 <trkpt lat="47.844570" lon="13.522422">
 <ele>481.42</ele>
 <time>2011-09-10T08:42:42Z</time>
 </trkpt>
 <trkpt lat="47.844635" lon="13.522559">
 <ele>481.50</ele>
 <time>2011-09-10T08:42:44Z</time>
 </trkpt>
 <trkpt lat="47.844841" lon="13.522993">
 <ele>481.17</ele>
 <time>2011-09-10T08:42:50Z</time>
 </trkpt>
 <trkpt lat="47.845062" lon="13.523562">
 <ele>480.24</ele>
 <time>2011-09-10T08:42:57Z</time>
 </trkpt>
 <trkpt lat="47.845226" lon="13.524045">
 <ele>480.32</ele>
 <time>2011-09-10T08:43:03Z</time>
 </trkpt>
 <trkpt lat="47.845482" lon="13.524872">
 <ele>479.54</ele>
 <time>2011-09-10T08:43:13Z</time>
 </trkpt>
 <trkpt lat="47.845684" lon="13.525314">
 <ele>479.38</ele>
 <time>2011-09-10T08:43:19Z</time>
 </trkpt>
 <trkpt lat="47.845993" lon="13.525586">
 <ele>480.09</ele>
 <time>2011-09-10T08:43:25Z</time>
 </trkpt>
 <trkpt lat="47.846382" lon="13.525830">
 <ele>480.23</ele>
 <time>2011-09-10T08:43:32Z</time>
 </trkpt>
 <trkpt lat="47.846909" lon="13.526120">
 <ele>479.68</ele>
 <time>2011-09-10T08:43:41Z</time>
 </trkpt>
 <trkpt lat="47.847313" lon="13.526218">
 <ele>480.79</ele>
 <time>2011-09-10T08:43:48Z</time>
 </trkpt>
 <trkpt lat="47.847492" lon="13.526254">
 <ele>481.31</ele>
 <time>2011-09-10T08:43:52Z</time>
 </trkpt>
 <trkpt lat="47.847862" lon="13.526275">
 <ele>482.74</ele>
 <time>2011-09-10T08:44:00Z</time>
 </trkpt>
 <trkpt lat="47.848114" lon="13.526289">
 <ele>483.86</ele>
 <time>2011-09-10T08:44:06Z</time>
 </trkpt>
 <trkpt lat="47.848434" lon="13.526308">
 <ele>484.50</ele>
 <time>2011-09-10T08:44:13Z</time>
 </trkpt>
 <trkpt lat="47.848682" lon="13.526322">
 <ele>484.96</ele>
 <time>2011-09-10T08:44:19Z</time>
 </trkpt>
 <trkpt lat="47.848999" lon="13.526340">
 <ele>486.42</ele>
 <time>2011-09-10T08:44:27Z</time>
 </trkpt>
 <trkpt lat="47.849304" lon="13.526358">
 <ele>488.02</ele>
 <time>2011-09-10T08:44:36Z</time>
 </trkpt>
 <trkpt lat="47.849632" lon="13.526462">
 <ele>490.66</ele>
 <time>2011-09-10T08:44:47Z</time>
 </trkpt>
 <trkpt lat="47.849934" lon="13.526562">
 <ele>492.67</ele>
 <time>2011-09-10T08:44:58Z</time>
 </trkpt>
 <trkpt lat="47.850155" lon="13.526636">
 <ele>494.68</ele>
 <time>2011-09-10T08:45:07Z</time>
 </trkpt>
 <trkpt lat="47.850376" lon="13.526711">
 <ele>496.79</ele>
 <time>2011-09-10T08:45:17Z</time>
 </trkpt>
 <trkpt lat="47.850502" lon="13.526735">
 <ele>497.89</ele>
 <time>2011-09-10T08:45:23Z</time>
 </trkpt>
 <trkpt lat="47.850616" lon="13.526751">
 <ele>498.98</ele>
 <time>2011-09-10T08:45:29Z</time>
 </trkpt>
 <trkpt lat="47.850754" lon="13.526770">
 <ele>499.87</ele>
 <time>2011-09-10T08:45:35Z</time>
 </trkpt>
 <trkpt lat="47.850883" lon="13.526788">
 <ele>500.95</ele>
 <time>2011-09-10T08:45:42Z</time>
 </trkpt>
 <trkpt lat="47.851101" lon="13.526796">
 <ele>502.36</ele>
 <time>2011-09-10T08:45:51Z</time>
 </trkpt>
 <trkpt lat="47.851311" lon="13.526753">
 <ele>503.74</ele>
 <time>2011-09-10T08:46:00Z</time>
 </trkpt>
 <trkpt lat="47.851521" lon="13.526711">
 <ele>504.66</ele>
 <time>2011-09-10T08:46:09Z</time>
 </trkpt>
 <trkpt lat="47.851753" lon="13.526663">
 <ele>506.15</ele>
 <time>2011-09-10T08:46:19Z</time>
 </trkpt>
 <trkpt lat="47.851967" lon="13.526606">
 <ele>506.90</ele>
 <time>2011-09-10T08:46:28Z</time>
 </trkpt>
 <trkpt lat="47.852158" lon="13.526540">
 <ele>507.50</ele>
 <time>2011-09-10T08:46:35Z</time>
 </trkpt>
 <trkpt lat="47.852402" lon="13.526455">
 <ele>508.06</ele>
 <time>2011-09-10T08:46:44Z</time>
 </trkpt>
 <trkpt lat="47.852692" lon="13.526354">
 <ele>508.24</ele>
 <time>2011-09-10T08:46:53Z</time>
 </trkpt>
 <trkpt lat="47.853065" lon="13.526223">
 <ele>507.95</ele>
 <time>2011-09-10T08:47:03Z</time>
 </trkpt>
 <trkpt lat="47.853199" lon="13.526178">
 <ele>507.92</ele>
 <time>2011-09-10T08:47:06Z</time>
 </trkpt>
 <trkpt lat="47.853428" lon="13.526098">
 <ele>506.97</ele>
 <time>2011-09-10T08:47:11Z</time>
 </trkpt>
 <trkpt lat="47.853783" lon="13.525976">
 <ele>505.58</ele>
 <time>2011-09-10T08:47:18Z</time>
 </trkpt>
 <trkpt lat="47.854233" lon="13.525863">
 <ele>503.20</ele>
 <time>2011-09-10T08:47:25Z</time>
 </trkpt>
 <trkpt lat="47.854546" lon="13.525804">
 <ele>501.36</ele>
 <time>2011-09-10T08:47:30Z</time>
 </trkpt>
 <trkpt lat="47.855011" lon="13.525779">
 <ele>499.58</ele>
 <time>2011-09-10T08:47:37Z</time>
 </trkpt>
 <trkpt lat="47.855656" lon="13.525779">
 <ele>496.95</ele>
 <time>2011-09-10T08:47:46Z</time>
 </trkpt>
 <trkpt lat="47.856136" lon="13.525779">
 <ele>493.87</ele>
 <time>2011-09-10T08:47:52Z</time>
 </trkpt>
 <trkpt lat="47.856644" lon="13.525705">
 <ele>491.36</ele>
 <time>2011-09-10T08:47:58Z</time>
 </trkpt>
 <trkpt lat="47.856956" lon="13.525618">
 <ele>490.67</ele>
 <time>2011-09-10T08:48:02Z</time>
 </trkpt>
 <trkpt lat="47.857353" lon="13.525489">
 <ele>491.47</ele>
 <time>2011-09-10T08:48:08Z</time>
 </trkpt>
 <trkpt lat="47.857586" lon="13.525413">
 <ele>492.77</ele>
 <time>2011-09-10T08:48:12Z</time>
 </trkpt>
 <trkpt lat="47.857697" lon="13.525361">
 <ele>493.32</ele>
 <time>2011-09-10T08:48:14Z</time>
 </trkpt>
 <trkpt lat="47.858219" lon="13.525115">
 <ele>493.25</ele>
 <time>2011-09-10T08:48:23Z</time>
 </trkpt>
 <trkpt lat="47.858582" lon="13.524905">
 <ele>491.58</ele>
 <time>2011-09-10T08:48:28Z</time>
 </trkpt>
 <trkpt lat="47.858742" lon="13.524809">
 <ele>490.26</ele>
 <time>2011-09-10T08:48:30Z</time>
 </trkpt>
 <trkpt lat="47.859200" lon="13.524583">
 <ele>488.47</ele>
 <time>2011-09-10T08:48:36Z</time>
 </trkpt>
 <trkpt lat="47.859657" lon="13.524503">
 <ele>488.83</ele>
 <time>2011-09-10T08:48:43Z</time>
 </trkpt>
 <trkpt lat="47.859985" lon="13.524474">
 <ele>489.33</ele>
 <time>2011-09-10T08:48:49Z</time>
 </trkpt>
 <trkpt lat="47.860115" lon="13.524462">
 <ele>490.08</ele>
 <time>2011-09-10T08:48:53Z</time>
 </trkpt>
 <trkpt lat="47.860126" lon="13.524461">
 <ele>491.05</ele>
 <time>2011-09-10T08:48:56Z</time>
 </trkpt>
 <trkpt lat="47.860126" lon="13.524461">
 <ele>491.39</ele>
 <time>2011-09-10T08:49:03Z</time>
 </trkpt>
 <trkpt lat="47.860126" lon="13.524461">
 <ele>491.37</ele>
 <time>2011-09-10T08:49:04Z</time>
 </trkpt>
 <trkpt lat="47.860126" lon="13.524461">
 <ele>490.46</ele>
 <time>2011-09-10T08:50:04Z</time>
 </trkpt>
 <trkpt lat="47.860126" lon="13.524461">
 <ele>490.54</ele>
 <time>2011-09-10T08:50:07Z</time>
 </trkpt>
 <trkpt lat="47.860126" lon="13.524461">
 <ele>490.61</ele>
 <time>2011-09-10T08:50:10Z</time>
 </trkpt>
 <trkpt lat="47.860214" lon="13.524453">
 <ele>490.55</ele>
 <time>2011-09-10T08:50:28Z</time>
 </trkpt>
 <trkpt lat="47.860363" lon="13.524412">
 <ele>489.95</ele>
 <time>2011-09-10T08:50:34Z</time>
 </trkpt>
 <trkpt lat="47.860649" lon="13.524305">
 <ele>489.24</ele>
 <time>2011-09-10T08:50:41Z</time>
 </trkpt>
 <trkpt lat="47.861012" lon="13.524170">
 <ele>488.53</ele>
 <time>2011-09-10T08:50:48Z</time>
 </trkpt>
 <trkpt lat="47.861565" lon="13.523963">
 <ele>488.02</ele>
 <time>2011-09-10T08:50:58Z</time>
 </trkpt>
 <trkpt lat="47.862190" lon="13.523730">
 <ele>486.55</ele>
 <time>2011-09-10T08:51:08Z</time>
 </trkpt>
 <trkpt lat="47.862766" lon="13.523490">
 <ele>485.03</ele>
 <time>2011-09-10T08:51:17Z</time>
 </trkpt>
 <trkpt lat="47.862949" lon="13.523404">
 <ele>484.74</ele>
 <time>2011-09-10T08:51:20Z</time>
 </trkpt>
 <trkpt lat="47.863117" lon="13.523297">
 <ele>484.87</ele>
 <time>2011-09-10T08:51:23Z</time>
 </trkpt>
 <trkpt lat="47.863438" lon="13.523094">
 <ele>485.24</ele>
 <time>2011-09-10T08:51:29Z</time>
 </trkpt>
 <trkpt lat="47.863838" lon="13.522772">
 <ele>484.00</ele>
 <time>2011-09-10T08:51:36Z</time>
 </trkpt>
 <trkpt lat="47.864170" lon="13.522452">
 <ele>482.80</ele>
 <time>2011-09-10T08:51:42Z</time>
 </trkpt>
 <trkpt lat="47.864597" lon="13.522250">
 <ele>482.61</ele>
 <time>2011-09-10T08:51:49Z</time>
 </trkpt>
 <trkpt lat="47.865143" lon="13.522063">
 <ele>480.71</ele>
 <time>2011-09-10T08:51:57Z</time>
 </trkpt>
 <trkpt lat="47.865669" lon="13.521826">
 <ele>480.45</ele>
 <time>2011-09-10T08:52:05Z</time>
 </trkpt>
 <trkpt lat="47.866020" lon="13.521625">
 <ele>480.57</ele>
 <time>2011-09-10T08:52:11Z</time>
 </trkpt>
 <trkpt lat="47.866249" lon="13.521556">
 <ele>480.86</ele>
 <time>2011-09-10T08:52:16Z</time>
 </trkpt>
 <trkpt lat="47.866531" lon="13.521509">
 <ele>481.70</ele>
 <time>2011-09-10T08:52:24Z</time>
 </trkpt>
 <trkpt lat="47.866882" lon="13.521419">
 <ele>483.90</ele>
 <time>2011-09-10T08:52:32Z</time>
 </trkpt>
 <trkpt lat="47.867149" lon="13.521340">
 <ele>486.09</ele>
 <time>2011-09-10T08:52:41Z</time>
 </trkpt>
 <trkpt lat="47.867348" lon="13.521240">
 <ele>488.37</ele>
 <time>2011-09-10T08:52:49Z</time>
 </trkpt>
 <trkpt lat="47.867493" lon="13.521144">
 <ele>490.70</ele>
 <time>2011-09-10T08:52:56Z</time>
 </trkpt>
 <trkpt lat="47.867649" lon="13.520972">
 <ele>492.99</ele>
 <time>2011-09-10T08:53:05Z</time>
 </trkpt>
 <trkpt lat="47.867764" lon="13.520845">
 <ele>495.08</ele>
 <time>2011-09-10T08:53:12Z</time>
 </trkpt>
 <trkpt lat="47.867874" lon="13.520722">
 <ele>496.75</ele>
 <time>2011-09-10T08:53:19Z</time>
 </trkpt>
 <trkpt lat="47.867970" lon="13.520471">
 <ele>498.61</ele>
 <time>2011-09-10T08:53:29Z</time>
 </trkpt>
 <trkpt lat="47.868042" lon="13.520262">
 <ele>499.54</ele>
 <time>2011-09-10T08:53:37Z</time>
 </trkpt>
 <trkpt lat="47.868053" lon="13.520222">
 <ele>500.38</ele>
 <time>2011-09-10T08:53:42Z</time>
 </trkpt>
 <trkpt lat="47.868053" lon="13.520222">
 <ele>501.01</ele>
 <time>2011-09-10T08:53:48Z</time>
 </trkpt>
 <trkpt lat="47.868221" lon="13.520015">
 <ele>501.59</ele>
 <time>2011-09-10T08:53:51Z</time>
 </trkpt>
 <trkpt lat="47.868427" lon="13.520013">
 <ele>503.16</ele>
 <time>2011-09-10T08:54:00Z</time>
 </trkpt>
 <trkpt lat="47.868633" lon="13.520019">
 <ele>503.40</ele>
 <time>2011-09-10T08:54:07Z</time>
 </trkpt>
 <trkpt lat="47.868870" lon="13.520025">
 <ele>503.19</ele>
 <time>2011-09-10T08:54:14Z</time>
 </trkpt>
 <trkpt lat="47.868999" lon="13.520029">
 <ele>503.41</ele>
 <time>2011-09-10T08:54:20Z</time>
 </trkpt>
 <trkpt lat="47.869324" lon="13.520275">
 <ele>505.05</ele>
 <time>2011-09-10T08:54:30Z</time>
 </trkpt>
 <trkpt lat="47.869549" lon="13.520437">
 <ele>505.46</ele>
 <time>2011-09-10T08:54:38Z</time>
 </trkpt>
 <trkpt lat="47.869797" lon="13.520442">
 <ele>506.11</ele>
 <time>2011-09-10T08:54:46Z</time>
 </trkpt>
 <trkpt lat="47.870110" lon="13.520448">
 <ele>507.97</ele>
 <time>2011-09-10T08:54:57Z</time>
 </trkpt>
 <trkpt lat="47.870434" lon="13.520455">
 <ele>509.47</ele>
 <time>2011-09-10T08:55:08Z</time>
 </trkpt>
 <trkpt lat="47.870708" lon="13.520439">
 <ele>510.35</ele>
 <time>2011-09-10T08:55:17Z</time>
 </trkpt>
 <trkpt lat="47.870918" lon="13.520406">
 <ele>511.58</ele>
 <time>2011-09-10T08:55:25Z</time>
 </trkpt>
 <trkpt lat="47.871162" lon="13.520450">
 <ele>512.50</ele>
 <time>2011-09-10T08:55:33Z</time>
 </trkpt>
 <trkpt lat="47.871372" lon="13.520527">
 <ele>512.53</ele>
 <time>2011-09-10T08:55:39Z</time>
 </trkpt>
 <trkpt lat="47.871643" lon="13.520632">
 <ele>511.69</ele>
 <time>2011-09-10T08:55:45Z</time>
 </trkpt>
 <trkpt lat="47.871925" lon="13.520742">
 <ele>510.48</ele>
 <time>2011-09-10T08:55:50Z</time>
 </trkpt>
 <trkpt lat="47.872131" lon="13.520772">
 <ele>509.39</ele>
 <time>2011-09-10T08:55:54Z</time>
 </trkpt>
 <trkpt lat="47.872528" lon="13.520744">
 <ele>509.20</ele>
 <time>2011-09-10T08:56:01Z</time>
 </trkpt>
 <trkpt lat="47.872921" lon="13.520930">
 <ele>509.26</ele>
 <time>2011-09-10T08:56:08Z</time>
 </trkpt>
 <trkpt lat="47.873138" lon="13.520930">
 <ele>509.04</ele>
 <time>2011-09-10T08:56:12Z</time>
 </trkpt>
 <trkpt lat="47.873314" lon="13.520844">
 <ele>508.29</ele>
 <time>2011-09-10T08:56:16Z</time>
 </trkpt>
 <trkpt lat="47.873695" lon="13.520668">
 <ele>507.90</ele>
 <time>2011-09-10T08:56:21Z</time>
 </trkpt>
 <trkpt lat="47.873741" lon="13.520688">
 <ele>508.01</ele>
 <time>2011-09-10T08:56:22Z</time>
 </trkpt>
 <trkpt lat="47.873989" lon="13.520796">
 <ele>508.49</ele>
 <time>2011-09-10T08:56:28Z</time>
 </trkpt>
 <trkpt lat="47.874043" lon="13.520819">
 <ele>508.67</ele>
 <time>2011-09-10T08:56:29Z</time>
 </trkpt>
 <trkpt lat="47.874359" lon="13.520956">
 <ele>510.63</ele>
 <time>2011-09-10T08:56:36Z</time>
 </trkpt>
 <trkpt lat="47.874569" lon="13.521048">
 <ele>511.41</ele>
 <time>2011-09-10T08:56:41Z</time>
 </trkpt>
 <trkpt lat="47.874908" lon="13.521145">
 <ele>512.19</ele>
 <time>2011-09-10T08:56:48Z</time>
 </trkpt>
 <trkpt lat="47.875263" lon="13.521238">
 <ele>512.34</ele>
 <time>2011-09-10T08:56:56Z</time>
 </trkpt>
 <trkpt lat="47.875622" lon="13.521557">
 <ele>511.30</ele>
 <time>2011-09-10T08:57:03Z</time>
 </trkpt>
 <trkpt lat="47.876202" lon="13.521925">
 <ele>509.95</ele>
 <time>2011-09-10T08:57:13Z</time>
 </trkpt>
 <trkpt lat="47.876652" lon="13.522179">
 <ele>510.52</ele>
 <time>2011-09-10T08:57:21Z</time>
 </trkpt>
 <trkpt lat="47.877209" lon="13.522433">
 <ele>510.45</ele>
 <time>2011-09-10T08:57:31Z</time>
 </trkpt>
 <trkpt lat="47.877720" lon="13.522637">
 <ele>509.72</ele>
 <time>2011-09-10T08:57:40Z</time>
 </trkpt>
 <trkpt lat="47.878361" lon="13.522802">
 <ele>508.94</ele>
 <time>2011-09-10T08:57:51Z</time>
 </trkpt>
 <trkpt lat="47.878716" lon="13.522873">
 <ele>508.37</ele>
 <time>2011-09-10T08:57:57Z</time>
 </trkpt>
 <trkpt lat="47.879173" lon="13.523063">
 <ele>507.24</ele>
 <time>2011-09-10T08:58:04Z</time>
 </trkpt>
 <trkpt lat="47.879448" lon="13.523251">
 <ele>506.89</ele>
 <time>2011-09-10T08:58:09Z</time>
 </trkpt>
 <trkpt lat="47.879482" lon="13.523275">
 <ele>506.87</ele>
 <time>2011-09-10T08:58:10Z</time>
 </trkpt>
 <trkpt lat="47.879768" lon="13.523535">
 <ele>505.29</ele>
 <time>2011-09-10T08:58:17Z</time>
 </trkpt>
 <trkpt lat="47.879944" lon="13.523719">
 <ele>504.70</ele>
 <time>2011-09-10T08:58:22Z</time>
 </trkpt>
 <trkpt lat="47.879944" lon="13.523719">
 <ele>504.53</ele>
 <time>2011-09-10T08:58:25Z</time>
 </trkpt>
 <trkpt lat="47.879944" lon="13.523719">
 <ele>504.05</ele>
 <time>2011-09-10T08:58:29Z</time>
 </trkpt>
 <trkpt lat="47.880333" lon="13.523490">
 <ele>504.31</ele>
 <time>2011-09-10T08:58:35Z</time>
 </trkpt>
 <trkpt lat="47.880547" lon="13.523365">
 <ele>505.02</ele>
 <time>2011-09-10T08:58:41Z</time>
 </trkpt>
 <trkpt lat="47.880810" lon="13.523211">
 <ele>506.06</ele>
 <time>2011-09-10T08:58:48Z</time>
 </trkpt>
 <trkpt lat="47.881096" lon="13.523070">
 <ele>506.86</ele>
 <time>2011-09-10T08:58:55Z</time>
 </trkpt>
 <trkpt lat="47.881401" lon="13.522973">
 <ele>507.96</ele>
 <time>2011-09-10T08:59:02Z</time>
 </trkpt>
 <trkpt lat="47.881676" lon="13.522892">
 <ele>509.01</ele>
 <time>2011-09-10T08:59:09Z</time>
 </trkpt>
 <trkpt lat="47.881954" lon="13.522837">
 <ele>509.87</ele>
 <time>2011-09-10T08:59:17Z</time>
 </trkpt>
 <trkpt lat="47.882202" lon="13.522830">
 <ele>511.23</ele>
 <time>2011-09-10T08:59:25Z</time>
 </trkpt>
 <trkpt lat="47.882343" lon="13.522840">
 <ele>512.33</ele>
 <time>2011-09-10T08:59:32Z</time>
 </trkpt>
 <trkpt lat="47.882343" lon="13.522840">
 <ele>513.00</ele>
 <time>2011-09-10T08:59:36Z</time>
 </trkpt>
 <trkpt lat="47.882343" lon="13.522840">
 <ele>513.16</ele>
 <time>2011-09-10T08:59:37Z</time>
 </trkpt>
 <trkpt lat="47.882561" lon="13.522947">
 <ele>513.67</ele>
 <time>2011-09-10T08:59:44Z</time>
 </trkpt>
 <trkpt lat="47.882561" lon="13.522947">
 <ele>514.02</ele>
 <time>2011-09-10T08:59:48Z</time>
 </trkpt>
 <trkpt lat="47.882652" lon="13.522577">
 <ele>514.94</ele>
 <time>2011-09-10T08:59:53Z</time>
 </trkpt>
 <trkpt lat="47.882748" lon="13.522445">
 <ele>515.64</ele>
 <time>2011-09-10T08:59:58Z</time>
 </trkpt>
 <trkpt lat="47.882774" lon="13.522411">
 <ele>515.95</ele>
 <time>2011-09-10T09:00:01Z</time>
 </trkpt>
 <trkpt lat="47.882774" lon="13.522411">
 <ele>517.36</ele>
 <time>2011-09-10T09:00:08Z</time>
 </trkpt>
 <trkpt lat="47.882988" lon="13.522389">
 <ele>517.65</ele>
 <time>2011-09-10T09:00:11Z</time>
 </trkpt>
 <trkpt lat="47.883076" lon="13.522414">
 <ele>517.35</ele>
 <time>2011-09-10T09:00:15Z</time>
 </trkpt>
 <trkpt lat="47.883106" lon="13.522419">
 <ele>517.25</ele>
 <time>2011-09-10T09:00:16Z</time>
 </trkpt>
 <trkpt lat="47.883286" lon="13.522432">
 <ele>517.17</ele>
 <time>2011-09-10T09:00:22Z</time>
 </trkpt>
 <trkpt lat="47.883472" lon="13.522349">
 <ele>517.70</ele>
 <time>2011-09-10T09:00:28Z</time>
 </trkpt>
 <trkpt lat="47.883629" lon="13.522329">
 <ele>518.41</ele>
 <time>2011-09-10T09:00:33Z</time>
 </trkpt>
 <trkpt lat="47.883816" lon="13.522338">
 <ele>519.17</ele>
 <time>2011-09-10T09:00:39Z</time>
 </trkpt>
 <trkpt lat="47.883999" lon="13.522346">
 <ele>520.14</ele>
 <time>2011-09-10T09:00:45Z</time>
 </trkpt>
 <trkpt lat="47.884293" lon="13.522308">
 <ele>520.85</ele>
 <time>2011-09-10T09:00:53Z</time>
 </trkpt>
 <trkpt lat="47.884541" lon="13.522314">
 <ele>521.36</ele>
 <time>2011-09-10T09:01:00Z</time>
 </trkpt>
 <trkpt lat="47.884583" lon="13.522315">
 <ele>521.36</ele>
 <time>2011-09-10T09:01:01Z</time>
 </trkpt>
 <trkpt lat="47.885010" lon="13.522329">
 <ele>520.92</ele>
 <time>2011-09-10T09:01:11Z</time>
 </trkpt>
 <trkpt lat="47.885361" lon="13.522382">
 <ele>520.06</ele>
 <time>2011-09-10T09:01:18Z</time>
 </trkpt>
 <trkpt lat="47.885822" lon="13.522453">
 <ele>518.91</ele>
 <time>2011-09-10T09:01:27Z</time>
 </trkpt>
 <trkpt lat="47.885822" lon="13.522453">
 <ele>518.55</ele>
 <time>2011-09-10T09:01:32Z</time>
 </trkpt>
 <trkpt lat="47.886551" lon="13.522368">
 <ele>517.82</ele>
 <time>2011-09-10T09:01:39Z</time>
 </trkpt>
 <trkpt lat="47.886677" lon="13.522278">
 <ele>517.15</ele>
 <time>2011-09-10T09:01:43Z</time>
 </trkpt>
 <trkpt lat="47.887012" lon="13.522017">
 <ele>514.46</ele>
 <time>2011-09-10T09:01:51Z</time>
 </trkpt>
 <trkpt lat="47.887142" lon="13.521909">
 <ele>514.04</ele>
 <time>2011-09-10T09:01:54Z</time>
 </trkpt>
 <trkpt lat="47.887512" lon="13.521619">
 <ele>513.12</ele>
 <time>2011-09-10T09:02:02Z</time>
 </trkpt>
 <trkpt lat="47.888412" lon="13.522921">
 <ele>513.84</ele>
 <time>2011-09-10T09:02:09Z</time>
 </trkpt>
 <trkpt lat="47.888733" lon="13.522921">
 <ele>515.48</ele>
 <time>2011-09-10T09:02:16Z</time>
 </trkpt>
 <trkpt lat="47.889114" lon="13.523032">
 <ele>516.55</ele>
 <time>2011-09-10T09:02:25Z</time>
 </trkpt>
 <trkpt lat="47.889355" lon="13.523137">
 <ele>517.63</ele>
 <time>2011-09-10T09:02:31Z</time>
 </trkpt>
 <trkpt lat="47.889484" lon="13.523336">
 <ele>518.22</ele>
 <time>2011-09-10T09:02:36Z</time>
 </trkpt>
 <trkpt lat="47.889500" lon="13.523374">
 <ele>517.72</ele>
 <time>2011-09-10T09:02:39Z</time>
 </trkpt>
 <trkpt lat="47.889503" lon="13.523372">
 <ele>517.63</ele>
 <time>2011-09-10T09:02:40Z</time>
 </trkpt>
 <trkpt lat="47.889511" lon="13.523345">
 <ele>517.32</ele>
 <time>2011-09-10T09:02:45Z</time>
 </trkpt>
 <trkpt lat="47.889515" lon="13.523376">
 <ele>517.23</ele>
 <time>2011-09-10T09:03:36Z</time>
 </trkpt>
 <trkpt lat="47.889538" lon="13.523427">
 <ele>516.85</ele>
 <time>2011-09-10T09:03:40Z</time>
 </trkpt>
 <trkpt lat="47.889488" lon="13.524550">
 <ele>516.12</ele>
 <time>2011-09-10T09:03:43Z</time>
 </trkpt>
 <trkpt lat="47.889690" lon="13.524565">
 <ele>514.35</ele>
 <time>2011-09-10T09:03:47Z</time>
 </trkpt>
 <trkpt lat="47.889748" lon="13.524568">
 <ele>513.97</ele>
 <time>2011-09-10T09:03:48Z</time>
 </trkpt>
 <trkpt lat="47.890072" lon="13.524587">
 <ele>513.86</ele>
 <time>2011-09-10T09:03:55Z</time>
 </trkpt>
 <trkpt lat="47.890438" lon="13.524608">
 <ele>515.61</ele>
 <time>2011-09-10T09:04:04Z</time>
 </trkpt>
 <trkpt lat="47.890690" lon="13.524627">
 <ele>516.97</ele>
 <time>2011-09-10T09:04:11Z</time>
 </trkpt>
 <trkpt lat="47.890907" lon="13.524705">
 <ele>517.25</ele>
 <time>2011-09-10T09:04:17Z</time>
 </trkpt>
 <trkpt lat="47.891071" lon="13.524805">
 <ele>516.26</ele>
 <time>2011-09-10T09:04:23Z</time>
 </trkpt>
 <trkpt lat="47.891327" lon="13.524999">
 <ele>514.08</ele>
 <time>2011-09-10T09:04:29Z</time>
 </trkpt>
 <trkpt lat="47.891994" lon="13.523575">
 <ele>512.74</ele>
 <time>2011-09-10T09:04:33Z</time>
 </trkpt>
 <trkpt lat="47.892059" lon="13.523585">
 <ele>512.43</ele>
 <time>2011-09-10T09:04:35Z</time>
 </trkpt>
 <trkpt lat="47.892178" lon="13.523374">
 <ele>512.44</ele>
 <time>2011-09-10T09:04:41Z</time>
 </trkpt>
 <trkpt lat="47.892200" lon="13.523318">
 <ele>512.30</ele>
 <time>2011-09-10T09:04:42Z</time>
 </trkpt>
 <trkpt lat="47.892277" lon="13.523075">
 <ele>512.02</ele>
 <time>2011-09-10T09:04:46Z</time>
 </trkpt>
 <trkpt lat="47.892395" lon="13.522585">
 <ele>511.10</ele>
 <time>2011-09-10T09:04:53Z</time>
 </trkpt>
 <trkpt lat="47.892410" lon="13.522437">
 <ele>510.75</ele>
 <time>2011-09-10T09:04:55Z</time>
 </trkpt>
 <trkpt lat="47.892384" lon="13.521870">
 <ele>509.52</ele>
 <time>2011-09-10T09:05:02Z</time>
 </trkpt>
 <trkpt lat="47.892365" lon="13.521597">
 <ele>509.00</ele>
 <time>2011-09-10T09:05:06Z</time>
 </trkpt>
 <trkpt lat="47.892410" lon="13.521372">
 <ele>508.55</ele>
 <time>2011-09-10T09:05:11Z</time>
 </trkpt>
 <trkpt lat="47.892559" lon="13.521192">
 <ele>507.55</ele>
 <time>2011-09-10T09:05:16Z</time>
 </trkpt>
 <trkpt lat="47.892635" lon="13.521112">
 <ele>507.16</ele>
 <time>2011-09-10T09:05:18Z</time>
 </trkpt>
 <trkpt lat="47.893379" lon="13.520863">
 <ele>506.61</ele>
 <time>2011-09-10T09:05:22Z</time>
 </trkpt>
 <trkpt lat="47.892845" lon="13.520901">
 <ele>506.54</ele>
 <time>2011-09-10T09:05:24Z</time>
 </trkpt>
 <trkpt lat="47.893204" lon="13.520822">
 <ele>506.71</ele>
 <time>2011-09-10T09:05:32Z</time>
 </trkpt>
 <trkpt lat="47.893230" lon="13.520831">
 <ele>506.81</ele>
 <time>2011-09-10T09:05:33Z</time>
 </trkpt>
 <trkpt lat="47.893387" lon="13.520944">
 <ele>506.99</ele>
 <time>2011-09-10T09:05:38Z</time>
 </trkpt>
 <trkpt lat="47.893391" lon="13.520999">
 <ele>506.99</ele>
 <time>2011-09-10T09:05:39Z</time>
 </trkpt>
 <trkpt lat="47.893436" lon="13.521362">
 <ele>506.83</ele>
 <time>2011-09-10T09:05:45Z</time>
 </trkpt>
 <trkpt lat="47.893448" lon="13.521421">
 <ele>506.93</ele>
 <time>2011-09-10T09:05:46Z</time>
 </trkpt>
 <trkpt lat="47.893524" lon="13.521592">
 <ele>507.41</ele>
 <time>2011-09-10T09:05:49Z</time>
 </trkpt>
 <trkpt lat="47.893726" lon="13.521861">
 <ele>509.08</ele>
 <time>2011-09-10T09:05:57Z</time>
 </trkpt>
 <trkpt lat="47.893982" lon="13.522199">
 <ele>510.30</ele>
 <time>2011-09-10T09:06:08Z</time>
 </trkpt>
 <trkpt lat="47.894222" lon="13.522481">
 <ele>511.65</ele>
 <time>2011-09-10T09:06:18Z</time>
 </trkpt>
 <trkpt lat="47.894508" lon="13.522827">
 <ele>513.53</ele>
 <time>2011-09-10T09:06:30Z</time>
 </trkpt>
 <trkpt lat="47.894657" lon="13.523071">
 <ele>515.24</ele>
 <time>2011-09-10T09:06:38Z</time>
 </trkpt>
 <trkpt lat="47.894791" lon="13.523287">
 <ele>517.16</ele>
 <time>2011-09-10T09:06:46Z</time>
 </trkpt>
 <trkpt lat="47.894958" lon="13.523521">
 <ele>518.67</ele>
 <time>2011-09-10T09:06:56Z</time>
 </trkpt>
 <trkpt lat="47.895153" lon="13.523684">
 <ele>520.23</ele>
 <time>2011-09-10T09:07:06Z</time>
 </trkpt>
 <trkpt lat="47.895309" lon="13.523832">
 <ele>521.52</ele>
 <time>2011-09-10T09:07:14Z</time>
 </trkpt>
 <trkpt lat="47.895405" lon="13.523927">
 <ele>522.04</ele>
 <time>2011-09-10T09:07:19Z</time>
 </trkpt>
 <trkpt lat="47.895515" lon="13.524036">
 <ele>522.48</ele>
 <time>2011-09-10T09:07:25Z</time>
 </trkpt>
 <trkpt lat="47.895622" lon="13.524058">
 <ele>522.77</ele>
 <time>2011-09-10T09:07:30Z</time>
 </trkpt>
 <trkpt lat="47.895649" lon="13.524063">
 <ele>522.93</ele>
 <time>2011-09-10T09:07:33Z</time>
 </trkpt>
 <trkpt lat="47.895649" lon="13.524063">
 <ele>522.40</ele>
 <time>2011-09-10T09:07:39Z</time>
 </trkpt>
 <trkpt lat="47.895962" lon="13.523757">
 <ele>521.09</ele>
 <time>2011-09-10T09:07:44Z</time>
 </trkpt>
 <trkpt lat="47.896172" lon="13.523367">
 <ele>518.27</ele>
 <time>2011-09-10T09:07:49Z</time>
 </trkpt>
 <trkpt lat="47.896584" lon="13.522619">
 <ele>514.38</ele>
 <time>2011-09-10T09:07:57Z</time>
 </trkpt>
 <trkpt lat="47.896805" lon="13.522129">
 <ele>513.29</ele>
 <time>2011-09-10T09:08:02Z</time>
 </trkpt>
 <trkpt lat="47.897068" lon="13.521310">
 <ele>512.44</ele>
 <time>2011-09-10T09:08:10Z</time>
 </trkpt>
 <trkpt lat="47.897297" lon="13.520454">
 <ele>511.02</ele>
 <time>2011-09-10T09:08:18Z</time>
 </trkpt>
 <trkpt lat="47.897530" lon="13.520008">
 <ele>510.41</ele>
 <time>2011-09-10T09:08:23Z</time>
 </trkpt>
 <trkpt lat="47.897587" lon="13.519938">
 <ele>510.34</ele>
 <time>2011-09-10T09:08:24Z</time>
 </trkpt>
 <trkpt lat="47.897926" lon="13.519759">
 <ele>510.73</ele>
 <time>2011-09-10T09:08:29Z</time>
 </trkpt>
 <trkpt lat="47.898586" lon="13.519595">
 <ele>510.98</ele>
 <time>2011-09-10T09:08:39Z</time>
 </trkpt>
 <trkpt lat="47.898952" lon="13.519504">
 <ele>511.80</ele>
 <time>2011-09-10T09:08:46Z</time>
 </trkpt>
 <trkpt lat="47.899014" lon="13.519490">
 <ele>512.20</ele>
 <time>2011-09-10T09:08:48Z</time>
 </trkpt>
 <trkpt lat="47.898994" lon="13.519779">
 <ele>512.65</ele>
 <time>2011-09-10T09:08:53Z</time>
 </trkpt>
 <trkpt lat="47.899044" lon="13.519837">
 <ele>512.61</ele>
 <time>2011-09-10T09:08:56Z</time>
 </trkpt>
 <trkpt lat="47.899189" lon="13.520111">
 <ele>511.90</ele>
 <time>2011-09-10T09:09:02Z</time>
 </trkpt>
 <trkpt lat="47.899342" lon="13.520399">
 <ele>511.60</ele>
 <time>2011-09-10T09:09:07Z</time>
 </trkpt>
 <trkpt lat="47.899513" lon="13.520752">
 <ele>511.76</ele>
 <time>2011-09-10T09:09:13Z</time>
 </trkpt>
 <trkpt lat="47.899666" lon="13.521334">
 <ele>511.72</ele>
 <time>2011-09-10T09:09:21Z</time>
 </trkpt>
 <trkpt lat="47.899853" lon="13.521851">
 <ele>511.20</ele>
 <time>2011-09-10T09:09:28Z</time>
 </trkpt>
 <trkpt lat="47.900066" lon="13.522390">
 <ele>510.25</ele>
 <time>2011-09-10T09:09:35Z</time>
 </trkpt>
 <trkpt lat="47.900372" lon="13.522941">
 <ele>508.36</ele>
 <time>2011-09-10T09:09:42Z</time>
 </trkpt>
 <trkpt lat="47.900753" lon="13.523683">
 <ele>506.22</ele>
 <time>2011-09-10T09:09:50Z</time>
 </trkpt>
 <trkpt lat="47.901119" lon="13.524223">
 <ele>503.64</ele>
 <time>2011-09-10T09:09:56Z</time>
 </trkpt>
 <trkpt lat="47.901493" lon="13.524653">
 <ele>500.43</ele>
 <time>2011-09-10T09:10:01Z</time>
 </trkpt>
 <trkpt lat="47.901592" lon="13.524764">
 <ele>500.04</ele>
 <time>2011-09-10T09:10:03Z</time>
 </trkpt>
 <trkpt lat="47.901657" lon="13.524814">
 <ele>500.61</ele>
 <time>2011-09-10T09:10:07Z</time>
 </trkpt>
 <trkpt lat="47.901657" lon="13.524814">
 <ele>500.87</ele>
 <time>2011-09-10T09:10:11Z</time>
 </trkpt>
 <trkpt lat="47.902138" lon="13.525297">
 <ele>498.78</ele>
 <time>2011-09-10T09:10:18Z</time>
 </trkpt>
 <trkpt lat="47.902435" lon="13.525628">
 <ele>497.59</ele>
 <time>2011-09-10T09:10:23Z</time>
 </trkpt>
 <trkpt lat="47.902691" lon="13.526046">
 <ele>496.41</ele>
 <time>2011-09-10T09:10:28Z</time>
 </trkpt>
 <trkpt lat="47.902786" lon="13.526229">
 <ele>495.65</ele>
 <time>2011-09-10T09:10:30Z</time>
 </trkpt>
 <trkpt lat="47.903034" lon="13.526692">
 <ele>493.86</ele>
 <time>2011-09-10T09:10:35Z</time>
 </trkpt>
 <trkpt lat="47.903538" lon="13.527156">
 <ele>491.39</ele>
 <time>2011-09-10T09:10:42Z</time>
 </trkpt>
 <trkpt lat="47.904030" lon="13.527492">
 <ele>488.47</ele>
 <time>2011-09-10T09:10:48Z</time>
 </trkpt>
 <trkpt lat="47.904461" lon="13.527576">
 <ele>486.73</ele>
 <time>2011-09-10T09:10:53Z</time>
 </trkpt>
 <trkpt lat="47.905083" lon="13.527594">
 <ele>484.71</ele>
 <time>2011-09-10T09:11:00Z</time>
 </trkpt>
 <trkpt lat="47.905819" lon="13.527564">
 <ele>482.31</ele>
 <time>2011-09-10T09:11:08Z</time>
 </trkpt>
 <trkpt lat="47.906513" lon="13.527538">
 <ele>480.83</ele>
 <time>2011-09-10T09:11:16Z</time>
 </trkpt>
 <trkpt lat="47.907082" lon="13.527542">
 <ele>480.99</ele>
 <time>2011-09-10T09:11:23Z</time>
 </trkpt>
 <trkpt lat="47.907608" lon="13.527618">
 <ele>480.94</ele>
 <time>2011-09-10T09:11:30Z</time>
 </trkpt>
 <trkpt lat="47.908283" lon="13.527717">
 <ele>481.39</ele>
 <time>2011-09-10T09:11:40Z</time>
 </trkpt>
 <trkpt lat="47.908924" lon="13.527811">
 <ele>482.54</ele>
 <time>2011-09-10T09:11:50Z</time>
 </trkpt>
 <trkpt lat="47.909302" lon="13.527914">
 <ele>483.24</ele>
 <time>2011-09-10T09:11:56Z</time>
 </trkpt>
 <trkpt lat="47.909813" lon="13.528132">
 <ele>484.98</ele>
 <time>2011-09-10T09:12:05Z</time>
 </trkpt>
 <trkpt lat="47.910088" lon="13.528249">
 <ele>485.88</ele>
 <time>2011-09-10T09:12:10Z</time>
 </trkpt>
 <trkpt lat="47.910183" lon="13.528337">
 <ele>486.12</ele>
 <time>2011-09-10T09:12:12Z</time>
 </trkpt>
 <trkpt lat="47.910458" lon="13.528641">
 <ele>486.48</ele>
 <time>2011-09-10T09:12:18Z</time>
 </trkpt>
 <trkpt lat="47.910690" lon="13.529215">
 <ele>486.46</ele>
 <time>2011-09-10T09:12:25Z</time>
 </trkpt>
 <trkpt lat="47.911064" lon="13.529654">
 <ele>486.57</ele>
 <time>2011-09-10T09:12:33Z</time>
 </trkpt>
 <trkpt lat="47.911350" lon="13.529990">
 <ele>486.52</ele>
 <time>2011-09-10T09:12:39Z</time>
 </trkpt>
 <trkpt lat="47.911724" lon="13.530394">
 <ele>486.28</ele>
 <time>2011-09-10T09:12:46Z</time>
 </trkpt>
 <trkpt lat="47.911957" lon="13.530623">
 <ele>485.16</ele>
 <time>2011-09-10T09:12:50Z</time>
 </trkpt>
 <trkpt lat="47.912327" lon="13.530985">
 <ele>483.95</ele>
 <time>2011-09-10T09:12:56Z</time>
 </trkpt>
 <trkpt lat="47.912647" lon="13.531303">
 <ele>484.58</ele>
 <time>2011-09-10T09:13:02Z</time>
 </trkpt>
 <trkpt lat="47.912971" lon="13.531692">
 <ele>487.09</ele>
 <time>2011-09-10T09:13:10Z</time>
 </trkpt>
 <trkpt lat="47.913349" lon="13.532232">
 <ele>488.60</ele>
 <time>2011-09-10T09:13:21Z</time>
 </trkpt>
 <trkpt lat="47.913540" lon="13.532625">
 <ele>489.33</ele>
 <time>2011-09-10T09:13:28Z</time>
 </trkpt>
 <trkpt lat="47.913582" lon="13.532838">
 <ele>489.37</ele>
 <time>2011-09-10T09:13:31Z</time>
 </trkpt>
 <trkpt lat="47.913731" lon="13.533536">
 <ele>488.97</ele>
 <time>2011-09-10T09:13:40Z</time>
 </trkpt>
 <trkpt lat="47.913872" lon="13.534207">
 <ele>488.36</ele>
 <time>2011-09-10T09:13:48Z</time>
 </trkpt>
 <trkpt lat="47.914017" lon="13.534663">
 <ele>487.49</ele>
 <time>2011-09-10T09:13:55Z</time>
 </trkpt>
 <trkpt lat="47.914017" lon="13.534663">
 <ele>487.17</ele>
 <time>2011-09-10T09:13:56Z</time>
 </trkpt>
 <trkpt lat="47.914165" lon="13.535278">
 <ele>485.99</ele>
 <time>2011-09-10T09:14:00Z</time>
 </trkpt>
 <trkpt lat="47.914154" lon="13.535380">
 <ele>485.65</ele>
 <time>2011-09-10T09:14:01Z</time>
 </trkpt>
 <trkpt lat="47.914108" lon="13.535877">
 <ele>484.75</ele>
 <time>2011-09-10T09:14:06Z</time>
 </trkpt>
 <trkpt lat="47.914227" lon="13.536741">
 <ele>484.06</ele>
 <time>2011-09-10T09:14:15Z</time>
 </trkpt>
 <trkpt lat="47.914307" lon="13.537355">
 <ele>482.88</ele>
 <time>2011-09-10T09:14:21Z</time>
 </trkpt>
 <trkpt lat="47.914455" lon="13.538030">
 <ele>482.22</ele>
 <time>2011-09-10T09:14:28Z</time>
 </trkpt>
 <trkpt lat="47.914642" lon="13.538540">
 <ele>481.96</ele>
 <time>2011-09-10T09:14:34Z</time>
 </trkpt>
 <trkpt lat="47.914795" lon="13.538856">
 <ele>481.91</ele>
 <time>2011-09-10T09:14:38Z</time>
 </trkpt>
 <trkpt lat="47.915024" lon="13.539101">
 <ele>482.51</ele>
 <time>2011-09-10T09:14:43Z</time>
 </trkpt>
 <trkpt lat="47.915173" lon="13.539229">
 <ele>482.87</ele>
 <time>2011-09-10T09:14:46Z</time>
 </trkpt>
 <trkpt lat="47.915436" lon="13.539491">
 <ele>482.57</ele>
 <time>2011-09-10T09:14:51Z</time>
 </trkpt>
 <trkpt lat="47.915546" lon="13.539624">
 <ele>482.19</ele>
 <time>2011-09-10T09:14:53Z</time>
 </trkpt>
 <trkpt lat="47.915745" lon="13.540076">
 <ele>481.87</ele>
 <time>2011-09-10T09:14:58Z</time>
 </trkpt>
 <trkpt lat="47.915890" lon="13.540419">
 <ele>482.04</ele>
 <time>2011-09-10T09:15:02Z</time>
 </trkpt>
 <trkpt lat="47.916039" lon="13.540770">
 <ele>481.77</ele>
 <time>2011-09-10T09:15:06Z</time>
 </trkpt>
 <trkpt lat="47.916164" lon="13.541027">
 <ele>481.49</ele>
 <time>2011-09-10T09:15:09Z</time>
 </trkpt>
 <trkpt lat="47.916454" lon="13.541132">
 <ele>481.34</ele>
 <time>2011-09-10T09:15:14Z</time>
 </trkpt>
 <trkpt lat="47.916988" lon="13.541045">
 <ele>482.36</ele>
 <time>2011-09-10T09:15:23Z</time>
 </trkpt>
 <trkpt lat="47.917347" lon="13.540962">
 <ele>482.23</ele>
 <time>2011-09-10T09:15:29Z</time>
 </trkpt>
 <trkpt lat="47.917706" lon="13.541013">
 <ele>481.62</ele>
 <time>2011-09-10T09:15:35Z</time>
 </trkpt>
 <trkpt lat="47.917770" lon="13.541038">
 <ele>481.58</ele>
 <time>2011-09-10T09:15:36Z</time>
 </trkpt>
 <trkpt lat="47.918308" lon="13.541252">
 <ele>481.18</ele>
 <time>2011-09-10T09:15:45Z</time>
 </trkpt>
 <trkpt lat="47.918793" lon="13.541519">
 <ele>482.18</ele>
 <time>2011-09-10T09:15:54Z</time>
 </trkpt>
 <trkpt lat="47.919243" lon="13.541904">
 <ele>482.15</ele>
 <time>2011-09-10T09:16:03Z</time>
 </trkpt>
 <trkpt lat="47.919292" lon="13.541949">
 <ele>482.14</ele>
 <time>2011-09-10T09:16:04Z</time>
 </trkpt>
 <trkpt lat="47.919529" lon="13.542306">
 <ele>482.14</ele>
 <time>2011-09-10T09:16:10Z</time>
 </trkpt>
 <trkpt lat="47.919853" lon="13.542922">
 <ele>482.14</ele>
 <time>2011-09-10T09:16:19Z</time>
 </trkpt>
 <trkpt lat="47.920158" lon="13.543458">
 <ele>481.97</ele>
 <time>2011-09-10T09:16:27Z</time>
 </trkpt>
 <trkpt lat="47.920460" lon="13.543876">
 <ele>482.30</ele>
 <time>2011-09-10T09:16:34Z</time>
 </trkpt>
 <trkpt lat="47.920765" lon="13.544302">
 <ele>481.88</ele>
 <time>2011-09-10T09:16:41Z</time>
 </trkpt>
 <trkpt lat="47.921249" lon="13.544794">
 <ele>481.95</ele>
 <time>2011-09-10T09:16:51Z</time>
 </trkpt>
 <trkpt lat="47.921394" lon="13.544938">
 <ele>482.05</ele>
 <time>2011-09-10T09:16:54Z</time>
 </trkpt>
 <trkpt lat="47.921768" lon="13.545056">
 <ele>482.20</ele>
 <time>2011-09-10T09:17:01Z</time>
 </trkpt>
 <trkpt lat="47.922169" lon="13.545123">
 <ele>481.80</ele>
 <time>2011-09-10T09:17:08Z</time>
 </trkpt>
 <trkpt lat="47.922497" lon="13.545179">
 <ele>482.19</ele>
 <time>2011-09-10T09:17:14Z</time>
 </trkpt>
 <trkpt lat="47.922550" lon="13.545206">
 <ele>482.22</ele>
 <time>2011-09-10T09:17:15Z</time>
 </trkpt>
 <trkpt lat="47.923031" lon="13.545438">
 <ele>482.27</ele>
 <time>2011-09-10T09:17:24Z</time>
 </trkpt>
 <trkpt lat="47.923405" lon="13.545500">
 <ele>482.38</ele>
 <time>2011-09-10T09:17:31Z</time>
 </trkpt>
 <trkpt lat="47.923702" lon="13.545422">
 <ele>482.74</ele>
 <time>2011-09-10T09:17:37Z</time>
 </trkpt>
 <trkpt lat="47.924171" lon="13.545061">
 <ele>483.20</ele>
 <time>2011-09-10T09:17:47Z</time>
 </trkpt>
 <trkpt lat="47.924667" lon="13.544680">
 <ele>483.25</ele>
 <time>2011-09-10T09:17:57Z</time>
 </trkpt>
 <trkpt lat="47.925068" lon="13.544348">
 <ele>482.80</ele>
 <time>2011-09-10T09:18:05Z</time>
 </trkpt>
 <trkpt lat="47.925407" lon="13.544027">
 <ele>482.66</ele>
 <time>2011-09-10T09:18:12Z</time>
 </trkpt>
 <trkpt lat="47.925755" lon="13.543705">
 <ele>482.36</ele>
 <time>2011-09-10T09:18:19Z</time>
 </trkpt>
 <trkpt lat="47.925961" lon="13.543582">
 <ele>482.89</ele>
 <time>2011-09-10T09:18:23Z</time>
 </trkpt>
 <trkpt lat="47.926376" lon="13.543334">
 <ele>483.27</ele>
 <time>2011-09-10T09:18:31Z</time>
 </trkpt>
 <trkpt lat="47.926758" lon="13.543110">
 <ele>482.83</ele>
 <time>2011-09-10T09:18:38Z</time>
 </trkpt>
 <trkpt lat="47.926926" lon="13.543028">
 <ele>482.95</ele>
 <time>2011-09-10T09:18:42Z</time>
 </trkpt>
 <trkpt lat="47.927029" lon="13.542979">
 <ele>483.93</ele>
 <time>2011-09-10T09:18:48Z</time>
 </trkpt>
 <trkpt lat="47.927158" lon="13.542916">
 <ele>483.83</ele>
 <time>2011-09-10T09:18:54Z</time>
 </trkpt>
 <trkpt lat="47.927303" lon="13.542846">
 <ele>483.58</ele>
 <time>2011-09-10T09:18:58Z</time>
 </trkpt>
 <trkpt lat="47.927582" lon="13.542711">
 <ele>483.14</ele>
 <time>2011-09-10T09:19:04Z</time>
 </trkpt>
 <trkpt lat="47.927784" lon="13.542614">
 <ele>483.03</ele>
 <time>2011-09-10T09:19:08Z</time>
 </trkpt>
 <trkpt lat="47.928257" lon="13.542385">
 <ele>482.56</ele>
 <time>2011-09-10T09:19:17Z</time>
 </trkpt>
 <trkpt lat="47.928715" lon="13.542191">
 <ele>482.07</ele>
 <time>2011-09-10T09:19:25Z</time>
 </trkpt>
 <trkpt lat="47.929127" lon="13.542092">
 <ele>481.95</ele>
 <time>2011-09-10T09:19:32Z</time>
 </trkpt>
 <trkpt lat="47.929707" lon="13.541954">
 <ele>482.15</ele>
 <time>2011-09-10T09:19:42Z</time>
 </trkpt>
 <trkpt lat="47.930218" lon="13.541832">
 <ele>484.17</ele>
 <time>2011-09-10T09:19:52Z</time>
 </trkpt>
 <trkpt lat="47.930489" lon="13.541768">
 <ele>486.06</ele>
 <time>2011-09-10T09:19:58Z</time>
 </trkpt>
 <trkpt lat="47.930840" lon="13.541685">
 <ele>487.03</ele>
 <time>2011-09-10T09:20:05Z</time>
 </trkpt>
 <trkpt lat="47.931160" lon="13.541740">
 <ele>486.91</ele>
 <time>2011-09-10T09:20:11Z</time>
 </trkpt>
 <trkpt lat="47.931637" lon="13.541835">
 <ele>485.52</ele>
 <time>2011-09-10T09:20:19Z</time>
 </trkpt>
 <trkpt lat="47.932037" lon="13.541915">
 <ele>484.04</ele>
 <time>2011-09-10T09:20:25Z</time>
 </trkpt>
 <trkpt lat="47.932549" lon="13.542017">
 <ele>483.46</ele>
 <time>2011-09-10T09:20:33Z</time>
 </trkpt>
 <trkpt lat="47.932907" lon="13.542082">
 <ele>483.59</ele>
 <time>2011-09-10T09:20:39Z</time>
 </trkpt>
 <trkpt lat="47.933250" lon="13.541897">
 <ele>483.29</ele>
 <time>2011-09-10T09:20:45Z</time>
 </trkpt>
 <trkpt lat="47.933674" lon="13.541670">
 <ele>482.76</ele>
 <time>2011-09-10T09:20:52Z</time>
 </trkpt>
 <trkpt lat="47.934101" lon="13.541626">
 <ele>483.05</ele>
 <time>2011-09-10T09:20:59Z</time>
 </trkpt>
 <trkpt lat="47.934479" lon="13.541615">
 <ele>483.15</ele>
 <time>2011-09-10T09:21:05Z</time>
 </trkpt>
 <trkpt lat="47.934799" lon="13.541909">
 <ele>482.67</ele>
 <time>2011-09-10T09:21:10Z</time>
 </trkpt>
 <trkpt lat="47.934860" lon="13.541965">
 <ele>482.50</ele>
 <time>2011-09-10T09:21:11Z</time>
 </trkpt>
 <trkpt lat="47.935253" lon="13.542592">
 <ele>482.14</ele>
 <time>2011-09-10T09:21:19Z</time>
 </trkpt>
 <trkpt lat="47.935478" lon="13.543576">
 <ele>481.67</ele>
 <time>2011-09-10T09:21:29Z</time>
 </trkpt>
 <trkpt lat="47.935673" lon="13.544401">
 <ele>481.74</ele>
 <time>2011-09-10T09:21:38Z</time>
 </trkpt>
 <trkpt lat="47.935787" lon="13.544901">
 <ele>482.07</ele>
 <time>2011-09-10T09:21:44Z</time>
 </trkpt>
 <trkpt lat="47.935822" lon="13.545033">
 <ele>482.65</ele>
 <time>2011-09-10T09:21:46Z</time>
 </trkpt>
 <trkpt lat="47.935974" lon="13.545344">
 <ele>484.15</ele>
 <time>2011-09-10T09:21:53Z</time>
 </trkpt>
 <trkpt lat="47.936138" lon="13.545666">
 <ele>485.96</ele>
 <time>2011-09-10T09:22:02Z</time>
 </trkpt>
 <trkpt lat="47.936275" lon="13.545940">
 <ele>488.13</ele>
 <time>2011-09-10T09:22:10Z</time>
 </trkpt>
 <trkpt lat="47.936310" lon="13.546014">
 <ele>491.06</ele>
 <time>2011-09-10T09:22:18Z</time>
 </trkpt>
 <trkpt lat="47.936375" lon="13.546342">
 <ele>492.97</ele>
 <time>2011-09-10T09:22:24Z</time>
 </trkpt>
 <trkpt lat="47.936390" lon="13.546606">
 <ele>495.44</ele>
 <time>2011-09-10T09:22:32Z</time>
 </trkpt>
 <trkpt lat="47.936363" lon="13.546867">
 <ele>497.59</ele>
 <time>2011-09-10T09:22:40Z</time>
 </trkpt>
 <trkpt lat="47.936260" lon="13.547157">
 <ele>498.93</ele>
 <time>2011-09-10T09:22:49Z</time>
 </trkpt>
 <trkpt lat="47.936180" lon="13.547399">
 <ele>499.10</ele>
 <time>2011-09-10T09:22:56Z</time>
 </trkpt>
 <trkpt lat="47.936077" lon="13.547781">
 <ele>499.07</ele>
 <time>2011-09-10T09:23:04Z</time>
 </trkpt>
 <trkpt lat="47.936039" lon="13.548092">
 <ele>498.73</ele>
 <time>2011-09-10T09:23:10Z</time>
 </trkpt>
 <trkpt lat="47.936047" lon="13.548149">
 <ele>498.69</ele>
 <time>2011-09-10T09:23:11Z</time>
 </trkpt>
 <trkpt lat="47.936108" lon="13.548671">
 <ele>498.95</ele>
 <time>2011-09-10T09:23:20Z</time>
 </trkpt>
 <trkpt lat="47.936199" lon="13.549187">
 <ele>499.90</ele>
 <time>2011-09-10T09:23:29Z</time>
 </trkpt>
 <trkpt lat="47.936291" lon="13.549723">
 <ele>499.82</ele>
 <time>2011-09-10T09:23:37Z</time>
 </trkpt>
 <trkpt lat="47.936382" lon="13.550243">
 <ele>498.77</ele>
 <time>2011-09-10T09:23:43Z</time>
 </trkpt>
 <trkpt lat="47.936447" lon="13.550788">
 <ele>496.83</ele>
 <time>2011-09-10T09:23:48Z</time>
 </trkpt>
 <trkpt lat="47.936481" lon="13.551146">
 <ele>495.70</ele>
 <time>2011-09-10T09:23:51Z</time>
 </trkpt>
 <trkpt lat="47.936474" lon="13.551767">
 <ele>493.90</ele>
 <time>2011-09-10T09:23:56Z</time>
 </trkpt>
 <trkpt lat="47.936440" lon="13.552530">
 <ele>492.40</ele>
 <time>2011-09-10T09:24:02Z</time>
 </trkpt>
 <trkpt lat="47.936359" lon="13.553368">
 <ele>491.67</ele>
 <time>2011-09-10T09:24:09Z</time>
 </trkpt>
 <trkpt lat="47.936218" lon="13.554322">
 <ele>489.93</ele>
 <time>2011-09-10T09:24:17Z</time>
 </trkpt>
 <trkpt lat="47.936089" lon="13.555228">
 <ele>487.36</ele>
 <time>2011-09-10T09:24:24Z</time>
 </trkpt>
 <trkpt lat="47.936031" lon="13.555988">
 <ele>486.39</ele>
 <time>2011-09-10T09:24:30Z</time>
 </trkpt>
 <trkpt lat="47.936062" lon="13.556459">
 <ele>486.43</ele>
 <time>2011-09-10T09:24:34Z</time>
 </trkpt>
 <trkpt lat="47.936256" lon="13.557260">
 <ele>485.39</ele>
 <time>2011-09-10T09:24:41Z</time>
 </trkpt>
 <trkpt lat="47.936508" lon="13.557946">
 <ele>483.90</ele>
 <time>2011-09-10T09:24:47Z</time>
 </trkpt>
 <trkpt lat="47.936821" lon="13.558856">
 <ele>482.82</ele>
 <time>2011-09-10T09:24:55Z</time>
 </trkpt>
 <trkpt lat="47.937092" lon="13.559658">
 <ele>483.66</ele>
 <time>2011-09-10T09:25:03Z</time>
 </trkpt>
 <trkpt lat="47.937263" lon="13.560050">
 <ele>484.10</ele>
 <time>2011-09-10T09:25:08Z</time>
 </trkpt>
 <trkpt lat="47.937599" lon="13.560374">
 <ele>486.07</ele>
 <time>2011-09-10T09:25:15Z</time>
 </trkpt>
 <trkpt lat="47.938000" lon="13.560753">
 <ele>488.52</ele>
 <time>2011-09-10T09:25:24Z</time>
 </trkpt>
 <trkpt lat="47.938156" lon="13.560922">
 <ele>490.04</ele>
 <time>2011-09-10T09:25:28Z</time>
 </trkpt>
 <trkpt lat="47.938263" lon="13.561115">
 <ele>491.74</ele>
 <time>2011-09-10T09:25:32Z</time>
 </trkpt>
 <trkpt lat="47.938263" lon="13.561120">
 <ele>492.70</ele>
 <time>2011-09-10T09:25:36Z</time>
 </trkpt>
 <trkpt lat="47.938499" lon="13.561574">
 <ele>493.06</ele>
 <time>2011-09-10T09:25:40Z</time>
 </trkpt>
 <trkpt lat="47.938671" lon="13.561922">
 <ele>494.17</ele>
 <time>2011-09-10T09:25:46Z</time>
 </trkpt>
 <trkpt lat="47.938931" lon="13.562505">
 <ele>494.91</ele>
 <time>2011-09-10T09:25:56Z</time>
 </trkpt>
 <trkpt lat="47.939159" lon="13.563060">
 <ele>494.82</ele>
 <time>2011-09-10T09:26:05Z</time>
 </trkpt>
 <trkpt lat="47.939388" lon="13.563618">
 <ele>495.40</ele>
 <time>2011-09-10T09:26:14Z</time>
 </trkpt>
 <trkpt lat="47.939671" lon="13.564132">
 <ele>495.40</ele>
 <time>2011-09-10T09:26:23Z</time>
 </trkpt>
 <trkpt lat="47.939934" lon="13.564601">
 <ele>496.25</ele>
 <time>2011-09-10T09:26:32Z</time>
 </trkpt>
 <trkpt lat="47.940159" lon="13.565002">
 <ele>495.98</ele>
 <time>2011-09-10T09:26:39Z</time>
 </trkpt>
 <trkpt lat="47.940292" lon="13.565457">
 <ele>494.80</ele>
 <time>2011-09-10T09:26:45Z</time>
 </trkpt>
 <trkpt lat="47.940460" lon="13.566106">
 <ele>494.32</ele>
 <time>2011-09-10T09:26:53Z</time>
 </trkpt>
 <trkpt lat="47.940590" lon="13.566617">
 <ele>493.49</ele>
 <time>2011-09-10T09:26:59Z</time>
 </trkpt>
 <trkpt lat="47.940742" lon="13.567002">
 <ele>492.22</ele>
 <time>2011-09-10T09:27:04Z</time>
 </trkpt>
 <trkpt lat="47.940903" lon="13.567190">
 <ele>491.91</ele>
 <time>2011-09-10T09:27:07Z</time>
 </trkpt>
 <trkpt lat="47.941338" lon="13.567614">
 <ele>491.35</ele>
 <time>2011-09-10T09:27:15Z</time>
 </trkpt>
 <trkpt lat="47.941631" lon="13.567873">
 <ele>490.77</ele>
 <time>2011-09-10T09:27:20Z</time>
 </trkpt>
 <trkpt lat="47.941963" lon="13.568236">
 <ele>490.22</ele>
 <time>2011-09-10T09:27:26Z</time>
 </trkpt>
 <trkpt lat="47.942402" lon="13.568776">
 <ele>490.99</ele>
 <time>2011-09-10T09:27:35Z</time>
 </trkpt>
 <trkpt lat="47.942520" lon="13.568974">
 <ele>491.42</ele>
 <time>2011-09-10T09:27:38Z</time>
 </trkpt>
 <trkpt lat="47.942780" lon="13.569415">
 <ele>491.28</ele>
 <time>2011-09-10T09:27:44Z</time>
 </trkpt>
 <trkpt lat="47.943069" lon="13.569956">
 <ele>489.38</ele>
 <time>2011-09-10T09:27:50Z</time>
 </trkpt>
 <trkpt lat="47.943295" lon="13.570447">
 <ele>485.77</ele>
 <time>2011-09-10T09:27:54Z</time>
 </trkpt>
 <trkpt lat="47.943565" lon="13.570866">
 <ele>482.76</ele>
 <time>2011-09-10T09:27:58Z</time>
 </trkpt>
 <trkpt lat="47.943928" lon="13.571251">
 <ele>482.40</ele>
 <time>2011-09-10T09:28:03Z</time>
 </trkpt>
 <trkpt lat="47.944324" lon="13.571625">
 <ele>480.82</ele>
 <time>2011-09-10T09:28:08Z</time>
 </trkpt>
 <trkpt lat="47.944931" lon="13.572097">
 <ele>480.52</ele>
 <time>2011-09-10T09:28:16Z</time>
 </trkpt>
 <trkpt lat="47.945377" lon="13.572315">
 <ele>480.55</ele>
 <time>2011-09-10T09:28:22Z</time>
 </trkpt>
 <trkpt lat="47.945824" lon="13.572369">
 <ele>481.25</ele>
 <time>2011-09-10T09:28:28Z</time>
 </trkpt>
 <trkpt lat="47.946312" lon="13.572256">
 <ele>481.71</ele>
 <time>2011-09-10T09:28:35Z</time>
 </trkpt>
 <trkpt lat="47.946854" lon="13.572159">
 <ele>482.42</ele>
 <time>2011-09-10T09:28:43Z</time>
 </trkpt>
 <trkpt lat="47.946918" lon="13.572156">
 <ele>482.55</ele>
 <time>2011-09-10T09:28:44Z</time>
 </trkpt>
 <trkpt lat="47.947231" lon="13.572427">
 <ele>483.13</ele>
 <time>2011-09-10T09:28:50Z</time>
 </trkpt>
 <trkpt lat="47.947277" lon="13.572468">
 <ele>483.33</ele>
 <time>2011-09-10T09:28:51Z</time>
 </trkpt>
 <trkpt lat="47.947697" lon="13.572912">
 <ele>486.22</ele>
 <time>2011-09-10T09:29:02Z</time>
 </trkpt>
 <trkpt lat="47.947834" lon="13.573110">
 <ele>487.05</ele>
 <time>2011-09-10T09:29:06Z</time>
 </trkpt>
 <trkpt lat="47.948086" lon="13.573476">
 <ele>488.02</ele>
 <time>2011-09-10T09:29:14Z</time>
 </trkpt>
 <trkpt lat="47.948376" lon="13.573892">
 <ele>486.65</ele>
 <time>2011-09-10T09:29:21Z</time>
 </trkpt>
 <trkpt lat="47.948772" lon="13.574465">
 <ele>484.56</ele>
 <time>2011-09-10T09:29:29Z</time>
 </trkpt>
 <trkpt lat="47.949280" lon="13.575198">
 <ele>483.44</ele>
 <time>2011-09-10T09:29:39Z</time>
 </trkpt>
 <trkpt lat="47.949703" lon="13.575808">
 <ele>482.69</ele>
 <time>2011-09-10T09:29:48Z</time>
 </trkpt>
 <trkpt lat="47.949978" lon="13.576395">
 <ele>483.41</ele>
 <time>2011-09-10T09:29:56Z</time>
 </trkpt>
 <trkpt lat="47.950150" lon="13.576950">
 <ele>483.96</ele>
 <time>2011-09-10T09:30:03Z</time>
 </trkpt>
 <trkpt lat="47.950233" lon="13.577449">
 <ele>484.43</ele>
 <time>2011-09-10T09:30:09Z</time>
 </trkpt>
 <trkpt lat="47.950268" lon="13.578003">
 <ele>485.31</ele>
 <time>2011-09-10T09:30:16Z</time>
 </trkpt>
 <trkpt lat="47.950294" lon="13.578399">
 <ele>487.58</ele>
 <time>2011-09-10T09:30:23Z</time>
 </trkpt>
 <trkpt lat="47.950409" lon="13.578840">
 <ele>490.69</ele>
 <time>2011-09-10T09:30:34Z</time>
 </trkpt>
 <trkpt lat="47.950527" lon="13.579165">
 <ele>492.76</ele>
 <time>2011-09-10T09:30:43Z</time>
 </trkpt>
 <trkpt lat="47.950657" lon="13.579480">
 <ele>494.29</ele>
 <time>2011-09-10T09:30:52Z</time>
 </trkpt>
 <trkpt lat="47.950756" lon="13.579701">
 <ele>495.43</ele>
 <time>2011-09-10T09:30:59Z</time>
 </trkpt>
 <trkpt lat="47.950867" lon="13.580098">
 <ele>496.78</ele>
 <time>2011-09-10T09:31:08Z</time>
 </trkpt>
 <trkpt lat="47.950951" lon="13.580566">
 <ele>498.13</ele>
 <time>2011-09-10T09:31:19Z</time>
 </trkpt>
 <trkpt lat="47.951050" lon="13.581097">
 <ele>499.11</ele>
 <time>2011-09-10T09:31:31Z</time>
 </trkpt>
 <trkpt lat="47.951149" lon="13.581646">
 <ele>500.15</ele>
 <time>2011-09-10T09:31:42Z</time>
 </trkpt>
 <trkpt lat="47.951237" lon="13.582061">
 <ele>499.93</ele>
 <time>2011-09-10T09:31:50Z</time>
 </trkpt>
 <trkpt lat="47.951324" lon="13.582425">
 <ele>500.37</ele>
 <time>2011-09-10T09:31:57Z</time>
 </trkpt>
 <trkpt lat="47.951401" lon="13.582757">
 <ele>500.88</ele>
 <time>2011-09-10T09:32:03Z</time>
 </trkpt>
 <trkpt lat="47.951500" lon="13.583166">
 <ele>500.95</ele>
 <time>2011-09-10T09:32:10Z</time>
 </trkpt>
 <trkpt lat="47.951637" lon="13.583749">
 <ele>501.23</ele>
 <time>2011-09-10T09:32:20Z</time>
 </trkpt>
 <trkpt lat="47.951771" lon="13.584355">
 <ele>501.57</ele>
 <time>2011-09-10T09:32:30Z</time>
 </trkpt>
 <trkpt lat="47.951832" lon="13.584958">
 <ele>500.81</ele>
 <time>2011-09-10T09:32:38Z</time>
 </trkpt>
 <trkpt lat="47.951889" lon="13.585572">
 <ele>499.75</ele>
 <time>2011-09-10T09:32:45Z</time>
 </trkpt>
 <trkpt lat="47.951908" lon="13.586424">
 <ele>498.45</ele>
 <time>2011-09-10T09:32:54Z</time>
 </trkpt>
 <trkpt lat="47.951942" lon="13.587189">
 <ele>496.47</ele>
 <time>2011-09-10T09:33:01Z</time>
 </trkpt>
 <trkpt lat="47.951977" lon="13.587955">
 <ele>493.18</ele>
 <time>2011-09-10T09:33:07Z</time>
 </trkpt>
 <trkpt lat="47.951965" lon="13.588941">
 <ele>490.42</ele>
 <time>2011-09-10T09:33:14Z</time>
 </trkpt>
 <trkpt lat="47.951851" lon="13.589808">
 <ele>490.17</ele>
 <time>2011-09-10T09:33:21Z</time>
 </trkpt>
 <trkpt lat="47.951630" lon="13.590524">
 <ele>490.74</ele>
 <time>2011-09-10T09:33:28Z</time>
 </trkpt>
 <trkpt lat="47.951332" lon="13.591192">
 <ele>490.80</ele>
 <time>2011-09-10T09:33:36Z</time>
 </trkpt>
 <trkpt lat="47.951180" lon="13.591440">
 <ele>489.85</ele>
 <time>2011-09-10T09:33:42Z</time>
 </trkpt>
 <trkpt lat="47.950665" lon="13.592099">
 <ele>487.41</ele>
 <time>2011-09-10T09:33:48Z</time>
 </trkpt>
 <trkpt lat="47.950230" lon="13.592656">
 <ele>484.24</ele>
 <time>2011-09-10T09:33:55Z</time>
 </trkpt>
 <trkpt lat="47.949814" lon="13.593249">
 <ele>482.18</ele>
 <time>2011-09-10T09:34:02Z</time>
 </trkpt>
 <trkpt lat="47.949478" lon="13.593851">
 <ele>481.28</ele>
 <time>2011-09-10T09:34:09Z</time>
 </trkpt>
 <trkpt lat="47.949444" lon="13.593998">
 <ele>482.59</ele>
 <time>2011-09-10T09:34:15Z</time>
 </trkpt>
 <trkpt lat="47.949440" lon="13.594043">
 <ele>482.83</ele>
 <time>2011-09-10T09:34:16Z</time>
 </trkpt>
 <trkpt lat="47.949436" lon="13.594145">
 <ele>482.87</ele>
 <time>2011-09-10T09:34:18Z</time>
 </trkpt>
 <trkpt lat="47.949429" lon="13.594532">
 <ele>482.83</ele>
 <time>2011-09-10T09:34:24Z</time>
 </trkpt>
 <trkpt lat="47.949406" lon="13.594875">
 <ele>483.37</ele>
 <time>2011-09-10T09:34:29Z</time>
 </trkpt>
 <trkpt lat="47.949123" lon="13.594925">
 <ele>483.99</ele>
 <time>2011-09-10T09:34:34Z</time>
 </trkpt>
 <trkpt lat="47.949104" lon="13.594928">
 <ele>484.15</ele>
 <time>2011-09-10T09:34:35Z</time>
 </trkpt>
 <trkpt lat="47.949078" lon="13.594931">
 <ele>484.43</ele>
 <time>2011-09-10T09:34:37Z</time>
 </trkpt>
 <trkpt lat="47.949005" lon="13.594941">
 <ele>484.58</ele>
 <time>2011-09-10T09:34:43Z</time>
 </trkpt>
 <trkpt lat="47.948792" lon="13.594970">
 <ele>484.07</ele>
 <time>2011-09-10T09:34:49Z</time>
 </trkpt>
 <trkpt lat="47.948524" lon="13.595009">
 <ele>483.44</ele>
 <time>2011-09-10T09:34:55Z</time>
 </trkpt>
 <trkpt lat="47.948017" lon="13.595091">
 <ele>482.36</ele>
 <time>2011-09-10T09:35:04Z</time>
 </trkpt>
 <trkpt lat="47.947514" lon="13.595152">
 <ele>483.32</ele>
 <time>2011-09-10T09:35:14Z</time>
 </trkpt>
 <trkpt lat="47.947208" lon="13.595233">
 <ele>483.35</ele>
 <time>2011-09-10T09:35:19Z</time>
 </trkpt>
 <trkpt lat="47.946827" lon="13.594974">
 <ele>483.90</ele>
 <time>2011-09-10T09:35:27Z</time>
 </trkpt>
 <trkpt lat="47.946381" lon="13.594650">
 <ele>483.44</ele>
 <time>2011-09-10T09:35:36Z</time>
 </trkpt>
 <trkpt lat="47.946049" lon="13.594523">
 <ele>483.75</ele>
 <time>2011-09-10T09:35:42Z</time>
 </trkpt>
 <trkpt lat="47.945702" lon="13.594508">
 <ele>483.98</ele>
 <time>2011-09-10T09:35:48Z</time>
 </trkpt>
 <trkpt lat="47.945217" lon="13.594603">
 <ele>482.89</ele>
 <time>2011-09-10T09:35:57Z</time>
 </trkpt>
 <trkpt lat="47.945034" lon="13.594664">
 <ele>483.17</ele>
 <time>2011-09-10T09:36:01Z</time>
 </trkpt>
 <trkpt lat="47.944805" lon="13.594832">
 <ele>484.03</ele>
 <time>2011-09-10T09:36:07Z</time>
 </trkpt>
 <trkpt lat="47.944736" lon="13.594903">
 <ele>484.29</ele>
 <time>2011-09-10T09:36:09Z</time>
 </trkpt>
 <trkpt lat="47.944431" lon="13.595179">
 <ele>485.66</ele>
 <time>2011-09-10T09:36:18Z</time>
 </trkpt>
 <trkpt lat="47.944138" lon="13.595440">
 <ele>487.88</ele>
 <time>2011-09-10T09:36:28Z</time>
 </trkpt>
 <trkpt lat="47.943867" lon="13.595619">
 <ele>489.95</ele>
 <time>2011-09-10T09:36:37Z</time>
 </trkpt>
 <trkpt lat="47.943615" lon="13.595786">
 <ele>491.53</ele>
 <time>2011-09-10T09:36:46Z</time>
 </trkpt>
 <trkpt lat="47.943333" lon="13.595980">
 <ele>493.15</ele>
 <time>2011-09-10T09:36:56Z</time>
 </trkpt>
 <trkpt lat="47.943008" lon="13.596197">
 <ele>494.63</ele>
 <time>2011-09-10T09:37:07Z</time>
 </trkpt>
 <trkpt lat="47.942711" lon="13.596332">
 <ele>494.91</ele>
 <time>2011-09-10T09:37:16Z</time>
 </trkpt>
 <trkpt lat="47.942352" lon="13.596418">
 <ele>494.92</ele>
 <time>2011-09-10T09:37:25Z</time>
 </trkpt>
 <trkpt lat="47.941917" lon="13.596419">
 <ele>493.52</ele>
 <time>2011-09-10T09:37:34Z</time>
 </trkpt>
 <trkpt lat="47.941513" lon="13.596408">
 <ele>491.99</ele>
 <time>2011-09-10T09:37:41Z</time>
 </trkpt>
 <trkpt lat="47.940975" lon="13.596331">
 <ele>490.65</ele>
 <time>2011-09-10T09:37:49Z</time>
 </trkpt>
 <trkpt lat="47.940399" lon="13.596147">
 <ele>489.09</ele>
 <time>2011-09-10T09:37:57Z</time>
 </trkpt>
 <trkpt lat="47.939976" lon="13.595932">
 <ele>488.03</ele>
 <time>2011-09-10T09:38:03Z</time>
 </trkpt>
 <trkpt lat="47.939362" lon="13.595484">
 <ele>486.42</ele>
 <time>2011-09-10T09:38:12Z</time>
 </trkpt>
 <trkpt lat="47.938782" lon="13.595062">
 <ele>484.76</ele>
 <time>2011-09-10T09:38:20Z</time>
 </trkpt>
 <trkpt lat="47.938080" lon="13.594556">
 <ele>483.98</ele>
 <time>2011-09-10T09:38:30Z</time>
 </trkpt>
 <trkpt lat="47.937714" lon="13.594153">
 <ele>484.14</ele>
 <time>2011-09-10T09:38:36Z</time>
 </trkpt>
 <trkpt lat="47.937485" lon="13.593702">
 <ele>483.57</ele>
 <time>2011-09-10T09:38:41Z</time>
 </trkpt>
 <trkpt lat="47.937275" lon="13.593073">
 <ele>482.78</ele>
 <time>2011-09-10T09:38:47Z</time>
 </trkpt>
 <trkpt lat="47.937138" lon="13.592429">
 <ele>482.60</ele>
 <time>2011-09-10T09:38:53Z</time>
 </trkpt>
 <trkpt lat="47.936985" lon="13.591706">
 <ele>483.88</ele>
 <time>2011-09-10T09:39:01Z</time>
 </trkpt>
 <trkpt lat="47.936790" lon="13.591026">
 <ele>484.84</ele>
 <time>2011-09-10T09:39:10Z</time>
 </trkpt>
 <trkpt lat="47.936539" lon="13.590309">
 <ele>483.99</ele>
 <time>2011-09-10T09:39:19Z</time>
 </trkpt>
 <trkpt lat="47.936272" lon="13.589561">
 <ele>484.05</ele>
 <time>2011-09-10T09:39:28Z</time>
 </trkpt>
 <trkpt lat="47.936066" lon="13.589240">
 <ele>484.44</ele>
 <time>2011-09-10T09:39:33Z</time>
 </trkpt>
 <trkpt lat="47.935646" lon="13.588727">
 <ele>484.75</ele>
 <time>2011-09-10T09:39:42Z</time>
 </trkpt>
 <trkpt lat="47.935349" lon="13.588240">
 <ele>485.78</ele>
 <time>2011-09-10T09:39:50Z</time>
 </trkpt>
 <trkpt lat="47.934933" lon="13.587550">
 <ele>486.73</ele>
 <time>2011-09-10T09:40:01Z</time>
 </trkpt>
 <trkpt lat="47.934620" lon="13.587088">
 <ele>486.40</ele>
 <time>2011-09-10T09:40:08Z</time>
 </trkpt>
 <trkpt lat="47.934181" lon="13.586678">
 <ele>484.63</ele>
 <time>2011-09-10T09:40:15Z</time>
 </trkpt>
 <trkpt lat="47.933746" lon="13.586216">
 <ele>483.40</ele>
 <time>2011-09-10T09:40:22Z</time>
 </trkpt>
 <trkpt lat="47.933418" lon="13.585746">
 <ele>483.07</ele>
 <time>2011-09-10T09:40:28Z</time>
 </trkpt>
 <trkpt lat="47.933109" lon="13.585438">
 <ele>482.69</ele>
 <time>2011-09-10T09:40:33Z</time>
 </trkpt>
 <trkpt lat="47.932549" lon="13.585002">
 <ele>483.43</ele>
 <time>2011-09-10T09:40:42Z</time>
 </trkpt>
 <trkpt lat="47.932018" lon="13.584602">
 <ele>483.92</ele>
 <time>2011-09-10T09:40:51Z</time>
 </trkpt>
 <trkpt lat="47.931618" lon="13.584366">
 <ele>484.09</ele>
 <time>2011-09-10T09:40:58Z</time>
 </trkpt>
 <trkpt lat="47.931248" lon="13.584155">
 <ele>484.89</ele>
 <time>2011-09-10T09:41:05Z</time>
 </trkpt>
 <trkpt lat="47.930843" lon="13.583932">
 <ele>486.07</ele>
 <time>2011-09-10T09:41:13Z</time>
 </trkpt>
 <trkpt lat="47.930264" lon="13.583677">
 <ele>487.15</ele>
 <time>2011-09-10T09:41:24Z</time>
 </trkpt>
 <trkpt lat="47.929867" lon="13.583513">
 <ele>487.46</ele>
 <time>2011-09-10T09:41:31Z</time>
 </trkpt>
 <trkpt lat="47.929356" lon="13.583299">
 <ele>484.98</ele>
 <time>2011-09-10T09:41:38Z</time>
 </trkpt>
 <trkpt lat="47.928768" lon="13.583050">
 <ele>482.35</ele>
 <time>2011-09-10T09:41:45Z</time>
 </trkpt>
 <trkpt lat="47.928493" lon="13.582916">
 <ele>482.38</ele>
 <time>2011-09-10T09:41:49Z</time>
 </trkpt>
 <trkpt lat="47.928104" lon="13.582667">
 <ele>482.85</ele>
 <time>2011-09-10T09:41:55Z</time>
 </trkpt>
 <trkpt lat="47.927727" lon="13.582428">
 <ele>483.29</ele>
 <time>2011-09-10T09:42:02Z</time>
 </trkpt>
 <trkpt lat="47.927330" lon="13.582229">
 <ele>484.56</ele>
 <time>2011-09-10T09:42:08Z</time>
 </trkpt>
 <trkpt lat="47.927006" lon="13.582203">
 <ele>485.69</ele>
 <time>2011-09-10T09:42:14Z</time>
 </trkpt>
 <trkpt lat="47.926682" lon="13.582246">
 <ele>485.11</ele>
 <time>2011-09-10T09:42:19Z</time>
 </trkpt>
 <trkpt lat="47.926090" lon="13.582419">
 <ele>482.75</ele>
 <time>2011-09-10T09:42:27Z</time>
 </trkpt>
 <trkpt lat="47.925789" lon="13.582485">
 <ele>482.19</ele>
 <time>2011-09-10T09:42:31Z</time>
 </trkpt>
 <trkpt lat="47.925575" lon="13.582454">
 <ele>482.34</ele>
 <time>2011-09-10T09:42:34Z</time>
 </trkpt>
 <trkpt lat="47.925083" lon="13.582278">
 <ele>483.02</ele>
 <time>2011-09-10T09:42:42Z</time>
 </trkpt>
 <trkpt lat="47.924461" lon="13.581971">
 <ele>483.97</ele>
 <time>2011-09-10T09:42:53Z</time>
 </trkpt>
 <trkpt lat="47.924244" lon="13.581865">
 <ele>484.33</ele>
 <time>2011-09-10T09:42:57Z</time>
 </trkpt>
 <trkpt lat="47.923832" lon="13.581506">
 <ele>485.03</ele>
 <time>2011-09-10T09:43:05Z</time>
 </trkpt>
 <trkpt lat="47.923286" lon="13.580949">
 <ele>486.05</ele>
 <time>2011-09-10T09:43:16Z</time>
 </trkpt>
 <trkpt lat="47.922958" lon="13.580724">
 <ele>486.48</ele>
 <time>2011-09-10T09:43:22Z</time>
 </trkpt>
 <trkpt lat="47.922661" lon="13.580634">
 <ele>486.22</ele>
 <time>2011-09-10T09:43:27Z</time>
 </trkpt>
 <trkpt lat="47.922218" lon="13.580678">
 <ele>484.92</ele>
 <time>2011-09-10T09:43:34Z</time>
 </trkpt>
 <trkpt lat="47.921810" lon="13.580765">
 <ele>484.10</ele>
 <time>2011-09-10T09:43:40Z</time>
 </trkpt>
 <trkpt lat="47.921383" lon="13.580994">
 <ele>482.08</ele>
 <time>2011-09-10T09:43:46Z</time>
 </trkpt>
 <trkpt lat="47.921310" lon="13.581033">
 <ele>481.87</ele>
 <time>2011-09-10T09:43:47Z</time>
 </trkpt>
 <trkpt lat="47.920921" lon="13.581072">
 <ele>481.42</ele>
 <time>2011-09-10T09:43:52Z</time>
 </trkpt>
 <trkpt lat="47.920849" lon="13.581056">
 <ele>481.53</ele>
 <time>2011-09-10T09:43:53Z</time>
 </trkpt>
 <trkpt lat="47.920368" lon="13.580871">
 <ele>481.94</ele>
 <time>2011-09-10T09:44:00Z</time>
 </trkpt>
 <trkpt lat="47.919998" lon="13.580687">
 <ele>483.06</ele>
 <time>2011-09-10T09:44:06Z</time>
 </trkpt>
 <trkpt lat="47.919628" lon="13.580503">
 <ele>482.64</ele>
 <time>2011-09-10T09:44:12Z</time>
 </trkpt>
 <trkpt lat="47.919399" lon="13.580219">
 <ele>482.86</ele>
 <time>2011-09-10T09:44:17Z</time>
 </trkpt>
 <trkpt lat="47.919060" lon="13.579521">
 <ele>483.20</ele>
 <time>2011-09-10T09:44:26Z</time>
 </trkpt>
 <trkpt lat="47.918739" lon="13.578908">
 <ele>483.18</ele>
 <time>2011-09-10T09:44:34Z</time>
 </trkpt>
 <trkpt lat="47.918552" lon="13.578673">
 <ele>482.73</ele>
 <time>2011-09-10T09:44:38Z</time>
 </trkpt>
 <trkpt lat="47.918213" lon="13.578247">
 <ele>483.26</ele>
 <time>2011-09-10T09:44:46Z</time>
 </trkpt>
 <trkpt lat="47.917912" lon="13.578055">
 <ele>483.54</ele>
 <time>2011-09-10T09:44:52Z</time>
 </trkpt>
 <trkpt lat="47.917603" lon="13.578021">
 <ele>483.79</ele>
 <time>2011-09-10T09:44:58Z</time>
 </trkpt>
 <trkpt lat="47.917549" lon="13.578032">
 <ele>483.84</ele>
 <time>2011-09-10T09:44:59Z</time>
 </trkpt>
 <trkpt lat="47.917133" lon="13.578111">
 <ele>483.67</ele>
 <time>2011-09-10T09:45:06Z</time>
 </trkpt>
 <trkpt lat="47.916691" lon="13.577970">
 <ele>483.06</ele>
 <time>2011-09-10T09:45:13Z</time>
 </trkpt>
 <trkpt lat="47.916164" lon="13.577732">
 <ele>483.04</ele>
 <time>2011-09-10T09:45:22Z</time>
 </trkpt>
 <trkpt lat="47.915722" lon="13.577607">
 <ele>483.87</ele>
 <time>2011-09-10T09:45:30Z</time>
 </trkpt>
 <trkpt lat="47.915215" lon="13.577504">
 <ele>484.17</ele>
 <time>2011-09-10T09:45:39Z</time>
 </trkpt>
 <trkpt lat="47.914780" lon="13.577341">
 <ele>483.26</ele>
 <time>2011-09-10T09:45:46Z</time>
 </trkpt>
 <trkpt lat="47.914131" lon="13.577101">
 <ele>480.49</ele>
 <time>2011-09-10T09:45:55Z</time>
 </trkpt>
 <trkpt lat="47.913750" lon="13.576911">
 <ele>481.08</ele>
 <time>2011-09-10T09:46:01Z</time>
 </trkpt>
 <trkpt lat="47.913479" lon="13.576676">
 <ele>482.60</ele>
 <time>2011-09-10T09:46:07Z</time>
 </trkpt>
 <trkpt lat="47.913074" lon="13.576311">
 <ele>485.30</ele>
 <time>2011-09-10T09:46:18Z</time>
 </trkpt>
 <trkpt lat="47.912956" lon="13.576262">
 <ele>485.58</ele>
 <time>2011-09-10T09:46:21Z</time>
 </trkpt>
 <trkpt lat="47.912743" lon="13.576239">
 <ele>485.98</ele>
 <time>2011-09-10T09:46:26Z</time>
 </trkpt>
 <trkpt lat="47.912647" lon="13.576252">
 <ele>486.78</ele>
 <time>2011-09-10T09:46:30Z</time>
 </trkpt>
 <trkpt lat="47.912647" lon="13.576252">
 <ele>487.44</ele>
 <time>2011-09-10T09:46:35Z</time>
 </trkpt>
 <trkpt lat="47.912647" lon="13.576252">
 <ele>487.52</ele>
 <time>2011-09-10T09:46:37Z</time>
 </trkpt>
 <trkpt lat="47.912590" lon="13.576111">
 <ele>487.71</ele>
 <time>2011-09-10T09:47:59Z</time>
 </trkpt>
 <trkpt lat="47.912586" lon="13.576121">
 <ele>487.52</ele>
 <time>2011-09-10T09:48:01Z</time>
 </trkpt>
 <trkpt lat="47.912552" lon="13.576265">
 <ele>487.27</ele>
 <time>2011-09-10T09:48:23Z</time>
 </trkpt>
 <trkpt lat="47.912403" lon="13.576239">
 <ele>487.12</ele>
 <time>2011-09-10T09:48:28Z</time>
 </trkpt>
 <trkpt lat="47.912182" lon="13.576146">
 <ele>487.33</ele>
 <time>2011-09-10T09:48:34Z</time>
 </trkpt>
 <trkpt lat="47.911827" lon="13.575927">
 <ele>487.44</ele>
 <time>2011-09-10T09:48:42Z</time>
 </trkpt>
 <trkpt lat="47.911488" lon="13.575717">
 <ele>485.49</ele>
 <time>2011-09-10T09:48:48Z</time>
 </trkpt>
 <trkpt lat="47.911026" lon="13.575404">
 <ele>482.81</ele>
 <time>2011-09-10T09:48:55Z</time>
 </trkpt>
 <trkpt lat="47.910694" lon="13.575072">
 <ele>482.72</ele>
 <time>2011-09-10T09:49:01Z</time>
 </trkpt>
 <trkpt lat="47.910316" lon="13.574425">
 <ele>482.64</ele>
 <time>2011-09-10T09:49:10Z</time>
 </trkpt>
 <trkpt lat="47.909985" lon="13.573735">
 <ele>482.23</ele>
 <time>2011-09-10T09:49:18Z</time>
 </trkpt>
 <trkpt lat="47.909698" lon="13.573135">
 <ele>482.77</ele>
 <time>2011-09-10T09:49:26Z</time>
 </trkpt>
 <trkpt lat="47.909370" lon="13.572715">
 <ele>482.94</ele>
 <time>2011-09-10T09:49:33Z</time>
 </trkpt>
 <trkpt lat="47.909210" lon="13.572557">
 <ele>483.50</ele>
 <time>2011-09-10T09:49:40Z</time>
 </trkpt>
 <trkpt lat="47.908569" lon="13.572308">
 <ele>484.03</ele>
 <time>2011-09-10T09:49:48Z</time>
 </trkpt>
 <trkpt lat="47.908237" lon="13.572293">
 <ele>485.04</ele>
 <time>2011-09-10T09:49:55Z</time>
 </trkpt>
 <trkpt lat="47.907871" lon="13.572400">
 <ele>486.42</ele>
 <time>2011-09-10T09:50:03Z</time>
 </trkpt>
 <trkpt lat="47.907478" lon="13.572613">
 <ele>487.74</ele>
 <time>2011-09-10T09:50:13Z</time>
 </trkpt>
 <trkpt lat="47.907097" lon="13.572851">
 <ele>488.41</ele>
 <time>2011-09-10T09:50:23Z</time>
 </trkpt>
 <trkpt lat="47.906681" lon="13.573111">
 <ele>489.63</ele>
 <time>2011-09-10T09:50:34Z</time>
 </trkpt>
 <trkpt lat="47.906326" lon="13.573348">
 <ele>490.04</ele>
 <time>2011-09-10T09:50:43Z</time>
 </trkpt>
 <trkpt lat="47.905922" lon="13.573500">
 <ele>490.31</ele>
 <time>2011-09-10T09:50:52Z</time>
 </trkpt>
 <trkpt lat="47.905647" lon="13.573450">
 <ele>490.12</ele>
 <time>2011-09-10T09:50:58Z</time>
 </trkpt>
 <trkpt lat="47.905174" lon="13.573363">
 <ele>490.14</ele>
 <time>2011-09-10T09:51:08Z</time>
 </trkpt>
 <trkpt lat="47.905075" lon="13.573344">
 <ele>490.16</ele>
 <time>2011-09-10T09:51:10Z</time>
 </trkpt>
 <trkpt lat="47.904659" lon="13.573385">
 <ele>490.17</ele>
 <time>2011-09-10T09:51:18Z</time>
 </trkpt>
 <trkpt lat="47.904415" lon="13.573424">
 <ele>490.05</ele>
 <time>2011-09-10T09:51:23Z</time>
 </trkpt>
 <trkpt lat="47.904160" lon="13.573466">
 <ele>490.06</ele>
 <time>2011-09-10T09:51:28Z</time>
 </trkpt>
 <trkpt lat="47.903770" lon="13.573508">
 <ele>490.17</ele>
 <time>2011-09-10T09:51:34Z</time>
 </trkpt>
 <trkpt lat="47.903439" lon="13.573350">
 <ele>490.02</ele>
 <time>2011-09-10T09:51:40Z</time>
 </trkpt>
 <trkpt lat="47.903381" lon="13.573312">
 <ele>490.06</ele>
 <time>2011-09-10T09:51:41Z</time>
 </trkpt>
 <trkpt lat="47.903145" lon="13.572950">
 <ele>489.38</ele>
 <time>2011-09-10T09:51:47Z</time>
 </trkpt>
 <trkpt lat="47.903015" lon="13.572758">
 <ele>488.85</ele>
 <time>2011-09-10T09:51:50Z</time>
 </trkpt>
 <trkpt lat="47.902847" lon="13.572244">
 <ele>487.92</ele>
 <time>2011-09-10T09:51:56Z</time>
 </trkpt>
 <trkpt lat="47.902664" lon="13.571836">
 <ele>487.46</ele>
 <time>2011-09-10T09:52:01Z</time>
 </trkpt>
 <trkpt lat="47.902271" lon="13.571160">
 <ele>486.36</ele>
 <time>2011-09-10T09:52:10Z</time>
 </trkpt>
 <trkpt lat="47.901756" lon="13.570436">
 <ele>483.74</ele>
 <time>2011-09-10T09:52:20Z</time>
 </trkpt>
 <trkpt lat="47.901318" lon="13.569859">
 <ele>482.30</ele>
 <time>2011-09-10T09:52:28Z</time>
 </trkpt>
 <trkpt lat="47.901257" lon="13.569797">
 <ele>481.96</ele>
 <time>2011-09-10T09:52:29Z</time>
 </trkpt>
 <trkpt lat="47.900909" lon="13.569614">
 <ele>480.87</ele>
 <time>2011-09-10T09:52:34Z</time>
 </trkpt>
 <trkpt lat="47.900246" lon="13.569639">
 <ele>480.37</ele>
 <time>2011-09-10T09:52:43Z</time>
 </trkpt>
 <trkpt lat="47.899982" lon="13.569795">
 <ele>479.77</ele>
 <time>2011-09-10T09:52:47Z</time>
 </trkpt>
 <trkpt lat="47.899612" lon="13.570194">
 <ele>479.73</ele>
 <time>2011-09-10T09:52:53Z</time>
 </trkpt>
 <trkpt lat="47.899483" lon="13.570280">
 <ele>479.64</ele>
 <time>2011-09-10T09:52:55Z</time>
 </trkpt>
 <trkpt lat="47.899155" lon="13.570495">
 <ele>479.29</ele>
 <time>2011-09-10T09:53:00Z</time>
 </trkpt>
 <trkpt lat="47.898727" lon="13.570777">
 <ele>480.11</ele>
 <time>2011-09-10T09:53:07Z</time>
 </trkpt>
 <trkpt lat="47.898281" lon="13.570943">
 <ele>480.14</ele>
 <time>2011-09-10T09:53:14Z</time>
 </trkpt>
 <trkpt lat="47.897835" lon="13.571099">
 <ele>480.15</ele>
 <time>2011-09-10T09:53:21Z</time>
 </trkpt>
 <trkpt lat="47.897202" lon="13.571307">
 <ele>480.20</ele>
 <time>2011-09-10T09:53:31Z</time>
 </trkpt>
 <trkpt lat="47.896683" lon="13.571401">
 <ele>479.70</ele>
 <time>2011-09-10T09:53:39Z</time>
 </trkpt>
 <trkpt lat="47.896217" lon="13.571409">
 <ele>479.61</ele>
 <time>2011-09-10T09:53:46Z</time>
 </trkpt>
 <trkpt lat="47.895790" lon="13.571416">
 <ele>480.45</ele>
 <time>2011-09-10T09:53:53Z</time>
 </trkpt>
 <trkpt lat="47.895393" lon="13.571374">
 <ele>480.80</ele>
 <time>2011-09-10T09:54:00Z</time>
 </trkpt>
 <trkpt lat="47.894848" lon="13.571224">
 <ele>481.04</ele>
 <time>2011-09-10T09:54:10Z</time>
 </trkpt>
 <trkpt lat="47.894352" lon="13.571016">
 <ele>481.63</ele>
 <time>2011-09-10T09:54:19Z</time>
 </trkpt>
 <trkpt lat="47.893810" lon="13.570717">
 <ele>481.36</ele>
 <time>2011-09-10T09:54:29Z</time>
 </trkpt>
 <trkpt lat="47.893391" lon="13.570486">
 <ele>482.09</ele>
 <time>2011-09-10T09:54:37Z</time>
 </trkpt>
 <trkpt lat="47.892803" lon="13.570164">
 <ele>481.96</ele>
 <time>2011-09-10T09:54:48Z</time>
 </trkpt>
 <trkpt lat="47.892368" lon="13.569900">
 <ele>481.98</ele>
 <time>2011-09-10T09:54:56Z</time>
 </trkpt>
 <trkpt lat="47.891823" lon="13.569460">
 <ele>482.14</ele>
 <time>2011-09-10T09:55:07Z</time>
 </trkpt>
 <trkpt lat="47.891403" lon="13.569040">
 <ele>482.62</ele>
 <time>2011-09-10T09:55:16Z</time>
 </trkpt>
 <trkpt lat="47.891037" lon="13.568652">
 <ele>482.79</ele>
 <time>2011-09-10T09:55:24Z</time>
 </trkpt>
 <trkpt lat="47.890667" lon="13.568293">
 <ele>483.19</ele>
 <time>2011-09-10T09:55:32Z</time>
 </trkpt>
 <trkpt lat="47.890331" lon="13.568130">
 <ele>482.47</ele>
 <time>2011-09-10T09:55:38Z</time>
 </trkpt>
 <trkpt lat="47.890274" lon="13.568119">
 <ele>482.11</ele>
 <time>2011-09-10T09:55:39Z</time>
 </trkpt>
 <trkpt lat="47.889828" lon="13.568106">
 <ele>481.00</ele>
 <time>2011-09-10T09:55:46Z</time>
 </trkpt>
 <trkpt lat="47.889400" lon="13.568242">
 <ele>480.96</ele>
 <time>2011-09-10T09:55:53Z</time>
 </trkpt>
 <trkpt lat="47.888798" lon="13.568484">
 <ele>480.48</ele>
 <time>2011-09-10T09:56:03Z</time>
 </trkpt>
 <trkpt lat="47.888264" lon="13.568700">
 <ele>480.59</ele>
 <time>2011-09-10T09:56:12Z</time>
 </trkpt>
 <trkpt lat="47.887794" lon="13.568888">
 <ele>480.22</ele>
 <time>2011-09-10T09:56:23Z</time>
 </trkpt>
 <trkpt lat="47.887054" lon="13.569206">
 <ele>480.14</ele>
 <time>2011-09-10T09:56:32Z</time>
 </trkpt>
 <trkpt lat="47.886677" lon="13.569216">
 <ele>480.10</ele>
 <time>2011-09-10T09:56:38Z</time>
 </trkpt>
 <trkpt lat="47.886318" lon="13.569079">
 <ele>479.96</ele>
 <time>2011-09-10T09:56:44Z</time>
 </trkpt>
 <trkpt lat="47.885914" lon="13.568866">
 <ele>480.07</ele>
 <time>2011-09-10T09:56:51Z</time>
 </trkpt>
 <trkpt lat="47.885586" lon="13.568909">
 <ele>480.64</ele>
 <time>2011-09-10T09:56:57Z</time>
 </trkpt>
 <trkpt lat="47.885487" lon="13.568983">
 <ele>480.64</ele>
 <time>2011-09-10T09:56:59Z</time>
 </trkpt>
 <trkpt lat="47.885117" lon="13.569260">
 <ele>480.79</ele>
 <time>2011-09-10T09:57:06Z</time>
 </trkpt>
 <trkpt lat="47.884659" lon="13.569544">
 <ele>480.82</ele>
 <time>2011-09-10T09:57:14Z</time>
 </trkpt>
 <trkpt lat="47.884205" lon="13.569684">
 <ele>480.16</ele>
 <time>2011-09-10T09:57:21Z</time>
 </trkpt>
 <trkpt lat="47.883728" lon="13.569703">
 <ele>480.19</ele>
 <time>2011-09-10T09:57:28Z</time>
 </trkpt>
 <trkpt lat="47.883221" lon="13.569703">
 <ele>480.17</ele>
 <time>2011-09-10T09:57:36Z</time>
 </trkpt>
 <trkpt lat="47.882565" lon="13.569699">
 <ele>480.27</ele>
 <time>2011-09-10T09:57:46Z</time>
 </trkpt>
 <trkpt lat="47.882042" lon="13.569558">
 <ele>479.96</ele>
 <time>2011-09-10T09:57:54Z</time>
 </trkpt>
 <trkpt lat="47.881588" lon="13.569302">
 <ele>480.33</ele>
 <time>2011-09-10T09:58:02Z</time>
 </trkpt>
 <trkpt lat="47.881187" lon="13.569076">
 <ele>480.33</ele>
 <time>2011-09-10T09:58:09Z</time>
 </trkpt>
 <trkpt lat="47.880909" lon="13.569023">
 <ele>479.98</ele>
 <time>2011-09-10T09:58:14Z</time>
 </trkpt>
 <trkpt lat="47.880615" lon="13.569108">
 <ele>479.73</ele>
 <time>2011-09-10T09:58:19Z</time>
 </trkpt>
 <trkpt lat="47.880123" lon="13.569226">
 <ele>479.93</ele>
 <time>2011-09-10T09:58:27Z</time>
 </trkpt>
 <trkpt lat="47.879505" lon="13.569296">
 <ele>480.64</ele>
 <time>2011-09-10T09:58:37Z</time>
 </trkpt>
 <trkpt lat="47.878967" lon="13.569286">
 <ele>480.89</ele>
 <time>2011-09-10T09:58:46Z</time>
 </trkpt>
 <trkpt lat="47.878468" lon="13.569199">
 <ele>482.00</ele>
 <time>2011-09-10T09:58:55Z</time>
 </trkpt>
 <trkpt lat="47.877892" lon="13.568967">
 <ele>483.27</ele>
 <time>2011-09-10T09:59:06Z</time>
 </trkpt>
 <trkpt lat="47.877380" lon="13.568666">
 <ele>484.76</ele>
 <time>2011-09-10T09:59:17Z</time>
 </trkpt>
 <trkpt lat="47.876995" lon="13.568439">
 <ele>485.64</ele>
 <time>2011-09-10T09:59:26Z</time>
 </trkpt>
 <trkpt lat="47.876568" lon="13.568188">
 <ele>486.47</ele>
 <time>2011-09-10T09:59:36Z</time>
 </trkpt>
 <trkpt lat="47.876137" lon="13.567933">
 <ele>486.83</ele>
 <time>2011-09-10T09:59:46Z</time>
 </trkpt>
 <trkpt lat="47.875679" lon="13.567761">
 <ele>486.98</ele>
 <time>2011-09-10T09:59:56Z</time>
 </trkpt>
 <trkpt lat="47.875145" lon="13.567624">
 <ele>486.89</ele>
 <time>2011-09-10T10:00:07Z</time>
 </trkpt>
 <trkpt lat="47.874619" lon="13.567607">
 <ele>486.68</ele>
 <time>2011-09-10T10:00:17Z</time>
 </trkpt>
 <trkpt lat="47.874100" lon="13.567652">
 <ele>485.39</ele>
 <time>2011-09-10T10:00:26Z</time>
 </trkpt>
 <trkpt lat="47.873474" lon="13.567764">
 <ele>483.48</ele>
 <time>2011-09-10T10:00:36Z</time>
 </trkpt>
 <trkpt lat="47.872749" lon="13.567894">
 <ele>481.98</ele>
 <time>2011-09-10T10:00:47Z</time>
 </trkpt>
 <trkpt lat="47.872093" lon="13.567901">
 <ele>481.67</ele>
 <time>2011-09-10T10:00:57Z</time>
 </trkpt>
 <trkpt lat="47.871475" lon="13.567774">
 <ele>481.66</ele>
 <time>2011-09-10T10:01:07Z</time>
 </trkpt>
 <trkpt lat="47.870899" lon="13.567545">
 <ele>482.35</ele>
 <time>2011-09-10T10:01:17Z</time>
 </trkpt>
 <trkpt lat="47.870239" lon="13.567220">
 <ele>482.88</ele>
 <time>2011-09-10T10:01:29Z</time>
 </trkpt>
 <trkpt lat="47.869621" lon="13.566992">
 <ele>481.75</ele>
 <time>2011-09-10T10:01:40Z</time>
 </trkpt>
 <trkpt lat="47.868984" lon="13.566790">
 <ele>481.48</ele>
 <time>2011-09-10T10:01:51Z</time>
 </trkpt>
 <trkpt lat="47.868382" lon="13.566521">
 <ele>480.56</ele>
 <time>2011-09-10T10:02:01Z</time>
 </trkpt>
 <trkpt lat="47.867882" lon="13.566096">
 <ele>480.26</ele>
 <time>2011-09-10T10:02:10Z</time>
 </trkpt>
 <trkpt lat="47.867504" lon="13.565736">
 <ele>480.24</ele>
 <time>2011-09-10T10:02:17Z</time>
 </trkpt>
 <trkpt lat="47.866928" lon="13.565150">
 <ele>480.27</ele>
 <time>2011-09-10T10:02:28Z</time>
 </trkpt>
 <trkpt lat="47.866497" lon="13.564762">
 <ele>479.88</ele>
 <time>2011-09-10T10:02:36Z</time>
 </trkpt>
 <trkpt lat="47.865910" lon="13.564387">
 <ele>479.47</ele>
 <time>2011-09-10T10:02:46Z</time>
 </trkpt>
 <trkpt lat="47.865269" lon="13.563975">
 <ele>479.26</ele>
 <time>2011-09-10T10:02:57Z</time>
 </trkpt>
 <trkpt lat="47.864632" lon="13.563560">
 <ele>479.40</ele>
 <time>2011-09-10T10:03:08Z</time>
 </trkpt>
 <trkpt lat="47.864090" lon="13.563120">
 <ele>479.71</ele>
 <time>2011-09-10T10:03:18Z</time>
 </trkpt>
 <trkpt lat="47.863609" lon="13.562739">
 <ele>480.10</ele>
 <time>2011-09-10T10:03:27Z</time>
 </trkpt>
 <trkpt lat="47.863167" lon="13.562413">
 <ele>479.97</ele>
 <time>2011-09-10T10:03:35Z</time>
 </trkpt>
 <trkpt lat="47.862511" lon="13.561922">
 <ele>480.09</ele>
 <time>2011-09-10T10:03:47Z</time>
 </trkpt>
 <trkpt lat="47.861992" lon="13.561481">
 <ele>480.97</ele>
 <time>2011-09-10T10:03:57Z</time>
 </trkpt>
 <trkpt lat="47.861507" lon="13.561152">
 <ele>481.07</ele>
 <time>2011-09-10T10:04:06Z</time>
 </trkpt>
 <trkpt lat="47.861179" lon="13.561048">
 <ele>481.01</ele>
 <time>2011-09-10T10:04:12Z</time>
 </trkpt>
 <trkpt lat="47.860718" lon="13.560886">
 <ele>481.13</ele>
 <time>2011-09-10T10:04:20Z</time>
 </trkpt>
 <trkpt lat="47.860558" lon="13.560778">
 <ele>481.20</ele>
 <time>2011-09-10T10:04:23Z</time>
 </trkpt>
 <trkpt lat="47.860275" lon="13.560471">
 <ele>481.51</ele>
 <time>2011-09-10T10:04:29Z</time>
 </trkpt>
 <trkpt lat="47.859917" lon="13.559931">
 <ele>481.69</ele>
 <time>2011-09-10T10:04:37Z</time>
 </trkpt>
 <trkpt lat="47.859539" lon="13.559469">
 <ele>481.98</ele>
 <time>2011-09-10T10:04:45Z</time>
 </trkpt>
 <trkpt lat="47.859184" lon="13.559224">
 <ele>482.70</ele>
 <time>2011-09-10T10:04:52Z</time>
 </trkpt>
 <trkpt lat="47.858768" lon="13.559069">
 <ele>483.58</ele>
 <time>2011-09-10T10:05:00Z</time>
 </trkpt>
 <trkpt lat="47.858318" lon="13.559087">
 <ele>484.18</ele>
 <time>2011-09-10T10:05:09Z</time>
 </trkpt>
 <trkpt lat="47.857941" lon="13.559116">
 <ele>484.46</ele>
 <time>2011-09-10T10:05:16Z</time>
 </trkpt>
 <trkpt lat="47.857510" lon="13.559166">
 <ele>484.55</ele>
 <time>2011-09-10T10:05:24Z</time>
 </trkpt>
 <trkpt lat="47.856926" lon="13.559234">
 <ele>483.45</ele>
 <time>2011-09-10T10:05:34Z</time>
 </trkpt>
 <trkpt lat="47.856415" lon="13.559224">
 <ele>482.67</ele>
 <time>2011-09-10T10:05:42Z</time>
 </trkpt>
 <trkpt lat="47.855972" lon="13.559031">
 <ele>481.86</ele>
 <time>2011-09-10T10:05:49Z</time>
 </trkpt>
 <trkpt lat="47.855553" lon="13.558713">
 <ele>481.30</ele>
 <time>2011-09-10T10:05:56Z</time>
 </trkpt>
 <trkpt lat="47.855194" lon="13.558266">
 <ele>480.58</ele>
 <time>2011-09-10T10:06:03Z</time>
 </trkpt>
 <trkpt lat="47.854935" lon="13.557777">
 <ele>480.32</ele>
 <time>2011-09-10T10:06:09Z</time>
 </trkpt>
 <trkpt lat="47.854584" lon="13.557329">
 <ele>480.41</ele>
 <time>2011-09-10T10:06:16Z</time>
 </trkpt>
 <trkpt lat="47.854378" lon="13.557159">
 <ele>480.60</ele>
 <time>2011-09-10T10:06:20Z</time>
 </trkpt>
 <trkpt lat="47.853931" lon="13.556967">
 <ele>480.89</ele>
 <time>2011-09-10T10:06:28Z</time>
 </trkpt>
 <trkpt lat="47.853386" lon="13.556719">
 <ele>480.27</ele>
 <time>2011-09-10T10:06:37Z</time>
 </trkpt>
 <trkpt lat="47.852810" lon="13.556318">
 <ele>479.94</ele>
 <time>2011-09-10T10:06:47Z</time>
 </trkpt>
 <trkpt lat="47.852322" lon="13.555973">
 <ele>480.40</ele>
 <time>2011-09-10T10:06:56Z</time>
 </trkpt>
 <trkpt lat="47.851955" lon="13.555481">
 <ele>481.10</ele>
 <time>2011-09-10T10:07:05Z</time>
 </trkpt>
 <trkpt lat="47.851624" lon="13.554966">
 <ele>481.92</ele>
 <time>2011-09-10T10:07:14Z</time>
 </trkpt>
 <trkpt lat="47.851219" lon="13.554434">
 <ele>482.61</ele>
 <time>2011-09-10T10:07:24Z</time>
 </trkpt>
 <trkpt lat="47.850903" lon="13.554170">
 <ele>482.71</ele>
 <time>2011-09-10T10:07:31Z</time>
 </trkpt>
 <trkpt lat="47.850391" lon="13.553800">
 <ele>481.83</ele>
 <time>2011-09-10T10:07:41Z</time>
 </trkpt>
 <trkpt lat="47.850010" lon="13.553391">
 <ele>481.93</ele>
 <time>2011-09-10T10:07:49Z</time>
 </trkpt>
 <trkpt lat="47.849571" lon="13.552915">
 <ele>481.74</ele>
 <time>2011-09-10T10:07:58Z</time>
 </trkpt>
 <trkpt lat="47.849117" lon="13.552639">
 <ele>481.61</ele>
 <time>2011-09-10T10:08:06Z</time>
 </trkpt>
 <trkpt lat="47.848656" lon="13.552422">
 <ele>481.60</ele>
 <time>2011-09-10T10:08:14Z</time>
 </trkpt>
 <trkpt lat="47.848331" lon="13.552258">
 <ele>481.98</ele>
 <time>2011-09-10T10:08:20Z</time>
 </trkpt>
 <trkpt lat="47.848019" lon="13.552028">
 <ele>483.19</ele>
 <time>2011-09-10T10:08:27Z</time>
 </trkpt>
 <trkpt lat="47.847649" lon="13.551634">
 <ele>485.29</ele>
 <time>2011-09-10T10:08:37Z</time>
 </trkpt>
 <trkpt lat="47.847382" lon="13.551323">
 <ele>485.75</ele>
 <time>2011-09-10T10:08:45Z</time>
 </trkpt>
 <trkpt lat="47.847164" lon="13.550997">
 <ele>485.22</ele>
 <time>2011-09-10T10:08:52Z</time>
 </trkpt>
 <trkpt lat="47.846882" lon="13.550572">
 <ele>484.16</ele>
 <time>2011-09-10T10:08:59Z</time>
 </trkpt>
 <trkpt lat="47.846588" lon="13.550220">
 <ele>483.01</ele>
 <time>2011-09-10T10:09:05Z</time>
 </trkpt>
 <trkpt lat="47.846161" lon="13.549822">
 <ele>482.11</ele>
 <time>2011-09-10T10:09:13Z</time>
 </trkpt>
 <trkpt lat="47.845833" lon="13.549425">
 <ele>482.65</ele>
 <time>2011-09-10T10:09:20Z</time>
 </trkpt>
 <trkpt lat="47.845467" lon="13.548928">
 <ele>483.03</ele>
 <time>2011-09-10T10:09:28Z</time>
 </trkpt>
 <trkpt lat="47.845089" lon="13.548581">
 <ele>482.65</ele>
 <time>2011-09-10T10:09:35Z</time>
 </trkpt>
 <trkpt lat="47.844574" lon="13.548201">
 <ele>481.70</ele>
 <time>2011-09-10T10:09:44Z</time>
 </trkpt>
 <trkpt lat="47.843983" lon="13.547824">
 <ele>481.53</ele>
 <time>2011-09-10T10:09:54Z</time>
 </trkpt>
 <trkpt lat="47.843418" lon="13.547624">
 <ele>481.69</ele>
 <time>2011-09-10T10:10:03Z</time>
 </trkpt>
 <trkpt lat="47.842930" lon="13.547486">
 <ele>481.26</ele>
 <time>2011-09-10T10:10:11Z</time>
 </trkpt>
 <trkpt lat="47.842255" lon="13.547351">
 <ele>481.25</ele>
 <time>2011-09-10T10:10:22Z</time>
 </trkpt>
 <trkpt lat="47.841660" lon="13.547232">
 <ele>481.78</ele>
 <time>2011-09-10T10:10:32Z</time>
 </trkpt>
 <trkpt lat="47.841286" lon="13.547106">
 <ele>484.13</ele>
 <time>2011-09-10T10:10:40Z</time>
 </trkpt>
 <trkpt lat="47.841034" lon="13.547000">
 <ele>485.35</ele>
 <time>2011-09-10T10:10:46Z</time>
 </trkpt>
 <trkpt lat="47.840771" lon="13.546885">
 <ele>486.55</ele>
 <time>2011-09-10T10:10:52Z</time>
 </trkpt>
 <trkpt lat="47.840611" lon="13.546816">
 <ele>487.12</ele>
 <time>2011-09-10T10:10:56Z</time>
 </trkpt>
 <trkpt lat="47.840282" lon="13.546671">
 <ele>487.86</ele>
 <time>2011-09-10T10:11:04Z</time>
 </trkpt>
 <trkpt lat="47.839848" lon="13.546548">
 <ele>487.81</ele>
 <time>2011-09-10T10:11:13Z</time>
 </trkpt>
 <trkpt lat="47.839439" lon="13.546490">
 <ele>487.69</ele>
 <time>2011-09-10T10:11:21Z</time>
 </trkpt>
 <trkpt lat="47.839035" lon="13.546468">
 <ele>487.51</ele>
 <time>2011-09-10T10:11:29Z</time>
 </trkpt>
 <trkpt lat="47.838539" lon="13.546485">
 <ele>488.10</ele>
 <time>2011-09-10T10:11:39Z</time>
 </trkpt>
 <trkpt lat="47.838200" lon="13.546497">
 <ele>488.79</ele>
 <time>2011-09-10T10:11:46Z</time>
 </trkpt>
 <trkpt lat="47.837700" lon="13.546534">
 <ele>489.31</ele>
 <time>2011-09-10T10:11:56Z</time>
 </trkpt>
 <trkpt lat="47.837151" lon="13.546618">
 <ele>488.77</ele>
 <time>2011-09-10T10:12:06Z</time>
 </trkpt>
 <trkpt lat="47.836731" lon="13.546731">
 <ele>487.12</ele>
 <time>2011-09-10T10:12:13Z</time>
 </trkpt>
 <trkpt lat="47.836254" lon="13.546873">
 <ele>485.59</ele>
 <time>2011-09-10T10:12:20Z</time>
 </trkpt>
 <trkpt lat="47.835598" lon="13.547069">
 <ele>483.35</ele>
 <time>2011-09-10T10:12:29Z</time>
 </trkpt>
 <trkpt lat="47.834854" lon="13.547195">
 <ele>482.13</ele>
 <time>2011-09-10T10:12:39Z</time>
 </trkpt>
 <trkpt lat="47.834190" lon="13.547233">
 <ele>481.48</ele>
 <time>2011-09-10T10:12:48Z</time>
 </trkpt>
 <trkpt lat="47.833569" lon="13.547163">
 <ele>481.33</ele>
 <time>2011-09-10T10:12:57Z</time>
 </trkpt>
 <trkpt lat="47.832920" lon="13.546920">
 <ele>481.35</ele>
 <time>2011-09-10T10:13:07Z</time>
 </trkpt>
 <trkpt lat="47.832439" lon="13.546625">
 <ele>480.85</ele>
 <time>2011-09-10T10:13:15Z</time>
 </trkpt>
 <trkpt lat="47.831852" lon="13.546247">
 <ele>481.58</ele>
 <time>2011-09-10T10:13:25Z</time>
 </trkpt>
 <trkpt lat="47.831203" lon="13.545828">
 <ele>482.06</ele>
 <time>2011-09-10T10:13:36Z</time>
 </trkpt>
 <trkpt lat="47.830818" lon="13.545653">
 <ele>482.05</ele>
 <time>2011-09-10T10:13:43Z</time>
 </trkpt>
 <trkpt lat="47.830410" lon="13.545585">
 <ele>481.82</ele>
 <time>2011-09-10T10:13:50Z</time>
 </trkpt>
 <trkpt lat="47.830021" lon="13.545668">
 <ele>480.72</ele>
 <time>2011-09-10T10:13:56Z</time>
 </trkpt>
 <trkpt lat="47.829624" lon="13.545821">
 <ele>479.89</ele>
 <time>2011-09-10T10:14:03Z</time>
 </trkpt>
 <trkpt lat="47.828819" lon="13.545920">
 <ele>479.80</ele>
 <time>2011-09-10T10:14:14Z</time>
 </trkpt>
 <trkpt lat="47.828197" lon="13.545997">
 <ele>480.00</ele>
 <time>2011-09-10T10:14:24Z</time>
 </trkpt>
 <trkpt lat="47.827839" lon="13.546051">
 <ele>480.09</ele>
 <time>2011-09-10T10:14:30Z</time>
 </trkpt>
 <trkpt lat="47.827354" lon="13.546243">
 <ele>480.10</ele>
 <time>2011-09-10T10:14:38Z</time>
 </trkpt>
 <trkpt lat="47.826969" lon="13.546455">
 <ele>480.53</ele>
 <time>2011-09-10T10:14:45Z</time>
 </trkpt>
 <trkpt lat="47.826488" lon="13.546719">
 <ele>480.90</ele>
 <time>2011-09-10T10:14:54Z</time>
 </trkpt>
 <trkpt lat="47.825890" lon="13.547047">
 <ele>480.96</ele>
 <time>2011-09-10T10:15:05Z</time>
 </trkpt>
 <trkpt lat="47.825424" lon="13.547276">
 <ele>480.59</ele>
 <time>2011-09-10T10:15:13Z</time>
 </trkpt>
 <trkpt lat="47.824875" lon="13.547530">
 <ele>479.99</ele>
 <time>2011-09-10T10:15:22Z</time>
 </trkpt>
 <trkpt lat="47.824497" lon="13.547566">
 <ele>479.71</ele>
 <time>2011-09-10T10:15:28Z</time>
 </trkpt>
 <trkpt lat="47.824127" lon="13.547591">
 <ele>479.50</ele>
 <time>2011-09-10T10:15:34Z</time>
 </trkpt>
 <trkpt lat="47.823563" lon="13.547620">
 <ele>478.96</ele>
 <time>2011-09-10T10:15:43Z</time>
 </trkpt>
 <trkpt lat="47.822960" lon="13.547644">
 <ele>479.26</ele>
 <time>2011-09-10T10:15:53Z</time>
 </trkpt>
 <trkpt lat="47.822666" lon="13.547625">
 <ele>479.15</ele>
 <time>2011-09-10T10:15:58Z</time>
 </trkpt>
 <trkpt lat="47.822140" lon="13.547591">
 <ele>479.56</ele>
 <time>2011-09-10T10:16:07Z</time>
 </trkpt>
 <trkpt lat="47.821609" lon="13.547552">
 <ele>479.93</ele>
 <time>2011-09-10T10:16:16Z</time>
 </trkpt>
 <trkpt lat="47.820953" lon="13.547413">
 <ele>479.72</ele>
 <time>2011-09-10T10:16:27Z</time>
 </trkpt>
 <trkpt lat="47.820465" lon="13.547309">
 <ele>479.04</ele>
 <time>2011-09-10T10:16:35Z</time>
 </trkpt>
 <trkpt lat="47.819866" lon="13.547245">
 <ele>479.05</ele>
 <time>2011-09-10T10:16:45Z</time>
 </trkpt>
 <trkpt lat="47.819218" lon="13.547220">
 <ele>479.87</ele>
 <time>2011-09-10T10:16:56Z</time>
 </trkpt>
 <trkpt lat="47.818623" lon="13.547197">
 <ele>479.43</ele>
 <time>2011-09-10T10:17:05Z</time>
 </trkpt>
 <trkpt lat="47.818203" lon="13.547153">
 <ele>479.96</ele>
 <time>2011-09-10T10:17:11Z</time>
 </trkpt>
 <trkpt lat="47.817780" lon="13.547108">
 <ele>480.33</ele>
 <time>2011-09-10T10:17:17Z</time>
 </trkpt>
 <trkpt lat="47.817169" lon="13.547044">
 <ele>481.61</ele>
 <time>2011-09-10T10:17:26Z</time>
 </trkpt>
 <trkpt lat="47.816570" lon="13.546860">
 <ele>482.25</ele>
 <time>2011-09-10T10:17:35Z</time>
 </trkpt>
 <trkpt lat="47.816284" lon="13.546737">
 <ele>482.29</ele>
 <time>2011-09-10T10:17:40Z</time>
 </trkpt>
 <trkpt lat="47.815758" lon="13.546531">
 <ele>481.83</ele>
 <time>2011-09-10T10:17:49Z</time>
 </trkpt>
 <trkpt lat="47.815292" lon="13.546495">
 <ele>481.02</ele>
 <time>2011-09-10T10:17:56Z</time>
 </trkpt>
 <trkpt lat="47.814659" lon="13.546448">
 <ele>480.29</ele>
 <time>2011-09-10T10:18:05Z</time>
 </trkpt>
 <trkpt lat="47.814030" lon="13.546534">
 <ele>479.83</ele>
 <time>2011-09-10T10:18:14Z</time>
 </trkpt>
 <trkpt lat="47.813354" lon="13.546683">
 <ele>479.45</ele>
 <time>2011-09-10T10:18:24Z</time>
 </trkpt>
 <trkpt lat="47.812599" lon="13.546877">
 <ele>480.44</ele>
 <time>2011-09-10T10:18:36Z</time>
 </trkpt>
 <trkpt lat="47.812019" lon="13.547026">
 <ele>480.94</ele>
 <time>2011-09-10T10:18:45Z</time>
 </trkpt>
 <trkpt lat="47.811413" lon="13.547179">
 <ele>480.36</ele>
 <time>2011-09-10T10:18:54Z</time>
 </trkpt>
 <trkpt lat="47.810871" lon="13.547316">
 <ele>479.62</ele>
 <time>2011-09-10T10:19:02Z</time>
 </trkpt>
 <trkpt lat="47.810806" lon="13.547332">
 <ele>479.57</ele>
 <time>2011-09-10T10:19:03Z</time>
 </trkpt>
 <trkpt lat="47.810562" lon="13.547531">
 <ele>479.73</ele>
 <time>2011-09-10T10:19:08Z</time>
 </trkpt>
 <trkpt lat="47.810516" lon="13.547597">
 <ele>479.76</ele>
 <time>2011-09-10T10:19:09Z</time>
 </trkpt>
 <trkpt lat="47.810341" lon="13.547813">
 <ele>479.74</ele>
 <time>2011-09-10T10:19:12Z</time>
 </trkpt>
 <trkpt lat="47.809994" lon="13.547986">
 <ele>479.24</ele>
 <time>2011-09-10T10:19:17Z</time>
 </trkpt>
 <trkpt lat="47.809700" lon="13.547988">
 <ele>479.05</ele>
 <time>2011-09-10T10:19:21Z</time>
 </trkpt>
 <trkpt lat="47.809032" lon="13.547782">
 <ele>479.17</ele>
 <time>2011-09-10T10:19:30Z</time>
 </trkpt>
 <trkpt lat="47.808655" lon="13.547707">
 <ele>479.34</ele>
 <time>2011-09-10T10:19:35Z</time>
 </trkpt>
 <trkpt lat="47.808201" lon="13.547756">
 <ele>479.40</ele>
 <time>2011-09-10T10:19:41Z</time>
 </trkpt>
 <trkpt lat="47.807739" lon="13.547953">
 <ele>479.65</ele>
 <time>2011-09-10T10:19:48Z</time>
 </trkpt>
 <trkpt lat="47.807365" lon="13.547976">
 <ele>479.89</ele>
 <time>2011-09-10T10:19:53Z</time>
 </trkpt>
 <trkpt lat="47.806728" lon="13.548014">
 <ele>479.68</ele>
 <time>2011-09-10T10:20:01Z</time>
 </trkpt>
 <trkpt lat="47.806160" lon="13.548049">
 <ele>480.17</ele>
 <time>2011-09-10T10:20:09Z</time>
 </trkpt>
 <trkpt lat="47.805576" lon="13.548023">
 <ele>480.45</ele>
 <time>2011-09-10T10:20:17Z</time>
 </trkpt>
 <trkpt lat="47.805504" lon="13.548019">
 <ele>480.46</ele>
 <time>2011-09-10T10:20:18Z</time>
 </trkpt>
 <trkpt lat="47.805180" lon="13.547859">
 <ele>480.86</ele>
 <time>2011-09-10T10:20:23Z</time>
 </trkpt>
 <trkpt lat="47.804688" lon="13.547378">
 <ele>482.01</ele>
 <time>2011-09-10T10:20:31Z</time>
 </trkpt>
 <trkpt lat="47.804070" lon="13.546706">
 <ele>482.20</ele>
 <time>2011-09-10T10:20:41Z</time>
 </trkpt>
 <trkpt lat="47.803589" lon="13.546110">
 <ele>481.87</ele>
 <time>2011-09-10T10:20:49Z</time>
 </trkpt>
 <trkpt lat="47.803238" lon="13.545678">
 <ele>481.33</ele>
 <time>2011-09-10T10:20:55Z</time>
 </trkpt>
 <trkpt lat="47.802944" lon="13.545379">
 <ele>481.54</ele>
 <time>2011-09-10T10:21:00Z</time>
 </trkpt>
 <trkpt lat="47.802479" lon="13.545122">
 <ele>481.91</ele>
 <time>2011-09-10T10:21:07Z</time>
 </trkpt>
 <trkpt lat="47.801823" lon="13.544745">
 <ele>481.32</ele>
 <time>2011-09-10T10:21:16Z</time>
 </trkpt>
 <trkpt lat="47.801746" lon="13.544691">
 <ele>481.19</ele>
 <time>2011-09-10T10:21:17Z</time>
 </trkpt>
 <trkpt lat="47.801304" lon="13.544278">
 <ele>479.87</ele>
 <time>2011-09-10T10:21:23Z</time>
 </trkpt>
 <trkpt lat="47.801003" lon="13.543558">
 <ele>479.19</ele>
 <time>2011-09-10T10:21:30Z</time>
 </trkpt>
 <trkpt lat="47.800888" lon="13.543261">
 <ele>479.48</ele>
 <time>2011-09-10T10:21:33Z</time>
 </trkpt>
 <trkpt lat="47.800659" lon="13.542651">
 <ele>479.23</ele>
 <time>2011-09-10T10:21:39Z</time>
 </trkpt>
 <trkpt lat="47.800495" lon="13.541779">
 <ele>479.42</ele>
 <time>2011-09-10T10:21:47Z</time>
 </trkpt>
 <trkpt lat="47.800472" lon="13.541670">
 <ele>479.42</ele>
 <time>2011-09-10T10:21:48Z</time>
 </trkpt>
 <trkpt lat="47.800362" lon="13.540639">
 <ele>479.37</ele>
 <time>2011-09-10T10:21:57Z</time>
 </trkpt>
 <trkpt lat="47.800289" lon="13.539672">
 <ele>479.14</ele>
 <time>2011-09-10T10:22:05Z</time>
 </trkpt>
 <trkpt lat="47.800201" lon="13.538844">
 <ele>478.89</ele>
 <time>2011-09-10T10:22:12Z</time>
 </trkpt>
 <trkpt lat="47.800022" lon="13.538306">
 <ele>479.12</ele>
 <time>2011-09-10T10:22:17Z</time>
 </trkpt>
 <trkpt lat="47.799622" lon="13.537359">
 <ele>478.96</ele>
 <time>2011-09-10T10:22:26Z</time>
 </trkpt>
 <trkpt lat="47.799210" lon="13.536388">
 <ele>478.52</ele>
 <time>2011-09-10T10:22:35Z</time>
 </trkpt>
 <trkpt lat="47.798786" lon="13.535279">
 <ele>479.13</ele>
 <time>2011-09-10T10:22:45Z</time>
 </trkpt>
 <trkpt lat="47.798473" lon="13.534403">
 <ele>479.28</ele>
 <time>2011-09-10T10:22:53Z</time>
 </trkpt>
 <trkpt lat="47.798218" lon="13.533783">
 <ele>479.55</ele>
 <time>2011-09-10T10:22:59Z</time>
 </trkpt>
 <trkpt lat="47.797775" lon="13.532944">
 <ele>478.43</ele>
 <time>2011-09-10T10:23:08Z</time>
 </trkpt>
 <trkpt lat="47.797413" lon="13.532252">
 <ele>478.94</ele>
 <time>2011-09-10T10:23:16Z</time>
 </trkpt>
 <trkpt lat="47.797138" lon="13.531637">
 <ele>479.30</ele>
 <time>2011-09-10T10:23:23Z</time>
 </trkpt>
 <trkpt lat="47.797031" lon="13.531150">
 <ele>479.92</ele>
 <time>2011-09-10T10:23:29Z</time>
 </trkpt>
 <trkpt lat="47.796944" lon="13.530693">
 <ele>480.43</ele>
 <time>2011-09-10T10:23:36Z</time>
 </trkpt>
 <trkpt lat="47.796860" lon="13.530243">
 <ele>480.43</ele>
 <time>2011-09-10T10:23:42Z</time>
 </trkpt>
 <trkpt lat="47.796940" lon="13.529790">
 <ele>480.24</ele>
 <time>2011-09-10T10:23:48Z</time>
 </trkpt>
 <trkpt lat="47.796955" lon="13.529711">
 <ele>480.34</ele>
 <time>2011-09-10T10:23:49Z</time>
 </trkpt>
 <trkpt lat="47.797009" lon="13.529415">
 <ele>481.04</ele>
 <time>2011-09-10T10:23:54Z</time>
 </trkpt>
 <trkpt lat="47.797092" lon="13.528971">
 <ele>480.76</ele>
 <time>2011-09-10T10:24:01Z</time>
 </trkpt>
 <trkpt lat="47.797184" lon="13.528473">
 <ele>480.82</ele>
 <time>2011-09-10T10:24:08Z</time>
 </trkpt>
 <trkpt lat="47.797207" lon="13.528334">
 <ele>480.83</ele>
 <time>2011-09-10T10:24:10Z</time>
 </trkpt>
 <trkpt lat="47.797226" lon="13.528066">
 <ele>480.62</ele>
 <time>2011-09-10T10:24:14Z</time>
 </trkpt>
 <trkpt lat="47.797256" lon="13.527528">
 <ele>480.05</ele>
 <time>2011-09-10T10:24:21Z</time>
 </trkpt>
 <trkpt lat="47.797180" lon="13.527207">
 <ele>479.66</ele>
 <time>2011-09-10T10:24:25Z</time>
 </trkpt>
 <trkpt lat="47.797100" lon="13.526882">
 <ele>479.40</ele>
 <time>2011-09-10T10:24:29Z</time>
 </trkpt>
 <trkpt lat="47.797054" lon="13.526646">
 <ele>479.46</ele>
 <time>2011-09-10T10:24:32Z</time>
 </trkpt>
 <trkpt lat="47.797157" lon="13.525915">
 <ele>481.12</ele>
 <time>2011-09-10T10:24:42Z</time>
 </trkpt>
 <trkpt lat="47.797207" lon="13.525234">
 <ele>483.20</ele>
 <time>2011-09-10T10:24:52Z</time>
 </trkpt>
 <trkpt lat="47.797169" lon="13.524658">
 <ele>484.87</ele>
 <time>2011-09-10T10:25:01Z</time>
 </trkpt>
 <trkpt lat="47.797123" lon="13.523967">
 <ele>486.23</ele>
 <time>2011-09-10T10:25:12Z</time>
 </trkpt>
 <trkpt lat="47.797104" lon="13.523710">
 <ele>486.71</ele>
 <time>2011-09-10T10:25:16Z</time>
 </trkpt>
 <trkpt lat="47.797115" lon="13.523399">
 <ele>487.38</ele>
 <time>2011-09-10T10:25:21Z</time>
 </trkpt>
 <trkpt lat="47.797138" lon="13.523276">
 <ele>487.35</ele>
 <time>2011-09-10T10:25:23Z</time>
 </trkpt>
 <trkpt lat="47.797241" lon="13.522621">
 <ele>486.12</ele>
 <time>2011-09-10T10:25:32Z</time>
 </trkpt>
 <trkpt lat="47.797287" lon="13.521877">
 <ele>486.55</ele>
 <time>2011-09-10T10:25:42Z</time>
 </trkpt>
 <trkpt lat="47.797169" lon="13.521397">
 <ele>487.48</ele>
 <time>2011-09-10T10:25:49Z</time>
 </trkpt>
 <trkpt lat="47.797089" lon="13.520850">
 <ele>487.68</ele>
 <time>2011-09-10T10:25:56Z</time>
 </trkpt>
 <trkpt lat="47.796906" lon="13.520248">
 <ele>486.22</ele>
 <time>2011-09-10T10:26:04Z</time>
 </trkpt>
 <trkpt lat="47.796692" lon="13.519695">
 <ele>485.08</ele>
 <time>2011-09-10T10:26:11Z</time>
 </trkpt>
 <trkpt lat="47.796623" lon="13.519533">
 <ele>484.85</ele>
 <time>2011-09-10T10:26:13Z</time>
 </trkpt>
 <trkpt lat="47.796459" lon="13.519124">
 <ele>482.34</ele>
 <time>2011-09-10T10:26:18Z</time>
 </trkpt>
 <trkpt lat="47.796421" lon="13.519033">
 <ele>481.81</ele>
 <time>2011-09-10T10:26:19Z</time>
 </trkpt>
 <trkpt lat="47.796284" lon="13.518700">
 <ele>482.01</ele>
 <time>2011-09-10T10:26:24Z</time>
 </trkpt>
 <trkpt lat="47.796200" lon="13.518485">
 <ele>485.14</ele>
 <time>2011-09-10T10:26:29Z</time>
 </trkpt>
 <trkpt lat="47.796082" lon="13.518157">
 <ele>485.98</ele>
 <time>2011-09-10T10:26:36Z</time>
 </trkpt>
 <trkpt lat="47.795929" lon="13.517755">
 <ele>485.23</ele>
 <time>2011-09-10T10:26:42Z</time>
 </trkpt>
 <trkpt lat="47.795681" lon="13.517090">
 <ele>481.18</ele>
 <time>2011-09-10T10:26:49Z</time>
 </trkpt>
 <trkpt lat="47.795322" lon="13.516050">
 <ele>478.89</ele>
 <time>2011-09-10T10:26:59Z</time>
 </trkpt>
 <trkpt lat="47.795128" lon="13.515394">
 <ele>479.24</ele>
 <time>2011-09-10T10:27:06Z</time>
 </trkpt>
 <trkpt lat="47.795055" lon="13.515075">
 <ele>479.68</ele>
 <time>2011-09-10T10:27:09Z</time>
 </trkpt>
 <trkpt lat="47.794994" lon="13.514674">
 <ele>481.83</ele>
 <time>2011-09-10T10:27:15Z</time>
 </trkpt>
 <trkpt lat="47.794914" lon="13.514121">
 <ele>481.95</ele>
 <time>2011-09-10T10:27:22Z</time>
 </trkpt>
 <trkpt lat="47.794796" lon="13.513551">
 <ele>481.96</ele>
 <time>2011-09-10T10:27:29Z</time>
 </trkpt>
 <trkpt lat="47.794662" lon="13.513061">
 <ele>483.31</ele>
 <time>2011-09-10T10:27:36Z</time>
 </trkpt>
 <trkpt lat="47.794441" lon="13.512645">
 <ele>485.58</ele>
 <time>2011-09-10T10:27:44Z</time>
 </trkpt>
 <trkpt lat="47.794216" lon="13.512327">
 <ele>488.03</ele>
 <time>2011-09-10T10:27:52Z</time>
 </trkpt>
 <trkpt lat="47.793999" lon="13.512083">
 <ele>489.70</ele>
 <time>2011-09-10T10:28:00Z</time>
 </trkpt>
 <trkpt lat="47.793739" lon="13.511857">
 <ele>491.74</ele>
 <time>2011-09-10T10:28:09Z</time>
 </trkpt>
 <trkpt lat="47.793552" lon="13.511754">
 <ele>493.76</ele>
 <time>2011-09-10T10:28:16Z</time>
 </trkpt>
 <trkpt lat="47.793358" lon="13.511650">
 <ele>495.76</ele>
 <time>2011-09-10T10:28:24Z</time>
 </trkpt>
 <trkpt lat="47.793198" lon="13.511562">
 <ele>497.76</ele>
 <time>2011-09-10T10:28:31Z</time>
 </trkpt>
 <trkpt lat="47.793003" lon="13.511457">
 <ele>498.55</ele>
 <time>2011-09-10T10:28:39Z</time>
 </trkpt>
 <trkpt lat="47.792805" lon="13.511351">
 <ele>498.17</ele>
 <time>2011-09-10T10:28:45Z</time>
 </trkpt>
 <trkpt lat="47.792542" lon="13.511207">
 <ele>497.17</ele>
 <time>2011-09-10T10:28:51Z</time>
 </trkpt>
 <trkpt lat="47.792496" lon="13.511170">
 <ele>496.98</ele>
 <time>2011-09-10T10:28:52Z</time>
 </trkpt>
 <trkpt lat="47.792076" lon="13.510838">
 <ele>495.34</ele>
 <time>2011-09-10T10:29:00Z</time>
 </trkpt>
 <trkpt lat="47.791759" lon="13.510396">
 <ele>493.42</ele>
 <time>2011-09-10T10:29:06Z</time>
 </trkpt>
 <trkpt lat="47.791458" lon="13.509802">
 <ele>492.64</ele>
 <time>2011-09-10T10:29:13Z</time>
 </trkpt>
 <trkpt lat="47.791191" lon="13.509227">
 <ele>491.76</ele>
 <time>2011-09-10T10:29:20Z</time>
 </trkpt>
 <trkpt lat="47.791012" lon="13.508814">
 <ele>490.97</ele>
 <time>2011-09-10T10:29:25Z</time>
 </trkpt>
 <trkpt lat="47.790810" lon="13.508326">
 <ele>488.70</ele>
 <time>2011-09-10T10:29:30Z</time>
 </trkpt>
 <trkpt lat="47.790691" lon="13.508034">
 <ele>487.49</ele>
 <time>2011-09-10T10:29:33Z</time>
 </trkpt>
 <trkpt lat="47.790619" lon="13.507853">
 <ele>486.44</ele>
 <time>2011-09-10T10:29:35Z</time>
 </trkpt>
 <trkpt lat="47.790375" lon="13.507241">
 <ele>483.86</ele>
 <time>2011-09-10T10:29:41Z</time>
 </trkpt>
 <trkpt lat="47.790222" lon="13.506418">
 <ele>479.30</ele>
 <time>2011-09-10T10:29:47Z</time>
 </trkpt>
 <trkpt lat="47.790119" lon="13.505842">
 <ele>476.58</ele>
 <time>2011-09-10T10:29:51Z</time>
 </trkpt>
 <trkpt lat="47.790001" lon="13.505194">
 <ele>475.92</ele>
 <time>2011-09-10T10:29:56Z</time>
 </trkpt>
 <trkpt lat="47.789913" lon="13.504839">
 <ele>476.03</ele>
 <time>2011-09-10T10:29:59Z</time>
 </trkpt>
 <trkpt lat="47.789665" lon="13.503975">
 <ele>476.82</ele>
 <time>2011-09-10T10:30:07Z</time>
 </trkpt>
 <trkpt lat="47.789631" lon="13.503883">
 <ele>476.88</ele>
 <time>2011-09-10T10:30:08Z</time>
 </trkpt>
 <trkpt lat="47.789558" lon="13.503703">
 <ele>477.19</ele>
 <time>2011-09-10T10:30:10Z</time>
 </trkpt>
 <trkpt lat="47.789417" lon="13.503351">
 <ele>477.28</ele>
 <time>2011-09-10T10:30:14Z</time>
 </trkpt>
 <trkpt lat="47.789307" lon="13.502775">
 <ele>477.32</ele>
 <time>2011-09-10T10:30:20Z</time>
 </trkpt>
 <trkpt lat="47.789288" lon="13.502683">
 <ele>477.34</ele>
 <time>2011-09-10T10:30:21Z</time>
 </trkpt>
 <trkpt lat="47.789284" lon="13.501637">
 <ele>477.27</ele>
 <time>2011-09-10T10:30:32Z</time>
 </trkpt>
 <trkpt lat="47.789326" lon="13.500806">
 <ele>477.71</ele>
 <time>2011-09-10T10:30:41Z</time>
 </trkpt>
 <trkpt lat="47.789261" lon="13.500278">
 <ele>478.22</ele>
 <time>2011-09-10T10:30:47Z</time>
 </trkpt>
 <trkpt lat="47.789192" lon="13.499748">
 <ele>478.51</ele>
 <time>2011-09-10T10:30:53Z</time>
 </trkpt>
 <trkpt lat="47.789139" lon="13.499232">
 <ele>478.62</ele>
 <time>2011-09-10T10:30:59Z</time>
 </trkpt>
 <trkpt lat="47.789200" lon="13.498717">
 <ele>478.55</ele>
 <time>2011-09-10T10:31:05Z</time>
 </trkpt>
 <trkpt lat="47.789291" lon="13.498279">
 <ele>478.74</ele>
 <time>2011-09-10T10:31:10Z</time>
 </trkpt>
 <trkpt lat="47.789417" lon="13.497692">
 <ele>479.21</ele>
 <time>2011-09-10T10:31:17Z</time>
 </trkpt>
 <trkpt lat="47.789494" lon="13.497330">
 <ele>479.88</ele>
 <time>2011-09-10T10:31:22Z</time>
 </trkpt>
 <trkpt lat="47.789577" lon="13.496939">
 <ele>480.85</ele>
 <time>2011-09-10T10:31:28Z</time>
 </trkpt>
 <trkpt lat="47.789684" lon="13.496430">
 <ele>482.55</ele>
 <time>2011-09-10T10:31:36Z</time>
 </trkpt>
 <trkpt lat="47.789795" lon="13.495915">
 <ele>484.14</ele>
 <time>2011-09-10T10:31:44Z</time>
 </trkpt>
 <trkpt lat="47.789852" lon="13.495598">
 <ele>485.13</ele>
 <time>2011-09-10T10:31:49Z</time>
 </trkpt>
 <trkpt lat="47.789860" lon="13.495530">
 <ele>485.30</ele>
 <time>2011-09-10T10:31:50Z</time>
 </trkpt>
 <trkpt lat="47.789879" lon="13.495332">
 <ele>485.92</ele>
 <time>2011-09-10T10:31:53Z</time>
 </trkpt>
 <trkpt lat="47.789833" lon="13.495061">
 <ele>486.21</ele>
 <time>2011-09-10T10:31:57Z</time>
 </trkpt>
 <trkpt lat="47.789791" lon="13.494872">
 <ele>486.17</ele>
 <time>2011-09-10T10:32:00Z</time>
 </trkpt>
 <trkpt lat="47.789665" lon="13.494439">
 <ele>486.25</ele>
 <time>2011-09-10T10:32:07Z</time>
 </trkpt>
 <trkpt lat="47.789444" lon="13.493848">
 <ele>486.56</ele>
 <time>2011-09-10T10:32:17Z</time>
 </trkpt>
 <trkpt lat="47.789337" lon="13.493563">
 <ele>487.20</ele>
 <time>2011-09-10T10:32:22Z</time>
 </trkpt>
 <trkpt lat="47.789204" lon="13.492905">
 <ele>487.77</ele>
 <time>2011-09-10T10:32:32Z</time>
 </trkpt>
 <trkpt lat="47.789181" lon="13.492659">
 <ele>487.12</ele>
 <time>2011-09-10T10:32:35Z</time>
 </trkpt>
 <trkpt lat="47.789227" lon="13.492059">
 <ele>484.61</ele>
 <time>2011-09-10T10:32:41Z</time>
 </trkpt>
 <trkpt lat="47.789246" lon="13.491453">
 <ele>481.94</ele>
 <time>2011-09-10T10:32:46Z</time>
 </trkpt>
 <trkpt lat="47.789150" lon="13.490851">
 <ele>478.29</ele>
 <time>2011-09-10T10:32:51Z</time>
 </trkpt>
 <trkpt lat="47.789108" lon="13.490559">
 <ele>477.27</ele>
 <time>2011-09-10T10:32:53Z</time>
 </trkpt>
 <trkpt lat="47.789146" lon="13.489857">
 <ele>476.34</ele>
 <time>2011-09-10T10:32:58Z</time>
 </trkpt>
 <trkpt lat="47.789379" lon="13.488962">
 <ele>476.48</ele>
 <time>2011-09-10T10:33:06Z</time>
 </trkpt>
 <trkpt lat="47.789501" lon="13.488437">
 <ele>476.37</ele>
 <time>2011-09-10T10:33:11Z</time>
 </trkpt>
 <trkpt lat="47.789677" lon="13.487957">
 <ele>476.49</ele>
 <time>2011-09-10T10:33:16Z</time>
 </trkpt>
 <trkpt lat="47.789799" lon="13.487709">
 <ele>476.74</ele>
 <time>2011-09-10T10:33:19Z</time>
 </trkpt>
 <trkpt lat="47.790115" lon="13.487314">
 <ele>478.24</ele>
 <time>2011-09-10T10:33:26Z</time>
 </trkpt>
 <trkpt lat="47.790363" lon="13.486951">
 <ele>479.04</ele>
 <time>2011-09-10T10:33:32Z</time>
 </trkpt>
 <trkpt lat="47.790440" lon="13.486807">
 <ele>478.87</ele>
 <time>2011-09-10T10:33:34Z</time>
 </trkpt>
 <trkpt lat="47.790554" lon="13.486587">
 <ele>478.25</ele>
 <time>2011-09-10T10:33:37Z</time>
 </trkpt>
 <trkpt lat="47.790615" lon="13.486402">
 <ele>477.79</ele>
 <time>2011-09-10T10:33:39Z</time>
 </trkpt>
 <trkpt lat="47.790726" lon="13.486007">
 <ele>477.17</ele>
 <time>2011-09-10T10:33:43Z</time>
 </trkpt>
 <trkpt lat="47.791050" lon="13.485496">
 <ele>477.21</ele>
 <time>2011-09-10T10:33:50Z</time>
 </trkpt>
 <trkpt lat="47.791386" lon="13.485171">
 <ele>476.91</ele>
 <time>2011-09-10T10:33:56Z</time>
 </trkpt>
 <trkpt lat="47.791866" lon="13.484945">
 <ele>477.20</ele>
 <time>2011-09-10T10:34:04Z</time>
 </trkpt>
 <trkpt lat="47.792187" lon="13.484721">
 <ele>477.36</ele>
 <time>2011-09-10T10:34:10Z</time>
 </trkpt>
 <trkpt lat="47.792244" lon="13.484674">
 <ele>477.35</ele>
 <time>2011-09-10T10:34:11Z</time>
 </trkpt>
 <trkpt lat="47.792706" lon="13.484361">
 <ele>478.23</ele>
 <time>2011-09-10T10:34:19Z</time>
 </trkpt>
 <trkpt lat="47.793091" lon="13.484253">
 <ele>478.65</ele>
 <time>2011-09-10T10:34:26Z</time>
 </trkpt>
 <trkpt lat="47.793438" lon="13.484062">
 <ele>478.09</ele>
 <time>2011-09-10T10:34:32Z</time>
 </trkpt>
 <trkpt lat="47.793606" lon="13.483963">
 <ele>477.82</ele>
 <time>2011-09-10T10:34:35Z</time>
 </trkpt>
 <trkpt lat="47.793842" lon="13.483915">
 <ele>477.79</ele>
 <time>2011-09-10T10:34:39Z</time>
 </trkpt>
 <trkpt lat="47.794033" lon="13.483915">
 <ele>478.09</ele>
 <time>2011-09-10T10:34:42Z</time>
 </trkpt>
 <trkpt lat="47.794399" lon="13.483915">
 <ele>478.54</ele>
 <time>2011-09-10T10:34:48Z</time>
 </trkpt>
 <trkpt lat="47.794811" lon="13.483915">
 <ele>478.64</ele>
 <time>2011-09-10T10:34:55Z</time>
 </trkpt>
 <trkpt lat="47.795105" lon="13.483915">
 <ele>479.05</ele>
 <time>2011-09-10T10:35:00Z</time>
 </trkpt>
 <trkpt lat="47.795609" lon="13.483915">
 <ele>478.53</ele>
 <time>2011-09-10T10:35:08Z</time>
 </trkpt>
 <trkpt lat="47.796032" lon="13.483899">
 <ele>478.76</ele>
 <time>2011-09-10T10:35:15Z</time>
 </trkpt>
 <trkpt lat="47.796417" lon="13.483846">
 <ele>478.33</ele>
 <time>2011-09-10T10:35:21Z</time>
 </trkpt>
 <trkpt lat="47.796879" lon="13.483749">
 <ele>478.55</ele>
 <time>2011-09-10T10:35:29Z</time>
 </trkpt>
 <trkpt lat="47.797207" lon="13.483648">
 <ele>479.06</ele>
 <time>2011-09-10T10:35:35Z</time>
 </trkpt>
 <trkpt lat="47.797680" lon="13.483502">
 <ele>479.35</ele>
 <time>2011-09-10T10:35:43Z</time>
 </trkpt>
 <trkpt lat="47.798264" lon="13.483323">
 <ele>479.80</ele>
 <time>2011-09-10T10:35:53Z</time>
 </trkpt>
 <trkpt lat="47.798733" lon="13.483293">
 <ele>480.27</ele>
 <time>2011-09-10T10:36:01Z</time>
 </trkpt>
 <trkpt lat="47.799126" lon="13.483293">
 <ele>480.74</ele>
 <time>2011-09-10T10:36:08Z</time>
 </trkpt>
 <trkpt lat="47.799480" lon="13.483154">
 <ele>481.30</ele>
 <time>2011-09-10T10:36:15Z</time>
 </trkpt>
 <trkpt lat="47.799774" lon="13.482866">
 <ele>481.94</ele>
 <time>2011-09-10T10:36:23Z</time>
 </trkpt>
 <trkpt lat="47.800106" lon="13.482360">
 <ele>481.98</ele>
 <time>2011-09-10T10:36:33Z</time>
 </trkpt>
 <trkpt lat="47.800449" lon="13.482010">
 <ele>482.02</ele>
 <time>2011-09-10T10:36:41Z</time>
 </trkpt>
 <trkpt lat="47.800762" lon="13.481750">
 <ele>482.13</ele>
 <time>2011-09-10T10:36:48Z</time>
 </trkpt>
 <trkpt lat="47.801167" lon="13.481584">
 <ele>482.41</ele>
 <time>2011-09-10T10:36:56Z</time>
 </trkpt>
 <trkpt lat="47.801655" lon="13.481435">
 <ele>483.84</ele>
 <time>2011-09-10T10:37:06Z</time>
 </trkpt>
 <trkpt lat="47.801968" lon="13.481260">
 <ele>484.84</ele>
 <time>2011-09-10T10:37:14Z</time>
 </trkpt>
 <trkpt lat="47.802223" lon="13.481040">
 <ele>486.32</ele>
 <time>2011-09-10T10:37:23Z</time>
 </trkpt>
 <trkpt lat="47.802429" lon="13.480706">
 <ele>487.85</ele>
 <time>2011-09-10T10:37:30Z</time>
 </trkpt>
 <trkpt lat="47.802597" lon="13.480327">
 <ele>489.93</ele>
 <time>2011-09-10T10:37:40Z</time>
 </trkpt>
 <trkpt lat="47.802689" lon="13.479924">
 <ele>491.97</ele>
 <time>2011-09-10T10:37:50Z</time>
 </trkpt>
 <trkpt lat="47.802719" lon="13.479605">
 <ele>493.61</ele>
 <time>2011-09-10T10:37:59Z</time>
 </trkpt>
 <trkpt lat="47.802753" lon="13.479216">
 <ele>496.24</ele>
 <time>2011-09-10T10:38:10Z</time>
 </trkpt>
 <trkpt lat="47.802757" lon="13.479112">
 <ele>496.97</ele>
 <time>2011-09-10T10:38:14Z</time>
 </trkpt>
 <trkpt lat="47.802757" lon="13.479112">
 <ele>497.14</ele>
 <time>2011-09-10T10:38:15Z</time>
 </trkpt>
 <trkpt lat="47.802757" lon="13.478977">
 <ele>497.46</ele>
 <time>2011-09-10T10:38:41Z</time>
 </trkpt>
 <trkpt lat="47.802750" lon="13.478715">
 <ele>498.76</ele>
 <time>2011-09-10T10:38:50Z</time>
 </trkpt>
 <trkpt lat="47.802742" lon="13.478410">
 <ele>500.29</ele>
 <time>2011-09-10T10:39:00Z</time>
 </trkpt>
 <trkpt lat="47.802765" lon="13.478002">
 <ele>502.66</ele>
 <time>2011-09-10T10:39:12Z</time>
 </trkpt>
 <trkpt lat="47.802891" lon="13.477762">
 <ele>503.78</ele>
 <time>2011-09-10T10:39:22Z</time>
 </trkpt>
 <trkpt lat="47.802998" lon="13.477555">
 <ele>505.21</ele>
 <time>2011-09-10T10:39:30Z</time>
 </trkpt>
 <trkpt lat="47.803123" lon="13.477396">
 <ele>506.46</ele>
 <time>2011-09-10T10:39:37Z</time>
 </trkpt>
 <trkpt lat="47.803291" lon="13.477328">
 <ele>507.64</ele>
 <time>2011-09-10T10:39:44Z</time>
 </trkpt>
 <trkpt lat="47.803413" lon="13.477328">
 <ele>508.01</ele>
 <time>2011-09-10T10:39:50Z</time>
 </trkpt>
 <trkpt lat="47.803413" lon="13.477328">
 <ele>508.03</ele>
 <time>2011-09-10T10:39:51Z</time>
 </trkpt>
 <trkpt lat="47.803493" lon="13.477394">
 <ele>508.05</ele>
 <time>2011-09-10T10:40:05Z</time>
 </trkpt>
 <trkpt lat="47.803490" lon="13.477358">
 <ele>507.92</ele>
 <time>2011-09-10T10:40:06Z</time>
 </trkpt>
 <trkpt lat="47.803524" lon="13.476954">
 <ele>507.12</ele>
 <time>2011-09-10T10:40:14Z</time>
 </trkpt>
 <trkpt lat="47.803566" lon="13.476512">
 <ele>506.51</ele>
 <time>2011-09-10T10:40:21Z</time>
 </trkpt>
 <trkpt lat="47.803616" lon="13.476081">
 <ele>506.28</ele>
 <time>2011-09-10T10:40:27Z</time>
 </trkpt>
 <trkpt lat="47.803719" lon="13.475446">
 <ele>505.75</ele>
 <time>2011-09-10T10:40:35Z</time>
 </trkpt>
 <trkpt lat="47.803829" lon="13.474764">
 <ele>505.01</ele>
 <time>2011-09-10T10:40:43Z</time>
 </trkpt>
 <trkpt lat="47.804024" lon="13.473577">
 <ele>504.37</ele>
 <time>2011-09-10T10:40:56Z</time>
 </trkpt>
 <trkpt lat="47.804161" lon="13.472585">
 <ele>503.67</ele>
 <time>2011-09-10T10:41:06Z</time>
 </trkpt>
 <trkpt lat="47.804298" lon="13.471419">
 <ele>502.57</ele>
 <time>2011-09-10T10:41:17Z</time>
 </trkpt>
 <trkpt lat="47.804386" lon="13.470383">
 <ele>500.85</ele>
 <time>2011-09-10T10:41:26Z</time>
 </trkpt>
 <trkpt lat="47.804401" lon="13.469234">
 <ele>499.96</ele>
 <time>2011-09-10T10:41:35Z</time>
 </trkpt>
 <trkpt lat="47.804401" lon="13.468020">
 <ele>496.45</ele>
 <time>2011-09-10T10:41:44Z</time>
 </trkpt>
 <trkpt lat="47.804317" lon="13.466931">
 <ele>493.91</ele>
 <time>2011-09-10T10:41:52Z</time>
 </trkpt>
 <trkpt lat="47.804291" lon="13.466578">
 <ele>493.48</ele>
 <time>2011-09-10T10:41:55Z</time>
 </trkpt>
 <trkpt lat="47.804276" lon="13.466409">
 <ele>493.69</ele>
 <time>2011-09-10T10:41:57Z</time>
 </trkpt>
 <trkpt lat="47.804230" lon="13.465816">
 <ele>493.66</ele>
 <time>2011-09-10T10:42:04Z</time>
 </trkpt>
 <trkpt lat="47.804165" lon="13.464952">
 <ele>492.82</ele>
 <time>2011-09-10T10:42:13Z</time>
 </trkpt>
 <trkpt lat="47.804123" lon="13.464004">
 <ele>492.86</ele>
 <time>2011-09-10T10:42:23Z</time>
 </trkpt>
 <trkpt lat="47.804111" lon="13.463732">
 <ele>492.96</ele>
 <time>2011-09-10T10:42:26Z</time>
 </trkpt>
 <trkpt lat="47.804085" lon="13.463028">
 <ele>493.61</ele>
 <time>2011-09-10T10:42:34Z</time>
 </trkpt>
 <trkpt lat="47.804043" lon="13.462221">
 <ele>494.41</ele>
 <time>2011-09-10T10:42:43Z</time>
 </trkpt>
 <trkpt lat="47.803989" lon="13.461503">
 <ele>494.43</ele>
 <time>2011-09-10T10:42:51Z</time>
 </trkpt>
 <trkpt lat="47.803921" lon="13.460676">
 <ele>494.49</ele>
 <time>2011-09-10T10:43:00Z</time>
 </trkpt>
 <trkpt lat="47.803825" lon="13.459934">
 <ele>494.31</ele>
 <time>2011-09-10T10:43:08Z</time>
 </trkpt>
 <trkpt lat="47.803692" lon="13.458706">
 <ele>493.82</ele>
 <time>2011-09-10T10:43:21Z</time>
 </trkpt>
 <trkpt lat="47.803604" lon="13.457846">
 <ele>494.16</ele>
 <time>2011-09-10T10:43:30Z</time>
 </trkpt>
 <trkpt lat="47.803555" lon="13.457115">
 <ele>493.70</ele>
 <time>2011-09-10T10:43:40Z</time>
 </trkpt>
 <trkpt lat="47.803555" lon="13.457115">
 <ele>493.25</ele>
 <time>2011-09-10T10:43:49Z</time>
 </trkpt>
 <trkpt lat="47.803635" lon="13.455154">
 <ele>492.61</ele>
 <time>2011-09-10T10:43:58Z</time>
 </trkpt>
 <trkpt lat="47.803802" lon="13.454209">
 <ele>491.91</ele>
 <time>2011-09-10T10:44:08Z</time>
 </trkpt>
 <trkpt lat="47.803905" lon="13.453659">
 <ele>491.60</ele>
 <time>2011-09-10T10:44:14Z</time>
 </trkpt>
 <trkpt lat="47.804073" lon="13.452875">
 <ele>491.89</ele>
 <time>2011-09-10T10:44:23Z</time>
 </trkpt>
 <trkpt lat="47.804256" lon="13.452158">
 <ele>492.33</ele>
 <time>2011-09-10T10:44:32Z</time>
 </trkpt>
 <trkpt lat="47.804401" lon="13.451602">
 <ele>493.45</ele>
 <time>2011-09-10T10:44:40Z</time>
 </trkpt>
 <trkpt lat="47.804413" lon="13.451561">
 <ele>493.56</ele>
 <time>2011-09-10T10:44:41Z</time>
 </trkpt>
 <trkpt lat="47.804432" lon="13.451493">
 <ele>494.11</ele>
 <time>2011-09-10T10:44:46Z</time>
 </trkpt>
 <trkpt lat="47.804432" lon="13.451493">
 <ele>494.13</ele>
 <time>2011-09-10T10:44:50Z</time>
 </trkpt>
 <trkpt lat="47.804432" lon="13.451493">
 <ele>494.34</ele>
 <time>2011-09-10T10:44:58Z</time>
 </trkpt>
 <trkpt lat="47.804882" lon="13.450478">
 <ele>495.41</ele>
 <time>2011-09-10T10:45:06Z</time>
 </trkpt>
 <trkpt lat="47.805054" lon="13.450153">
 <ele>496.42</ele>
 <time>2011-09-10T10:45:13Z</time>
 </trkpt>
 <trkpt lat="47.805332" lon="13.449620">
 <ele>498.10</ele>
 <time>2011-09-10T10:45:25Z</time>
 </trkpt>
 <trkpt lat="47.805534" lon="13.449159">
 <ele>498.56</ele>
 <time>2011-09-10T10:45:34Z</time>
 </trkpt>
 <trkpt lat="47.805676" lon="13.448613">
 <ele>498.65</ele>
 <time>2011-09-10T10:45:43Z</time>
 </trkpt>
 <trkpt lat="47.805740" lon="13.448212">
 <ele>498.23</ele>
 <time>2011-09-10T10:45:49Z</time>
 </trkpt>
 <trkpt lat="47.805752" lon="13.448172">
 <ele>498.37</ele>
 <time>2011-09-10T10:45:52Z</time>
 </trkpt>
 <trkpt lat="47.805767" lon="13.448105">
 <ele>498.73</ele>
 <time>2011-09-10T10:46:50Z</time>
 </trkpt>
 <trkpt lat="47.805775" lon="13.448078">
 <ele>498.57</ele>
 <time>2011-09-10T10:46:51Z</time>
 </trkpt>
 <trkpt lat="47.805817" lon="13.447830">
 <ele>497.71</ele>
 <time>2011-09-10T10:46:57Z</time>
 </trkpt>
 <trkpt lat="47.805836" lon="13.447718">
 <ele>497.39</ele>
 <time>2011-09-10T10:46:59Z</time>
 </trkpt>
 <trkpt lat="47.805859" lon="13.447592">
 <ele>497.10</ele>
 <time>2011-09-10T10:47:01Z</time>
 </trkpt>
 <trkpt lat="47.805931" lon="13.447126">
 <ele>495.88</ele>
 <time>2011-09-10T10:47:07Z</time>
 </trkpt>
 <trkpt lat="47.806007" lon="13.446655">
 <ele>494.60</ele>
 <time>2011-09-10T10:47:12Z</time>
 </trkpt>
 <trkpt lat="47.806019" lon="13.446579">
 <ele>492.18</ele>
 <time>2011-09-10T10:47:19Z</time>
 </trkpt>
 <trkpt lat="47.806164" lon="13.445337">
 <ele>491.65</ele>
 <time>2011-09-10T10:47:24Z</time>
 </trkpt>
 <trkpt lat="47.806152" lon="13.444903">
 <ele>492.74</ele>
 <time>2011-09-10T10:47:29Z</time>
 </trkpt>
 <trkpt lat="47.806114" lon="13.444355">
 <ele>494.23</ele>
 <time>2011-09-10T10:47:37Z</time>
 </trkpt>
 <trkpt lat="47.806072" lon="13.443771">
 <ele>494.97</ele>
 <time>2011-09-10T10:47:46Z</time>
 </trkpt>
 <trkpt lat="47.806046" lon="13.443155">
 <ele>495.31</ele>
 <time>2011-09-10T10:47:55Z</time>
 </trkpt>
 <trkpt lat="47.806061" lon="13.442643">
 <ele>495.74</ele>
 <time>2011-09-10T10:48:03Z</time>
 </trkpt>
 <trkpt lat="47.806076" lon="13.442093">
 <ele>495.95</ele>
 <time>2011-09-10T10:48:11Z</time>
 </trkpt>
 <trkpt lat="47.806091" lon="13.441490">
 <ele>495.92</ele>
 <time>2011-09-10T10:48:19Z</time>
 </trkpt>
 <trkpt lat="47.806103" lon="13.441040">
 <ele>496.00</ele>
 <time>2011-09-10T10:48:25Z</time>
 </trkpt>
 <trkpt lat="47.806087" lon="13.440695">
 <ele>495.42</ele>
 <time>2011-09-10T10:48:30Z</time>
 </trkpt>
 <trkpt lat="47.806015" lon="13.439916">
 <ele>493.18</ele>
 <time>2011-09-10T10:48:38Z</time>
 </trkpt>
 <trkpt lat="47.805958" lon="13.439308">
 <ele>492.61</ele>
 <time>2011-09-10T10:48:44Z</time>
 </trkpt>
 <trkpt lat="47.806080" lon="13.438605">
 <ele>492.57</ele>
 <time>2011-09-10T10:48:51Z</time>
 </trkpt>
 <trkpt lat="47.806087" lon="13.438234">
 <ele>492.24</ele>
 <time>2011-09-10T10:48:55Z</time>
 </trkpt>
 <trkpt lat="47.805958" lon="13.437698">
 <ele>491.84</ele>
 <time>2011-09-10T10:49:01Z</time>
 </trkpt>
 <trkpt lat="47.805779" lon="13.437232">
 <ele>492.55</ele>
 <time>2011-09-10T10:49:07Z</time>
 </trkpt>
 <trkpt lat="47.805756" lon="13.437162">
 <ele>492.88</ele>
 <time>2011-09-10T10:49:08Z</time>
 </trkpt>
 <trkpt lat="47.805702" lon="13.436623">
 <ele>494.65</ele>
 <time>2011-09-10T10:49:15Z</time>
 </trkpt>
 <trkpt lat="47.805759" lon="13.436068">
 <ele>493.67</ele>
 <time>2011-09-10T10:49:21Z</time>
 </trkpt>
 <trkpt lat="47.805767" lon="13.435294">
 <ele>492.49</ele>
 <time>2011-09-10T10:49:29Z</time>
 </trkpt>
 <trkpt lat="47.805775" lon="13.434838">
 <ele>492.23</ele>
 <time>2011-09-10T10:49:34Z</time>
 </trkpt>
 <trkpt lat="47.805790" lon="13.434306">
 <ele>493.46</ele>
 <time>2011-09-10T10:49:41Z</time>
 </trkpt>
 <trkpt lat="47.805813" lon="13.433642">
 <ele>495.72</ele>
 <time>2011-09-10T10:49:51Z</time>
 </trkpt>
 <trkpt lat="47.805813" lon="13.432971">
 <ele>497.28</ele>
 <time>2011-09-10T10:50:02Z</time>
 </trkpt>
 <trkpt lat="47.805779" lon="13.432596">
 <ele>498.90</ele>
 <time>2011-09-10T10:50:09Z</time>
 </trkpt>
 <trkpt lat="47.805729" lon="13.432051">
 <ele>501.57</ele>
 <time>2011-09-10T10:50:21Z</time>
 </trkpt>
 <trkpt lat="47.805706" lon="13.431782">
 <ele>503.01</ele>
 <time>2011-09-10T10:50:28Z</time>
 </trkpt>
 <trkpt lat="47.805805" lon="13.431476">
 <ele>504.79</ele>
 <time>2011-09-10T10:50:37Z</time>
 </trkpt>
 <trkpt lat="47.805847" lon="13.431208">
 <ele>506.66</ele>
 <time>2011-09-10T10:50:45Z</time>
 </trkpt>
 <trkpt lat="47.805870" lon="13.430870">
 <ele>508.15</ele>
 <time>2011-09-10T10:50:55Z</time>
 </trkpt>
 <trkpt lat="47.805870" lon="13.430548">
 <ele>509.62</ele>
 <time>2011-09-10T10:51:04Z</time>
 </trkpt>
 <trkpt lat="47.805870" lon="13.430150">
 <ele>510.98</ele>
 <time>2011-09-10T10:51:14Z</time>
 </trkpt>
 <trkpt lat="47.805870" lon="13.429892">
 <ele>510.85</ele>
 <time>2011-09-10T10:51:19Z</time>
 </trkpt>
 <trkpt lat="47.805908" lon="13.429381">
 <ele>510.24</ele>
 <time>2011-09-10T10:51:27Z</time>
 </trkpt>
 <trkpt lat="47.805946" lon="13.428918">
 <ele>509.23</ele>
 <time>2011-09-10T10:51:33Z</time>
 </trkpt>
 <trkpt lat="47.805958" lon="13.428742">
 <ele>508.54</ele>
 <time>2011-09-10T10:51:35Z</time>
 </trkpt>
 <trkpt lat="47.805950" lon="13.428224">
 <ele>506.10</ele>
 <time>2011-09-10T10:51:40Z</time>
 </trkpt>
 <trkpt lat="47.805889" lon="13.427542">
 <ele>502.75</ele>
 <time>2011-09-10T10:51:45Z</time>
 </trkpt>
 <trkpt lat="47.805786" lon="13.426404">
 <ele>495.80</ele>
 <time>2011-09-10T10:51:52Z</time>
 </trkpt>
 <trkpt lat="47.805798" lon="13.425542">
 <ele>491.88</ele>
 <time>2011-09-10T10:51:57Z</time>
 </trkpt>
 <trkpt lat="47.805843" lon="13.424869">
 <ele>490.08</ele>
 <time>2011-09-10T10:52:01Z</time>
 </trkpt>
 <trkpt lat="47.805946" lon="13.424282">
 <ele>489.84</ele>
 <time>2011-09-10T10:52:05Z</time>
 </trkpt>
 <trkpt lat="47.806061" lon="13.423626">
 <ele>490.38</ele>
 <time>2011-09-10T10:52:10Z</time>
 </trkpt>
 <trkpt lat="47.806187" lon="13.423018">
 <ele>490.89</ele>
 <time>2011-09-10T10:52:15Z</time>
 </trkpt>
 <trkpt lat="47.806316" lon="13.422615">
 <ele>491.20</ele>
 <time>2011-09-10T10:52:19Z</time>
 </trkpt>
 <trkpt lat="47.806381" lon="13.422421">
 <ele>491.65</ele>
 <time>2011-09-10T10:52:22Z</time>
 </trkpt>
 <trkpt lat="47.806389" lon="13.422396">
 <ele>491.99</ele>
 <time>2011-09-10T10:52:24Z</time>
 </trkpt>
 <trkpt lat="47.806404" lon="13.422349">
 <ele>492.60</ele>
 <time>2011-09-10T10:53:10Z</time>
 </trkpt>
 <trkpt lat="47.806454" lon="13.422193">
 <ele>492.26</ele>
 <time>2011-09-10T10:53:15Z</time>
 </trkpt>
 <trkpt lat="47.806553" lon="13.421900">
 <ele>492.11</ele>
 <time>2011-09-10T10:53:21Z</time>
 </trkpt>
 <trkpt lat="47.806671" lon="13.421465">
 <ele>491.93</ele>
 <time>2011-09-10T10:53:28Z</time>
 </trkpt>
 <trkpt lat="47.806770" lon="13.421032">
 <ele>492.09</ele>
 <time>2011-09-10T10:53:34Z</time>
 </trkpt>
 <trkpt lat="47.806862" lon="13.420632">
 <ele>492.04</ele>
 <time>2011-09-10T10:53:39Z</time>
 </trkpt>
 <trkpt lat="47.806992" lon="13.420063">
 <ele>492.01</ele>
 <time>2011-09-10T10:53:46Z</time>
 </trkpt>
 <trkpt lat="47.807022" lon="13.419993">
 <ele>492.00</ele>
 <time>2011-09-10T10:53:47Z</time>
 </trkpt>
 <trkpt lat="47.807186" lon="13.419600">
 <ele>492.00</ele>
 <time>2011-09-10T10:53:52Z</time>
 </trkpt>
 <trkpt lat="47.807285" lon="13.419362">
 <ele>491.91</ele>
 <time>2011-09-10T10:53:55Z</time>
 </trkpt>
 <trkpt lat="47.807526" lon="13.418827">
 <ele>491.66</ele>
 <time>2011-09-10T10:54:01Z</time>
 </trkpt>
 <trkpt lat="47.807728" lon="13.418327">
 <ele>491.69</ele>
 <time>2011-09-10T10:54:07Z</time>
 </trkpt>
 <trkpt lat="47.807907" lon="13.417775">
 <ele>491.65</ele>
 <time>2011-09-10T10:54:13Z</time>
 </trkpt>
 <trkpt lat="47.808041" lon="13.417453">
 <ele>491.95</ele>
 <time>2011-09-10T10:54:17Z</time>
 </trkpt>
 <trkpt lat="47.808342" lon="13.416899">
 <ele>491.92</ele>
 <time>2011-09-10T10:54:24Z</time>
 </trkpt>
 <trkpt lat="47.808678" lon="13.416564">
 <ele>492.08</ele>
 <time>2011-09-10T10:54:30Z</time>
 </trkpt>
 <trkpt lat="47.808926" lon="13.416315">
 <ele>492.03</ele>
 <time>2011-09-10T10:54:35Z</time>
 </trkpt>
 <trkpt lat="47.809109" lon="13.416120">
 <ele>492.14</ele>
 <time>2011-09-10T10:54:39Z</time>
 </trkpt>
 <trkpt lat="47.809238" lon="13.415921">
 <ele>492.52</ele>
 <time>2011-09-10T10:54:42Z</time>
 </trkpt>
 <trkpt lat="47.809353" lon="13.415582">
 <ele>492.51</ele>
 <time>2011-09-10T10:54:46Z</time>
 </trkpt>
 <trkpt lat="47.809559" lon="13.415329">
 <ele>492.16</ele>
 <time>2011-09-10T10:54:50Z</time>
 </trkpt>
 <trkpt lat="47.809990" lon="13.415086">
 <ele>493.41</ele>
 <time>2011-09-10T10:54:57Z</time>
 </trkpt>
 <trkpt lat="47.810127" lon="13.415048">
 <ele>492.56</ele>
 <time>2011-09-10T10:54:59Z</time>
 </trkpt>
 <trkpt lat="47.810379" lon="13.414897">
 <ele>492.36</ele>
 <time>2011-09-10T10:55:03Z</time>
 </trkpt>
 <trkpt lat="47.810692" lon="13.414373">
 <ele>492.49</ele>
 <time>2011-09-10T10:55:10Z</time>
 </trkpt>
 <trkpt lat="47.810974" lon="13.413813">
 <ele>491.91</ele>
 <time>2011-09-10T10:55:17Z</time>
 </trkpt>
 <trkpt lat="47.811317" lon="13.413182">
 <ele>492.18</ele>
 <time>2011-09-10T10:55:25Z</time>
 </trkpt>
 <trkpt lat="47.811710" lon="13.412483">
 <ele>491.95</ele>
 <time>2011-09-10T10:55:34Z</time>
 </trkpt>
 <trkpt lat="47.811996" lon="13.412038">
 <ele>492.24</ele>
 <time>2011-09-10T10:55:40Z</time>
 </trkpt>
 <trkpt lat="47.812302" lon="13.411641">
 <ele>492.35</ele>
 <time>2011-09-10T10:55:46Z</time>
 </trkpt>
 <trkpt lat="47.812771" lon="13.410930">
 <ele>491.58</ele>
 <time>2011-09-10T10:55:56Z</time>
 </trkpt>
 <trkpt lat="47.813011" lon="13.410500">
 <ele>491.89</ele>
 <time>2011-09-10T10:56:02Z</time>
 </trkpt>
 <trkpt lat="47.813148" lon="13.409948">
 <ele>492.32</ele>
 <time>2011-09-10T10:56:08Z</time>
 </trkpt>
 <trkpt lat="47.813328" lon="13.409420">
 <ele>492.77</ele>
 <time>2011-09-10T10:56:14Z</time>
 </trkpt>
 <trkpt lat="47.813694" lon="13.408799">
 <ele>492.18</ele>
 <time>2011-09-10T10:56:22Z</time>
 </trkpt>
 <trkpt lat="47.814171" lon="13.408213">
 <ele>491.38</ele>
 <time>2011-09-10T10:56:31Z</time>
 </trkpt>
 <trkpt lat="47.814629" lon="13.407471">
 <ele>491.06</ele>
 <time>2011-09-10T10:56:41Z</time>
 </trkpt>
 <trkpt lat="47.814941" lon="13.406834">
 <ele>490.83</ele>
 <time>2011-09-10T10:56:49Z</time>
 </trkpt>
 <trkpt lat="47.815125" lon="13.406295">
 <ele>490.87</ele>
 <time>2011-09-10T10:56:55Z</time>
 </trkpt>
 <trkpt lat="47.815155" lon="13.405730">
 <ele>491.01</ele>
 <time>2011-09-10T10:57:01Z</time>
 </trkpt>
 <trkpt lat="47.815208" lon="13.404818">
 <ele>491.18</ele>
 <time>2011-09-10T10:57:11Z</time>
 </trkpt>
 <trkpt lat="47.815289" lon="13.404053">
 <ele>492.20</ele>
 <time>2011-09-10T10:57:20Z</time>
 </trkpt>
 <trkpt lat="47.815353" lon="13.403188">
 <ele>494.73</ele>
 <time>2011-09-10T10:57:31Z</time>
 </trkpt>
 <trkpt lat="47.815460" lon="13.402299">
 <ele>495.13</ele>
 <time>2011-09-10T10:57:43Z</time>
 </trkpt>
 <trkpt lat="47.815571" lon="13.401779">
 <ele>497.13</ele>
 <time>2011-09-10T10:57:51Z</time>
 </trkpt>
 <trkpt lat="47.815685" lon="13.401320">
 <ele>498.55</ele>
 <time>2011-09-10T10:57:59Z</time>
 </trkpt>
 <trkpt lat="47.815884" lon="13.400995">
 <ele>499.75</ele>
 <time>2011-09-10T10:58:06Z</time>
 </trkpt>
 <trkpt lat="47.816086" lon="13.400746">
 <ele>501.32</ele>
 <time>2011-09-10T10:58:15Z</time>
 </trkpt>
 <trkpt lat="47.816086" lon="13.400746">
 <ele>502.83</ele>
 <time>2011-09-10T10:58:23Z</time>
 </trkpt>
 <trkpt lat="47.816086" lon="13.400746">
 <ele>503.93</ele>
 <time>2011-09-10T10:58:30Z</time>
 </trkpt>
 <trkpt lat="47.816086" lon="13.400746">
 <ele>505.02</ele>
 <time>2011-09-10T10:58:36Z</time>
 </trkpt>
 <trkpt lat="47.816780" lon="13.400075">
 <ele>505.41</ele>
 <time>2011-09-10T10:58:41Z</time>
 </trkpt>
 <trkpt lat="47.816898" lon="13.399878">
 <ele>506.14</ele>
 <time>2011-09-10T10:58:46Z</time>
 </trkpt>
 <trkpt lat="47.817051" lon="13.399613">
 <ele>508.10</ele>
 <time>2011-09-10T10:58:53Z</time>
 </trkpt>
 <trkpt lat="47.817192" lon="13.399399">
 <ele>509.03</ele>
 <time>2011-09-10T10:59:00Z</time>
 </trkpt>
 <trkpt lat="47.817383" lon="13.399123">
 <ele>510.51</ele>
 <time>2011-09-10T10:59:09Z</time>
 </trkpt>
 <trkpt lat="47.817650" lon="13.398841">
 <ele>511.80</ele>
 <time>2011-09-10T10:59:20Z</time>
 </trkpt>
 <trkpt lat="47.817986" lon="13.398645">
 <ele>513.97</ele>
 <time>2011-09-10T10:59:32Z</time>
 </trkpt>
 <trkpt lat="47.818333" lon="13.398524">
 <ele>515.10</ele>
 <time>2011-09-10T10:59:44Z</time>
 </trkpt>
 <trkpt lat="47.818672" lon="13.398406">
 <ele>517.41</ele>
 <time>2011-09-10T10:59:56Z</time>
 </trkpt>
 <trkpt lat="47.818985" lon="13.398271">
 <ele>518.88</ele>
 <time>2011-09-10T11:00:07Z</time>
 </trkpt>
 <trkpt lat="47.819248" lon="13.398085">
 <ele>520.30</ele>
 <time>2011-09-10T11:00:17Z</time>
 </trkpt>
 <trkpt lat="47.819477" lon="13.397761">
 <ele>520.63</ele>
 <time>2011-09-10T11:00:26Z</time>
 </trkpt>
 <trkpt lat="47.819691" lon="13.397426">
 <ele>522.17</ele>
 <time>2011-09-10T11:00:35Z</time>
 </trkpt>
 <trkpt lat="47.819885" lon="13.397122">
 <ele>522.11</ele>
 <time>2011-09-10T11:00:42Z</time>
 </trkpt>
 <trkpt lat="47.819992" lon="13.396962">
 <ele>521.95</ele>
 <time>2011-09-10T11:00:45Z</time>
 </trkpt>
 <trkpt lat="47.820293" lon="13.396661">
 <ele>520.53</ele>
 <time>2011-09-10T11:00:51Z</time>
 </trkpt>
 <trkpt lat="47.820705" lon="13.396561">
 <ele>518.35</ele>
 <time>2011-09-10T11:00:56Z</time>
 </trkpt>
 <trkpt lat="47.820904" lon="13.396578">
 <ele>517.32</ele>
 <time>2011-09-10T11:00:58Z</time>
 </trkpt>
 <trkpt lat="47.821281" lon="13.396792">
 <ele>514.77</ele>
 <time>2011-09-10T11:01:02Z</time>
 </trkpt>
 <trkpt lat="47.821918" lon="13.397499">
 <ele>509.00</ele>
 <time>2011-09-10T11:01:09Z</time>
 </trkpt>
 <trkpt lat="47.822491" lon="13.398180">
 <ele>504.02</ele>
 <time>2011-09-10T11:01:15Z</time>
 </trkpt>
 <trkpt lat="47.822807" lon="13.398488">
 <ele>502.00</ele>
 <time>2011-09-10T11:01:18Z</time>
 </trkpt>
 <trkpt lat="47.823238" lon="13.398873">
 <ele>498.41</ele>
 <time>2011-09-10T11:01:22Z</time>
 </trkpt>
 <trkpt lat="47.823799" lon="13.399266">
 <ele>495.00</ele>
 <time>2011-09-10T11:01:27Z</time>
 </trkpt>
 <trkpt lat="47.824497" lon="13.399497">
 <ele>492.44</ele>
 <time>2011-09-10T11:01:33Z</time>
 </trkpt>
 <trkpt lat="47.825138" lon="13.399590">
 <ele>491.42</ele>
 <time>2011-09-10T11:01:39Z</time>
 </trkpt>
 <trkpt lat="47.825806" lon="13.399611">
 <ele>491.89</ele>
 <time>2011-09-10T11:01:46Z</time>
 </trkpt>
 <trkpt lat="47.826389" lon="13.399570">
 <ele>493.09</ele>
 <time>2011-09-10T11:01:53Z</time>
 </trkpt>
 <trkpt lat="47.826965" lon="13.399462">
 <ele>494.94</ele>
 <time>2011-09-10T11:02:01Z</time>
 </trkpt>
 <trkpt lat="47.827518" lon="13.399181">
 <ele>495.10</ele>
 <time>2011-09-10T11:02:10Z</time>
 </trkpt>
 <trkpt lat="47.828072" lon="13.398766">
 <ele>496.02</ele>
 <time>2011-09-10T11:02:20Z</time>
 </trkpt>
 <trkpt lat="47.828568" lon="13.398393">
 <ele>495.25</ele>
 <time>2011-09-10T11:02:29Z</time>
 </trkpt>
 <trkpt lat="47.829128" lon="13.397974">
 <ele>494.37</ele>
 <time>2011-09-10T11:02:39Z</time>
 </trkpt>
 <trkpt lat="47.829662" lon="13.397545">
 <ele>493.34</ele>
 <time>2011-09-10T11:02:49Z</time>
 </trkpt>
 <trkpt lat="47.830418" lon="13.396958">
 <ele>493.13</ele>
 <time>2011-09-10T11:03:03Z</time>
 </trkpt>
 <trkpt lat="47.831081" lon="13.396510">
 <ele>492.50</ele>
 <time>2011-09-10T11:03:15Z</time>
 </trkpt>
 <trkpt lat="47.831501" lon="13.396063">
 <ele>491.95</ele>
 <time>2011-09-10T11:03:23Z</time>
 </trkpt>
 <trkpt lat="47.831913" lon="13.395464">
 <ele>490.85</ele>
 <time>2011-09-10T11:03:32Z</time>
 </trkpt>
 <trkpt lat="47.832363" lon="13.394845">
 <ele>489.96</ele>
 <time>2011-09-10T11:03:42Z</time>
 </trkpt>
 <trkpt lat="47.832649" lon="13.394523">
 <ele>489.62</ele>
 <time>2011-09-10T11:03:51Z</time>
 </trkpt>
 <trkpt lat="47.833374" lon="13.393801">
 <ele>489.38</ele>
 <time>2011-09-10T11:04:01Z</time>
 </trkpt>
 <trkpt lat="47.834023" lon="13.393174">
 <ele>488.95</ele>
 <time>2011-09-10T11:04:13Z</time>
 </trkpt>
 <trkpt lat="47.834457" lon="13.392628">
 <ele>488.81</ele>
 <time>2011-09-10T11:04:22Z</time>
 </trkpt>
 <trkpt lat="47.834690" lon="13.392235">
 <ele>489.21</ele>
 <time>2011-09-10T11:04:28Z</time>
 </trkpt>
 <trkpt lat="47.834785" lon="13.392058">
 <ele>490.25</ele>
 <time>2011-09-10T11:04:32Z</time>
 </trkpt>
 <trkpt lat="47.834820" lon="13.392001">
 <ele>490.40</ele>
 <time>2011-09-10T11:04:34Z</time>
 </trkpt>
 <trkpt lat="47.834869" lon="13.391903">
 <ele>490.65</ele>
 <time>2011-09-10T11:04:40Z</time>
 </trkpt>
 <trkpt lat="47.834881" lon="13.391874">
 <ele>490.63</ele>
 <time>2011-09-10T11:04:41Z</time>
 </trkpt>
 <trkpt lat="47.835037" lon="13.391521">
 <ele>490.13</ele>
 <time>2011-09-10T11:04:48Z</time>
 </trkpt>
 <trkpt lat="47.835262" lon="13.390989">
 <ele>490.49</ele>
 <time>2011-09-10T11:04:57Z</time>
 </trkpt>
 <trkpt lat="47.835499" lon="13.390404">
 <ele>490.68</ele>
 <time>2011-09-10T11:05:06Z</time>
 </trkpt>
 <trkpt lat="47.835693" lon="13.389942">
 <ele>490.45</ele>
 <time>2011-09-10T11:05:13Z</time>
 </trkpt>
 <trkpt lat="47.835953" lon="13.389588">
 <ele>490.59</ele>
 <time>2011-09-10T11:05:20Z</time>
 </trkpt>
 <trkpt lat="47.836395" lon="13.389174">
 <ele>490.66</ele>
 <time>2011-09-10T11:05:29Z</time>
 </trkpt>
 <trkpt lat="47.836723" lon="13.388810">
 <ele>489.79</ele>
 <time>2011-09-10T11:05:36Z</time>
 </trkpt>
 <trkpt lat="47.836987" lon="13.388347">
 <ele>489.06</ele>
 <time>2011-09-10T11:05:43Z</time>
 </trkpt>
 <trkpt lat="47.837242" lon="13.387624">
 <ele>489.09</ele>
 <time>2011-09-10T11:05:53Z</time>
 </trkpt>
 <trkpt lat="47.837456" lon="13.387061">
 <ele>489.44</ele>
 <time>2011-09-10T11:06:01Z</time>
 </trkpt>
 <trkpt lat="47.837784" lon="13.386541">
 <ele>489.71</ele>
 <time>2011-09-10T11:06:10Z</time>
 </trkpt>
 <trkpt lat="47.838078" lon="13.386262">
 <ele>490.16</ele>
 <time>2011-09-10T11:06:17Z</time>
 </trkpt>
 <trkpt lat="47.838509" lon="13.386013">
 <ele>489.92</ele>
 <time>2011-09-10T11:06:25Z</time>
 </trkpt>
 <trkpt lat="47.839016" lon="13.385589">
 <ele>489.36</ele>
 <time>2011-09-10T11:06:35Z</time>
 </trkpt>
 <trkpt lat="47.839539" lon="13.385078">
 <ele>489.14</ele>
 <time>2011-09-10T11:06:46Z</time>
 </trkpt>
 <trkpt lat="47.839981" lon="13.384746">
 <ele>489.35</ele>
 <time>2011-09-10T11:06:55Z</time>
 </trkpt>
 <trkpt lat="47.840538" lon="13.384441">
 <ele>489.41</ele>
 <time>2011-09-10T11:07:06Z</time>
 </trkpt>
 <trkpt lat="47.840981" lon="13.384099">
 <ele>489.51</ele>
 <time>2011-09-10T11:07:15Z</time>
 </trkpt>
 <trkpt lat="47.841236" lon="13.383843">
 <ele>489.58</ele>
 <time>2011-09-10T11:07:21Z</time>
 </trkpt>
 <trkpt lat="47.841385" lon="13.383687">
 <ele>489.62</ele>
 <time>2011-09-10T11:07:26Z</time>
 </trkpt>
 <trkpt lat="47.841640" lon="13.383275">
 <ele>489.62</ele>
 <time>2011-09-10T11:07:31Z</time>
 </trkpt>
 <trkpt lat="47.841675" lon="13.383209">
 <ele>489.60</ele>
 <time>2011-09-10T11:07:32Z</time>
 </trkpt>
 <trkpt lat="47.841923" lon="13.382535">
 <ele>489.18</ele>
 <time>2011-09-10T11:07:41Z</time>
 </trkpt>
 <trkpt lat="47.842049" lon="13.381957">
 <ele>488.88</ele>
 <time>2011-09-10T11:07:48Z</time>
 </trkpt>
 <trkpt lat="47.842285" lon="13.381069">
 <ele>488.55</ele>
 <time>2011-09-10T11:07:59Z</time>
 </trkpt>
 <trkpt lat="47.842484" lon="13.380470">
 <ele>488.76</ele>
 <time>2011-09-10T11:08:07Z</time>
 </trkpt>
 <trkpt lat="47.842815" lon="13.379596">
 <ele>488.91</ele>
 <time>2011-09-10T11:08:19Z</time>
 </trkpt>
 <trkpt lat="47.843124" lon="13.379012">
 <ele>488.59</ele>
 <time>2011-09-10T11:08:28Z</time>
 </trkpt>
 <trkpt lat="47.843502" lon="13.378317">
 <ele>488.48</ele>
 <time>2011-09-10T11:08:39Z</time>
 </trkpt>
 <trkpt lat="47.843880" lon="13.377725">
 <ele>488.56</ele>
 <time>2011-09-10T11:08:49Z</time>
 </trkpt>
 <trkpt lat="47.844238" lon="13.377080">
 <ele>488.40</ele>
 <time>2011-09-10T11:08:59Z</time>
 </trkpt>
 <trkpt lat="47.844505" lon="13.376526">
 <ele>488.23</ele>
 <time>2011-09-10T11:09:07Z</time>
 </trkpt>
 <trkpt lat="47.844795" lon="13.375880">
 <ele>488.29</ele>
 <time>2011-09-10T11:09:16Z</time>
 </trkpt>
 <trkpt lat="47.845104" lon="13.375143">
 <ele>488.47</ele>
 <time>2011-09-10T11:09:26Z</time>
 </trkpt>
 <trkpt lat="47.845383" lon="13.374311">
 <ele>488.93</ele>
 <time>2011-09-10T11:09:37Z</time>
 </trkpt>
 <trkpt lat="47.845539" lon="13.373773">
 <ele>489.24</ele>
 <time>2011-09-10T11:09:44Z</time>
 </trkpt>
 <trkpt lat="47.845619" lon="13.373214">
 <ele>489.49</ele>
 <time>2011-09-10T11:09:51Z</time>
 </trkpt>
 <trkpt lat="47.845711" lon="13.372598">
 <ele>490.14</ele>
 <time>2011-09-10T11:09:59Z</time>
 </trkpt>
 <trkpt lat="47.845871" lon="13.372140">
 <ele>490.47</ele>
 <time>2011-09-10T11:10:06Z</time>
 </trkpt>
 <trkpt lat="47.846149" lon="13.371593">
 <ele>490.57</ele>
 <time>2011-09-10T11:10:15Z</time>
 </trkpt>
 <trkpt lat="47.846481" lon="13.371050">
 <ele>490.17</ele>
 <time>2011-09-10T11:10:24Z</time>
 </trkpt>
 <trkpt lat="47.846809" lon="13.370505">
 <ele>489.36</ele>
 <time>2011-09-10T11:10:33Z</time>
 </trkpt>
 <trkpt lat="47.846905" lon="13.370311">
 <ele>489.40</ele>
 <time>2011-09-10T11:10:37Z</time>
 </trkpt>
 <trkpt lat="47.846939" lon="13.370233">
 <ele>489.61</ele>
 <time>2011-09-10T11:10:42Z</time>
 </trkpt>
 <trkpt lat="47.847195" lon="13.369802">
 <ele>489.08</ele>
 <time>2011-09-10T11:10:48Z</time>
 </trkpt>
 <trkpt lat="47.847450" lon="13.369197">
 <ele>488.33</ele>
 <time>2011-09-10T11:10:57Z</time>
 </trkpt>
 <trkpt lat="47.847740" lon="13.368310">
 <ele>488.26</ele>
 <time>2011-09-10T11:11:09Z</time>
 </trkpt>
 <trkpt lat="47.847885" lon="13.367752">
 <ele>487.91</ele>
 <time>2011-09-10T11:11:16Z</time>
 </trkpt>
 <trkpt lat="47.848007" lon="13.366950">
 <ele>488.00</ele>
 <time>2011-09-10T11:11:26Z</time>
 </trkpt>
 <trkpt lat="47.848106" lon="13.366130">
 <ele>488.08</ele>
 <time>2011-09-10T11:11:36Z</time>
 </trkpt>
 <trkpt lat="47.848206" lon="13.365496">
 <ele>488.27</ele>
 <time>2011-09-10T11:11:44Z</time>
 </trkpt>
 <trkpt lat="47.848389" lon="13.364913">
 <ele>488.44</ele>
 <time>2011-09-10T11:11:52Z</time>
 </trkpt>
 <trkpt lat="47.848690" lon="13.364326">
 <ele>488.30</ele>
 <time>2011-09-10T11:12:01Z</time>
 </trkpt>
 <trkpt lat="47.848957" lon="13.363700">
 <ele>488.11</ele>
 <time>2011-09-10T11:12:10Z</time>
 </trkpt>
 <trkpt lat="47.849171" lon="13.363032">
 <ele>488.28</ele>
 <time>2011-09-10T11:12:19Z</time>
 </trkpt>
 <trkpt lat="47.849293" lon="13.362426">
 <ele>488.52</ele>
 <time>2011-09-10T11:12:27Z</time>
 </trkpt>
 <trkpt lat="47.849468" lon="13.362035">
 <ele>488.86</ele>
 <time>2011-09-10T11:12:33Z</time>
 </trkpt>
 <trkpt lat="47.849743" lon="13.361690">
 <ele>488.86</ele>
 <time>2011-09-10T11:12:40Z</time>
 </trkpt>
 <trkpt lat="47.850109" lon="13.361411">
 <ele>489.55</ele>
 <time>2011-09-10T11:12:48Z</time>
 </trkpt>
 <trkpt lat="47.850464" lon="13.361171">
 <ele>490.16</ele>
 <time>2011-09-10T11:12:56Z</time>
 </trkpt>
 <trkpt lat="47.850727" lon="13.360892">
 <ele>491.04</ele>
 <time>2011-09-10T11:13:03Z</time>
 </trkpt>
 <trkpt lat="47.850937" lon="13.360511">
 <ele>491.88</ele>
 <time>2011-09-10T11:13:10Z</time>
 </trkpt>
 <trkpt lat="47.851040" lon="13.360276">
 <ele>492.66</ele>
 <time>2011-09-10T11:13:18Z</time>
 </trkpt>
 <trkpt lat="47.851349" lon="13.359484">
 <ele>492.44</ele>
 <time>2011-09-10T11:13:26Z</time>
 </trkpt>
 <trkpt lat="47.851612" lon="13.358968">
 <ele>490.85</ele>
 <time>2011-09-10T11:13:34Z</time>
 </trkpt>
 <trkpt lat="47.852036" lon="13.358336">
 <ele>489.07</ele>
 <time>2011-09-10T11:13:44Z</time>
 </trkpt>
 <trkpt lat="47.852360" lon="13.357819">
 <ele>488.56</ele>
 <time>2011-09-10T11:13:52Z</time>
 </trkpt>
 <trkpt lat="47.852394" lon="13.357753">
 <ele>488.49</ele>
 <time>2011-09-10T11:13:53Z</time>
 </trkpt>
 <trkpt lat="47.852615" lon="13.357154">
 <ele>488.34</ele>
 <time>2011-09-10T11:14:02Z</time>
 </trkpt>
 <trkpt lat="47.852768" lon="13.356605">
 <ele>488.58</ele>
 <time>2011-09-10T11:14:10Z</time>
 </trkpt>
 <trkpt lat="47.852859" lon="13.355930">
 <ele>488.43</ele>
 <time>2011-09-10T11:14:19Z</time>
 </trkpt>
 <trkpt lat="47.852955" lon="13.355133">
 <ele>488.94</ele>
 <time>2011-09-10T11:14:30Z</time>
 </trkpt>
 <trkpt lat="47.852989" lon="13.354416">
 <ele>489.35</ele>
 <time>2011-09-10T11:14:40Z</time>
 </trkpt>
 <trkpt lat="47.853004" lon="13.353608">
 <ele>489.53</ele>
 <time>2011-09-10T11:14:51Z</time>
 </trkpt>
 <trkpt lat="47.852989" lon="13.353152">
 <ele>490.10</ele>
 <time>2011-09-10T11:15:01Z</time>
 </trkpt>
 <trkpt lat="47.852978" lon="13.352516">
 <ele>490.40</ele>
 <time>2011-09-10T11:15:08Z</time>
 </trkpt>
 <trkpt lat="47.852932" lon="13.351993">
 <ele>490.62</ele>
 <time>2011-09-10T11:15:16Z</time>
 </trkpt>
 <trkpt lat="47.852814" lon="13.351355">
 <ele>490.73</ele>
 <time>2011-09-10T11:15:26Z</time>
 </trkpt>
 <trkpt lat="47.852680" lon="13.350711">
 <ele>490.78</ele>
 <time>2011-09-10T11:15:36Z</time>
 </trkpt>
 <trkpt lat="47.852581" lon="13.350261">
 <ele>490.85</ele>
 <time>2011-09-10T11:15:44Z</time>
 </trkpt>
 <trkpt lat="47.852478" lon="13.349823">
 <ele>490.80</ele>
 <time>2011-09-10T11:15:51Z</time>
 </trkpt>
 <trkpt lat="47.852375" lon="13.349387">
 <ele>490.89</ele>
 <time>2011-09-10T11:15:58Z</time>
 </trkpt>
 <trkpt lat="47.852303" lon="13.349081">
 <ele>491.02</ele>
 <time>2011-09-10T11:16:05Z</time>
 </trkpt>
 <trkpt lat="47.852264" lon="13.348941">
 <ele>490.99</ele>
 <time>2011-09-10T11:16:09Z</time>
 </trkpt>
 <trkpt lat="47.852169" lon="13.348671">
 <ele>490.63</ele>
 <time>2011-09-10T11:16:15Z</time>
 </trkpt>
 <trkpt lat="47.852032" lon="13.348298">
 <ele>490.58</ele>
 <time>2011-09-10T11:16:23Z</time>
 </trkpt>
 <trkpt lat="47.851833" lon="13.347753">
 <ele>489.97</ele>
 <time>2011-09-10T11:16:33Z</time>
 </trkpt>
 <trkpt lat="47.851692" lon="13.347416">
 <ele>489.73</ele>
 <time>2011-09-10T11:16:39Z</time>
 </trkpt>
 <trkpt lat="47.851448" lon="13.346869">
 <ele>489.64</ele>
 <time>2011-09-10T11:16:48Z</time>
 </trkpt>
 <trkpt lat="47.851273" lon="13.346474">
 <ele>489.45</ele>
 <time>2011-09-10T11:16:55Z</time>
 </trkpt>
 <trkpt lat="47.851196" lon="13.346303">
 <ele>489.82</ele>
 <time>2011-09-10T11:17:00Z</time>
 </trkpt>
 <trkpt lat="47.851139" lon="13.346170">
 <ele>489.67</ele>
 <time>2011-09-10T11:17:03Z</time>
 </trkpt>
 <trkpt lat="47.850933" lon="13.346182">
 <ele>489.51</ele>
 <time>2011-09-10T11:17:07Z</time>
 </trkpt>
 <trkpt lat="47.851109" lon="13.346105">
 <ele>489.72</ele>
 <time>2011-09-10T11:17:10Z</time>
 </trkpt>
 <trkpt lat="47.851185" lon="13.346276">
 <ele>490.11</ele>
 <time>2011-09-10T11:17:15Z</time>
 </trkpt>
 <trkpt lat="47.851196" lon="13.346296">
 <ele>490.33</ele>
 <time>2011-09-10T11:17:17Z</time>
 </trkpt>
 </trkseg>
 </trk>
</gpx>
